GEFSSGP_con_prob3kmehi_006.txt.gz
EHI
0 0 0 0 0 0 0 0 0 0 0 1 3 5 3 1 0 0 0 2 5 3 1 0 0 0 0 0 0 0 0 0 0 0 0 0 0 0 0 0 0 0 0 0 0 0 0 0 0
0 0 0 0 0 0 0 0 0 0 0 1 5 7 5 2 1 0 0 1 2 1 0 0 0 0 0 0 0 0 0 0 0 0 0 0 0 0 2 2 1 0 0 0 0 0 0 0 0
0 0 0 0 0 0 0 0 0 0 0 1 3 4 3 2 2 2 1 0 0 0 0 0 0 0 1 4 4 2 1 2 5 6 4 2 1 1 4 5 2 0 0 0 0 0 0 0 0
0 0 0 0 0 0 0 0 0 0 0 1 2 2 1 5 11 11 5 2 0 0 0 0 0 1 5 14 17 12 9 16 27 28 19 9 2 1 2 4 2 0 0 0 0 0 0 0 0
0 0 0 0 0 0 0 0 0 0 0 3 8 7 4 12 22 20 9 3 1 0 0 0 1 3 9 24 33 27 25 40 57 56 38 16 4 0 0 1 0 0 0 0 0 0 0 0 0
0 0 0 0 0 0 0 0 0 0 0 3 9 10 10 20 27 20 10 4 1 0 0 2 5 9 14 25 33 31 32 45 57 56 38 15 2 0 0 0 0 0 0 0 0 0 0 0 0
0 0 0 0 0 0 0 0 0 0 0 1 7 10 13 22 26 21 15 10 5 0 1 6 12 13 13 15 17 17 18 23 28 29 20 7 1 0 0 0 0 0 0 0 0 0 0 0 0
0 0 0 0 0 0 0 0 0 0 0 0 5 8 11 21 33 35 32 23 11 2 2 8 13 11 6 5 4 4 4 4 6 7 5 1 0 0 0 0 0 0 0 0 0 0 0 0 0
0 0 0 0 0 0 0 0 0 0 0 4 9 11 13 24 41 52 53 39 18 5 2 4 6 4 1 0 1 1 1 0 1 1 0 0 0 0 0 0 0 0 0 0 0 0 0 0 0
0 0 0 0 0 0 0 0 0 0 2 11 22 23 20 28 46 60 63 48 23 6 1 0 0 0 0 0 0 0 0 0 0 0 0 0 0 0 0 0 0 0 0 0 0 0 0 0 0
0 0 0 0 0 0 0 0 0 0 3 16 30 30 24 29 45 57 57 43 19 4 1 0 0 0 0 0 0 0 0 0 0 0 0 0 0 0 0 0 0 0 0 0 0 0 0 0 0
0 0 0 0 0 0 0 0 0 0 3 12 22 23 19 23 35 46 50 40 20 5 2 2 1 0 0 0 0 0 0 0 0 0 0 0 0 0 0 0 0 0 0 0 0 0 0 0 0
0 0 0 0 0 0 0 0 0 0 3 9 13 12 9 12 20 33 49 52 35 15 7 5 3 1 0 0 0 0 0 0 0 0 0 0 0 0 0 0 0 0 0 0 0 0 0 0 0
0 0 0 0 0 0 0 0 0 0 4 8 7 4 2 5 14 31 53 63 49 26 12 9 7 3 1 0 0 0 0 0 0 0 0 0 0 0 0 0 0 0 0 0 0 0 0 0 0
0 0 0 0 0 0 0 0 0 0 2 4 3 1 1 3 15 36 55 61 47 26 15 14 12 6 1 0 0 0 0 0 0 0 0 0 0 0 0 0 0 0 0 0 0 0 0 0 0
0 0 0 0 0 0 0 0 0 0 0 0 1 2 3 5 15 33 47 46 31 18 14 15 13 6 1 0 0 0 0 0 0 0 0 0 0 0 0 0 0 0 0 0 0 0 0 0 0
0 0 0 0 0 0 0 0 0 0 0 0 1 3 5 8 13 23 30 24 15 10 11 11 9 5 1 0 0 0 0 0 0 0 0 0 0 0 0 0 0 0 0 0 0 0 0 0 0
0 0 0 0 0 0 0 0 0 0 1 1 3 8 12 13 12 12 12 8 6 5 5 5 4 2 0 0 0 0 0 0 0 0 0 0 0 0 0 0 0 0 0 0 0 0 0 0 0
0 0 0 0 0 0 0 0 0 1 2 6 15 28 35 33 24 13 6 2 1 2 2 1 1 0 0 0 0 0 0 0 0 0 0 0 0 0 0 0 0 0 0 0 0 0 0 0 0
0 0 0 0 0 0 0 0 0 1 6 20 42 60 64 60 48 27 9 1 0 0 0 0 0 0 0 0 0 0 0 0 0 0 0 0 0 0 0 0 0 0 0 0 0 0 0 0 0
0 0 0 0 0 0 0 0 0 2 13 37 64 77 75 67 54 31 9 1 0 0 0 0 0 0 0 0 0 0 0 0 0 0 0 0 0 0 0 0 0 0 0 0 0 0 0 0 0
0 0 0 0 0 0 0 0 0 3 16 42 62 66 57 46 34 18 5 0 0 0 0 0 0 0 0 0 0 0 0 0 0 0 0 0 0 0 0 0 0 0 0 0 0 0 0 0 0
0 0 0 0 0 0 0 0 0 2 13 32 44 40 28 18 11 5 1 0 0 0 0 0 0 0 0 0 0 0 0 0 0 0 0 0 0 0 0 0 0 0 0 0 0 0 0 0 0
0 0 0 0 0 0 0 0 0 1 10 26 30 19 9 3 1 1 0 0 0 0 0 0 0 0 0 0 0 0 0 0 0 0 0 0 0 0 0 0 0 0 0 0 0 0 0 0 0
0 0 0 0 0 0 0 0 0 0 9 21 19 8 2 0 0 0 0 0 0 0 0 0 0 0 0 0 0 0 0 0 0 0 0 0 0 0 0 0 0 0 0 0 0 0 0 0 0
0 0 0 0 0 0 0 0 0 1 5 9 7 2 0 0 0 0 0 0 0 0 0 0 0 0 0 0 0 0 0 0 0 0 0 0 0 0 0 0 0 0 0 0 0 0 0 0 0
0 0 0 0 0 0 0 0 0 1 2 2 0 0 0 0 0 0 0 0 0 0 0 0 0 0 0 0 0 0 0 0 0 0 0 0 0 0 0 0 0 0 0 0 0 0 0 0 0
0 0 0 0 0 0 0 0 0 1 1 1 0 0 0 0 0 0 0 0 0 0 0 0 0 0 0 0 0 0 0 0 0 0 0 0 0 0 0 0 0 0 0 0 0 0 0 0 0
0 0 0 0 0 0 0 0 0 0 0 0 0 0 0 0 0 0 0 0 0 0 0 0 0 0 0 0 0 0 0 0 0 0 0 0 0 0 0 0 0 0 0 0 0 0 0 0 0
0 0 0 0 0 0 0 0 0 0 0 0 0 0 0 0 0 0 0 0 0 0 0 0 0 0 0 0 0 0 0 0 0 0 0 0 0 0 0 0 0 0 0 0 0 0 0 0 0

GEFSSGP_con_prob3kmehi_012.txt.gz
EHI
0 0 0 0 0 0 0 0 0 0 0 0 0 0 0 0 0 0 0 0 0 0 0 0 1 5 6 7 9 9 6 2 0 0 0 1 2 2 1 0 0 0 0 0 0 0 0 0 0
0 0 0 0 0 0 0 0 0 0 0 0 0 0 0 0 0 0 0 0 0 0 0 0 1 5 6 5 6 7 5 2 0 0 0 0 1 1 0 0 0 0 0 0 0 0 0 0 0
0 0 0 0 0 0 0 0 0 0 0 0 0 0 0 0 0 0 0 0 0 0 0 0 1 2 3 3 6 8 7 4 1 0 0 0 0 0 0 0 0 0 0 0 0 0 0 0 0
0 0 0 0 0 0 0 0 0 0 0 0 0 0 0 0 0 1 1 0 0 0 0 0 0 2 4 7 14 21 22 16 8 2 0 0 0 0 0 0 0 0 0 0 0 0 0 0 0
0 0 0 0 0 0 0 0 0 0 0 0 0 0 0 0 1 3 2 1 0 0 0 0 3 10 17 22 32 43 44 38 25 11 3 0 0 0 0 0 0 0 0 0 0 0 0 0 0
0 0 0 0 0 0 0 0 0 0 0 1 1 0 0 0 2 4 3 1 0 0 0 0 8 25 37 42 50 58 62 57 43 22 6 1 0 0 0 0 0 0 0 0 0 0 0 0 0
0 0 0 0 0 0 0 0 0 0 0 1 2 1 0 0 2 3 2 0 0 0 0 0 8 24 35 41 48 54 57 53 41 21 6 1 0 0 0 0 0 0 0 0 0 0 0 0 0
0 0 0 0 0 0 0 0 0 0 0 1 1 1 1 2 2 2 1 0 0 0 0 0 3 9 13 18 26 31 31 28 20 11 3 0 0 0 0 0 0 0 0 0 0 0 0 0 0
0 0 0 0 0 0 0 0 0 0 0 1 2 7 13 13 7 1 0 0 1 1 1 1 0 0 0 2 6 9 8 6 4 2 1 0 0 0 0 0 0 0 0 0 0 0 0 0 0
0 0 0 0 0 0 0 0 0 0 1 5 15 29 40 33 14 2 0 1 3 4 4 2 1 0 0 0 0 1 1 0 0 0 0 0 0 0 0 0 0 0 0 0 0 0 0 0 0
0 0 0 0 0 0 0 0 0 0 1 13 39 63 64 42 16 3 0 1 3 4 4 3 1 0 0 0 0 0 0 0 0 0 0 0 0 0 0 0 0 0 0 0 0 0 0 0 0
0 0 0 0 0 0 0 0 0 0 3 24 62 85 73 40 13 2 0 0 1 2 2 1 0 0 0 0 0 0 0 0 0 0 0 0 0 0 0 0 0 0 0 0 0 0 0 0 0
0 0 0 0 0 0 0 0 0 1 11 41 79 92 72 37 11 2 0 0 0 1 1 0 0 0 0 0 0 0 0 0 0 0 0 0 0 0 0 0 0 0 0 0 0 0 0 0 0
0 0 0 0 0 0 0 0 0 6 29 65 91 93 70 36 12 3 1 0 0 0 0 0 0 0 0 0 0 0 0 0 0 0 0 0 0 0 0 0 0 0 0 0 0 0 0 0 0
0 0 0 0 0 0 0 0 0 12 47 81 95 91 70 38 13 4 2 1 0 0 0 0 0 0 0 0 0 0 0 0 0 0 0 0 0 0 0 0 0 0 0 0 0 0 0 0 0
0 0 0 0 0 0 0 0 0 14 50 81 90 86 71 40 12 4 3 2 0 0 0 0 0 0 0 0 0 0 0 0 0 0 0 0 0 0 0 0 0 0 0 0 0 0 0 0 0
0 0 0 0 0 0 0 0 0 10 38 66 78 80 71 43 14 3 2 1 0 0 0 0 0 0 0 0 0 0 0 0 0 0 0 0 0 0 0 0 0 0 0 0 0 0 0 0 0
0 0 0 0 0 0 0 0 0 4 18 39 56 64 61 40 13 2 1 0 0 0 0 0 0 0 0 0 0 0 0 0 0 0 0 0 0 0 0 0 0 0 0 0 0 0 0 0 0
0 0 0 0 0 0 0 0 0 1 4 13 25 35 37 27 11 2 0 0 0 0 0 0 0 0 0 0 0 0 0 0 0 0 0 0 0 0 0 0 0 0 0 0 0 0 0 0 0
0 0 0 0 0 0 0 0 0 0 0 1 5 9 13 15 12 5 1 0 0 0 0 0 0 0 0 0 0 0 0 0 0 0 0 0 0 0 0 0 0 0 0 0 0 0 0 0 0
0 0 0 0 0 0 0 0 0 0 0 0 0 1 5 13 14 7 1 0 0 0 0 0 0 0 0 0 0 0 0 0 0 0 0 0 0 0 0 0 0 0 0 0 0 0 0 0 0
0 0 0 0 0 0 0 0 0 0 0 0 1 3 10 18 17 6 0 0 0 0 0 0 0 0 0 0 0 0 0 0 0 0 0 0 0 0 0 0 0 0 0 0 0 0 0 0 0
0 0 0 0 0 0 0 0 0 0 0 0 6 17 28 31 19 5 0 0 0 0 0 0 0 0 0 0 0 0 0 0 0 0 0 0 0 0 0 0 0 0 0 0 0 0 0 0 0
0 0 0 0 0 0 0 0 0 0 0 3 18 40 50 39 19 4 0 0 0 0 0 0 0 0 0 0 0 0 0 0 0 0 0 0 0 0 0 0 0 0 0 0 0 0 0 0 0
0 0 0 0 0 0 0 0 0 0 0 6 28 53 55 35 13 2 0 0 0 0 0 0 0 0 0 0 0 0 0 0 0 0 0 0 0 0 0 0 0 0 0 0 0 0 0 0 0
0 0 0 0 0 0 0 0 0 0 1 10 33 51 44 23 7 1 0 0 0 0 0 0 0 0 0 0 0 0 0 0 0 0 0 0 0 0 0 0 0 0 0 0 0 0 0 0 0
0 0 0 0 0 0 0 0 0 0 2 16 37 43 30 13 3 0 0 0 0 0 0 0 0 0 0 0 0 0 0 0 0 0 0 0 0 0 0 0 0 0 0 0 0 0 0 0 0
0 0 0 0 0 0 0 0 0 0 3 18 34 33 19 6 1 0 0 0 0 0 0 0 0 0 0 0 0 0 0 0 0 0 0 0 0 0 0 0 0 0 0 0 0 0 0 0 0
0 0 0 0 0 0 0 0 0 0 2 12 21 18 9 3 0 0 0 0 0 0 0 0 0 0 0 0 0 0 0 0 0 0 0 0 0 0 0 0 0 0 0 0 0 0 0 0 0
0 0 0 0 0 0 0 0 0 0 1 6 11 9 4 1 0 0 0 0 0 0 0 0 0 0 0 0 0 0 0 0 0 0 0 0 0 0 0 0 0 0 0 0 0 0 0 0 0

GEFSSGP_con_prob3kmehi_018.txt.gz
EHI
0 0 0 0 0 0 0 0 0 0 0 0 0 0 0 0 0 1 1 1 0 1 2 6 10 7 2 0 1 4 9 16 22 28 29 24 15 5 1 0 0 0 0 0 0 1 1 1 0
0 0 0 0 0 0 0 0 0 0 0 0 0 0 0 0 0 2 4 3 1 0 1 5 11 9 3 0 0 2 6 9 13 16 16 12 7 2 0 0 0 0 0 0 1 2 2 2 1
0 0 0 0 0 0 0 0 0 0 0 0 0 0 0 0 1 3 5 3 1 0 0 4 8 8 4 1 0 0 2 3 4 5 4 3 1 0 0 0 0 0 1 1 1 3 3 2 2
0 0 0 0 0 0 0 0 0 0 0 0 0 0 0 0 2 5 4 1 0 0 0 1 3 3 2 1 0 0 0 1 1 1 1 1 0 0 0 0 0 1 2 2 2 2 2 1 1
0 0 0 0 0 0 0 0 0 0 0 0 0 0 1 5 8 7 2 0 0 0 0 0 0 0 1 1 2 3 2 1 0 0 0 0 0 0 0 0 0 1 2 2 1 1 1 0 0
0 0 0 0 0 0 0 0 0 0 0 0 0 0 3 11 14 7 1 0 0 0 0 0 0 0 1 4 7 9 8 4 2 1 1 1 1 0 0 0 1 2 2 1 0 0 0 0 0
0 0 0 0 0 0 0 0 0 0 0 0 0 0 3 12 15 7 0 0 0 0 0 0 0 0 1 5 10 13 12 8 5 4 3 3 1 0 0 0 1 2 2 1 0 0 0 0 0
0 0 0 0 0 0 0 0 0 0 0 0 0 0 4 11 12 4 0 0 0 0 0 0 0 0 1 3 7 9 9 7 5 4 3 2 1 0 0 1 1 3 2 1 0 0 0 0 0
0 0 0 0 0 0 0 0 0 0 0 0 0 0 4 11 10 3 0 0 0 0 0 0 0 0 0 2 3 4 4 4 2 1 1 1 0 0 0 1 2 2 2 1 0 0 0 0 0
0 0 0 0 0 0 0 0 0 0 0 0 0 0 5 11 9 3 0 0 0 0 0 0 0 0 0 1 1 1 1 1 0 0 0 0 0 0 0 1 1 1 1 0 0 0 0 0 0
0 0 0 0 0 0 0 0 0 0 0 0 1 4 10 13 8 3 1 0 0 0 0 0 0 0 0 0 0 0 0 0 0 0 0 0 0 0 0 0 0 0 0 0 0 0 0 0 0
0 0 0 0 0 0 0 0 0 0 0 0 2 8 17 15 7 3 2 1 0 0 0 0 0 0 1 0 0 0 0 0 0 0 0 0 0 0 0 0 0 0 0 0 0 0 0 0 0
0 0 0 0 0 0 0 0 0 0 0 0 1 8 15 12 6 6 7 5 3 1 0 0 0 1 3 2 0 0 0 0 0 0 0 0 0 0 0 0 0 0 0 0 0 0 0 0 0
0 0 0 0 0 0 0 0 0 0 0 0 1 5 8 6 9 18 24 20 10 4 1 0 1 2 4 3 1 1 1 1 0 0 0 0 0 0 0 0 0 0 0 0 0 0 0 0 0
0 0 0 0 0 0 0 0 0 0 0 0 1 3 5 7 17 36 49 42 24 10 4 2 3 6 10 13 11 7 4 3 2 0 0 0 0 0 0 0 0 0 0 0 0 0 0 0 0
0 0 0 0 0 0 0 0 0 0 0 0 1 2 8 14 27 50 68 64 46 29 20 15 14 19 29 39 38 27 18 14 7 2 0 0 0 0 0 0 0 0 0 0 0 0 0 0 0
0 0 0 0 0 0 0 0 0 0 0 0 1 3 13 26 42 64 81 80 71 60 53 47 44 48 57 64 62 51 37 23 11 3 0 0 0 0 0 0 0 0 0 0 0 0 0 0 0
0 0 0 0 0 0 0 0 0 0 0 0 2 8 20 39 61 80 91 90 88 86 85 81 78 78 76 73 68 54 34 18 8 3 0 0 0 0 0 0 0 0 0 0 0 0 0 0 0
0 0 0 0 0 0 0 0 0 0 0 0 2 10 27 51 76 92 96 95 96 97 97 96 92 87 81 75 63 41 19 8 4 2 0 0 0 0 0 0 0 0 0 0 0 0 0 0 0
0 0 0 0 0 0 0 0 0 0 0 0 1 9 29 59 85 95 96 95 96 96 95 92 89 84 78 69 49 24 8 3 2 1 0 0 0 0 0 0 0 0 0 0 0 0 0 0 0
0 0 0 0 0 0 0 0 0 0 0 0 0 6 26 60 87 95 92 89 89 87 82 78 75 73 66 49 25 9 2 1 1 0 0 0 0 0 0 0 0 0 0 0 0 0 0 0 0
0 0 0 0 0 0 0 0 0 0 0 0 0 3 19 52 82 90 84 76 71 65 58 53 51 48 39 22 6 0 0 0 0 0 0 0 0 0 0 0 0 0 0 0 0 0 0 0 0
0 0 0 0 0 0 0 0 0 0 0 0 1 2 13 41 71 79 68 54 43 34 28 26 24 21 14 6 1 0 0 0 0 0 0 0 0 0 0 0 0 0 0 0 0 0 0 0 0
0 0 0 0 0 0 0 0 0 0 0 0 1 3 12 35 58 58 43 27 18 11 9 9 8 5 3 1 0 0 0 0 0 0 0 0 0 0 0 0 0 0 0 0 0 0 0 0 0
0 0 0 0 0 0 0 0 0 0 0 0 0 7 23 42 48 36 18 8 4 2 2 2 1 0 0 0 0 0 0 0 0 0 0 0 0 0 0 0 0 0 0 0 0 0 0 0 0
0 0 0 0 0 0 0 0 0 0 0 0 3 19 44 53 39 19 5 0 0 0 0 0 0 0 0 0 0 0 0 0 0 0 0 0 0 0 0 0 0 0 0 0 0 0 0 0 0
0 0 0 0 0 0 0 0 0 0 0 0 8 36 64 59 31 9 1 0 0 0 0 0 0 0 0 0 0 0 0 0 0 0 0 0 0 0 0 0 0 0 0 0 0 0 0 0 0
0 0 0 0 0 0 0 0 0 0 0 0 14 48 73 57 24 4 0 0 0 0 0 0 0 0 0 0 0 0 0 0 0 0 0 0 0 0 0 0 0 0 0 0 0 0 0 0 0
0 0 0 0 0 0 0 0 0 0 0 0 16 51 70 47 16 2 0 0 0 0 0 0 0 0 0 0 0 0 0 0 0 0 0 0 0 0 0 0 0 0 0 0 0 0 0 0 0
0 0 0 0 0 0 0 0 0 0 0 0 16 50 65 39 10 1 0 0 0 0 0 0 0 0 0 0 0 0 0 0 0 0 0 0 0 0 0 0 0 0 0 0 0 0 0 0 0

GEFSSGP_con_prob3kmehi_024.txt.gz
EHI
0 0 0 0 0 0 0 0 0 0 0 0 0 0 1 6 13 13 12 35 58 38 13 18 21 12 2 0 0 0 0 0 0 0 0 0 0 0 1 2 3 3 2 1 0 0 0 0 0
0 0 0 0 0 0 0 0 0 0 0 0 0 0 0 2 7 10 15 37 50 32 11 11 11 6 1 0 0 0 0 0 0 0 0 0 0 1 1 2 2 2 2 1 0 0 0 0 0
0 0 0 0 0 0 0 0 0 0 0 0 0 0 0 1 9 18 21 30 40 33 19 9 2 1 0 0 0 0 0 0 0 0 0 0 1 3 3 1 1 1 1 0 0 0 0 0 0
0 0 0 0 0 0 0 0 0 0 0 0 0 0 1 8 25 32 20 18 31 40 31 12 1 0 0 0 0 0 0 0 0 0 0 1 3 5 4 1 1 2 2 1 0 0 0 0 0
0 0 0 0 0 0 0 0 0 0 0 0 0 0 4 18 35 30 12 8 25 43 34 11 1 1 1 0 0 0 0 0 0 0 0 1 2 4 3 1 1 2 2 1 0 0 0 0 0
0 0 0 0 0 0 0 0 0 0 0 0 0 0 6 20 28 16 4 5 25 44 31 8 2 3 3 3 4 4 2 0 0 0 0 0 1 1 1 1 2 2 1 0 0 0 0 0 0
0 0 0 0 0 0 0 0 0 0 0 0 0 0 7 19 18 8 2 6 29 44 28 6 2 5 7 9 11 10 5 1 0 0 0 0 0 0 0 1 1 1 0 0 0 0 0 0 0
0 0 0 0 0 0 0 0 0 0 0 0 0 2 12 21 15 6 4 10 31 46 31 9 3 5 8 11 13 11 6 2 0 0 0 0 0 0 0 0 0 0 0 0 0 0 0 0 0
0 0 0 0 0 0 0 0 0 0 0 1 3 8 18 18 10 6 10 19 39 56 47 26 16 13 12 12 11 8 4 1 0 0 0 0 0 0 0 0 0 0 0 0 0 0 0 0 0
0 0 0 0 0 0 0 0 0 0 0 2 7 16 19 11 4 6 16 32 56 66 54 42 36 27 25 23 11 3 1 0 0 0 0 0 0 0 0 0 0 0 0 0 0 0 0 0 0
0 0 0 0 0 0 0 0 0 0 0 2 9 19 21 12 3 5 16 40 66 65 46 42 42 36 38 33 13 2 1 0 0 1 0 0 0 0 0 0 1 1 0 0 0 0 0 0 0
0 0 0 0 0 0 0 0 0 0 0 1 7 18 23 16 6 3 11 39 68 63 40 38 44 45 51 42 18 6 7 7 7 6 2 1 1 2 3 5 4 2 0 0 1 1 1 0 0
0 0 0 0 0 0 0 0 0 0 0 0 4 13 20 17 8 3 10 39 72 70 48 46 57 66 71 58 30 19 26 26 23 17 9 5 8 16 20 18 11 5 4 5 5 5 3 1 1
0 0 0 0 0 0 0 0 0 0 0 0 2 7 14 15 12 9 18 47 79 84 70 66 76 85 87 71 43 36 46 49 45 43 34 23 26 38 41 35 28 21 16 13 10 9 8 5 3
0 0 0 0 0 0 0 0 0 0 0 0 1 3 7 11 14 16 30 61 88 93 89 86 89 92 90 73 50 42 53 63 71 76 69 53 46 48 49 50 49 41 28 20 16 14 13 10 6
0 0 0 0 0 0 0 0 0 0 0 0 0 1 3 7 12 20 43 75 94 96 96 94 93 94 92 80 62 56 65 79 89 94 87 70 50 40 46 56 53 41 28 22 19 16 13 9 5
0 0 0 0 0 0 0 0 0 0 0 0 0 0 1 5 10 25 55 85 96 96 96 95 95 95 94 89 82 81 87 91 94 92 85 66 41 29 38 46 38 26 21 19 15 11 7 3 1
0 0 0 0 0 0 0 0 0 0 0 0 0 0 0 4 13 34 67 89 95 95 95 96 96 97 96 95 95 95 94 91 87 81 71 52 30 19 23 26 19 13 12 11 7 3 2 0 0
0 0 0 0 0 0 0 0 0 0 0 0 0 0 0 4 18 48 79 93 93 93 94 95 96 97 97 97 96 93 88 81 70 57 45 31 17 9 9 9 6 4 4 3 2 0 0 0 0
0 0 0 0 0 0 0 0 0 0 0 0 0 0 1 6 26 59 86 95 92 92 94 96 96 97 97 96 92 84 73 59 42 28 19 11 5 2 2 2 1 0 0 0 0 0 0 0 0
0 0 0 0 0 0 0 0 0 0 0 0 0 0 1 8 30 61 86 95 95 96 97 97 96 95 94 91 81 66 48 30 16 9 5 3 1 0 0 0 0 0 0 0 0 0 0 0 0
0 0 0 0 0 0 0 0 0 0 0 0 0 0 1 9 30 59 83 95 98 99 98 96 94 91 88 82 70 52 32 15 6 3 1 1 0 0 0 0 0 0 0 0 0 0 0 0 0
0 0 0 0 0 0 0 0 0 0 0 0 0 0 3 13 35 64 86 96 97 96 92 87 82 78 75 70 61 45 27 13 5 2 1 0 0 0 0 0 0 0 0 0 0 0 0 0 0
0 0 0 0 0 0 0 0 0 0 0 0 1 4 11 27 51 76 90 92 88 82 75 67 59 54 50 46 40 29 17 8 4 1 0 0 0 0 0 0 0 0 0 0 0 0 0 0 0
0 0 0 0 0 0 0 0 0 0 0 0 2 9 23 43 66 82 85 78 67 56 49 41 33 26 22 19 14 9 5 2 1 0 0 0 0 0 0 0 0 0 0 0 0 0 0 0 0
0 0 0 0 0 0 0 0 0 0 0 0 2 12 30 55 73 78 72 58 43 32 26 21 15 10 7 5 2 0 0 0 0 0 0 0 0 0 0 0 0 0 0 0 0 0 0 0 0
0 0 0 0 0 0 0 0 0 0 0 0 2 12 35 62 75 71 58 41 25 17 12 9 5 3 2 1 0 0 0 0 0 0 0 0 0 0 0 0 0 0 0 0 0 0 0 0 0
0 0 0 0 0 0 0 0 0 0 0 0 2 16 44 71 75 61 42 26 14 8 5 3 1 1 1 0 0 0 0 0 0 0 0 0 0 0 0 0 0 0 0 0 0 0 0 0 0
0 0 0 0 0 0 0 0 0 0 0 0 5 26 59 78 70 47 26 13 6 3 1 1 0 0 0 0 0 0 0 0 0 0 0 0 0 0 0 0 0 0 0 0 0 0 0 0 0
0 0 0 0 0 0 0 0 0 0 0 1 9 37 69 80 64 37 17 7 3 1 0 0 0 0 0 0 0 0 0 0 0 0 0 0 0 0 0 0 0 0 0 0 0 0 0 0 0

GEFSSGP_con_prob3kmehi_030.txt.gz
EHI
0 0 0 0 0 0 0 0 0 0 0 1 6 11 11 8 5 5 2 1 6 12 27 58 82 84 71 54 34 18 10 7 4 1 0 0 0 0 0 0 0 0 0 0 0 0 0 0 0
0 0 0 0 0 0 0 0 0 0 0 1 5 8 8 7 8 8 3 2 7 13 27 54 77 78 63 44 26 14 7 3 1 0 0 0 0 0 0 0 0 0 0 0 0 0 0 0 0
0 0 0 0 0 0 0 0 0 0 0 1 2 3 3 7 13 10 3 2 6 12 23 48 68 66 50 31 17 9 4 1 0 0 0 0 0 0 0 0 0 0 0 0 0 0 0 0 0
0 0 0 0 0 0 0 0 0 0 0 1 2 2 3 16 28 22 6 1 4 8 16 34 50 49 36 24 15 9 3 0 0 0 0 0 0 0 0 0 0 0 0 0 0 0 0 0 0
0 0 0 0 0 0 0 0 0 0 1 7 12 8 9 34 56 42 12 1 3 5 7 17 28 31 28 24 19 13 6 2 1 0 0 0 0 0 0 0 0 0 0 0 0 0 0 0 0
0 0 0 0 0 0 0 0 0 0 2 11 18 12 16 48 72 53 18 3 2 3 4 6 13 20 25 26 23 17 10 5 1 0 0 0 0 0 0 0 0 0 0 0 0 0 0 0 0
0 0 0 0 0 0 0 0 0 0 1 7 14 13 16 42 64 57 32 12 4 3 4 4 6 12 21 26 25 20 12 5 1 0 0 0 0 0 0 0 0 0 0 0 0 0 0 0 0
0 0 0 0 0 0 0 0 0 0 0 2 7 8 9 24 50 66 58 33 12 4 4 5 5 10 18 23 24 20 12 4 1 0 0 0 0 0 0 0 0 0 0 0 0 0 0 0 0
0 0 0 0 0 0 0 0 0 0 1 4 8 9 7 17 46 77 84 64 33 14 7 7 8 12 16 18 16 13 7 2 1 0 0 0 0 0 0 0 0 0 0 0 0 0 0 0 0
0 0 0 0 0 0 0 0 0 1 5 13 22 24 20 24 49 80 94 86 63 36 18 11 10 13 15 11 7 5 2 1 0 0 0 0 0 0 0 0 0 0 0 0 0 0 0 0 0
0 0 0 0 0 0 0 0 0 2 7 23 42 47 38 35 50 73 91 95 84 61 37 21 14 13 11 7 3 1 0 0 0 0 0 0 0 0 0 0 0 0 0 0 0 0 0 0 0
0 0 0 0 0 0 0 0 0 1 9 28 50 55 46 43 51 67 85 95 93 81 62 43 27 16 10 6 3 1 0 0 0 0 0 0 0 0 0 0 0 0 0 0 0 0 0 0 0
0 0 0 0 0 0 0 0 0 1 11 31 47 48 41 41 48 63 82 94 96 92 82 71 53 32 16 8 3 0 0 0 0 0 0 0 0 0 0 0 0 0 0 0 0 0 0 0 0
0 0 0 0 0 0 0 0 0 2 12 30 40 37 32 33 41 57 79 94 97 93 90 87 76 56 33 15 4 1 0 0 0 0 0 0 0 0 0 0 0 0 0 0 0 0 0 0 0
0 0 0 0 0 0 0 0 0 2 11 25 32 30 25 25 32 50 74 92 96 92 91 91 85 74 53 28 11 8 6 3 1 0 0 0 0 0 0 0 0 0 0 0 0 0 0 0 0
0 0 0 0 0 0 0 0 0 2 8 17 24 24 20 18 24 43 67 86 91 91 92 93 89 82 67 43 26 24 22 13 5 2 1 1 0 0 0 0 0 0 0 0 0 0 0 0 0
0 0 0 0 0 0 0 0 0 1 3 9 14 17 15 13 18 37 63 81 87 89 92 95 93 89 78 60 49 46 42 30 15 4 2 1 0 0 0 0 0 0 0 0 0 0 0 0 0
0 0 0 0 0 0 0 0 0 0 1 3 6 10 11 11 15 33 60 78 85 88 90 93 95 95 88 78 72 66 58 44 23 6 1 1 0 0 0 0 0 0 0 0 0 0 0 0 0
0 0 0 0 0 0 0 0 0 0 0 0 2 5 8 9 15 34 61 78 85 89 90 90 91 93 93 89 83 74 59 41 20 5 0 0 0 0 0 0 0 0 0 0 0 0 0 0 0
0 0 0 0 0 0 0 0 0 0 0 0 1 2 5 9 18 39 64 79 86 89 89 88 87 88 91 89 78 61 39 21 8 2 0 0 0 0 0 0 0 0 0 0 0 0 0 0 0
0 0 0 0 0 0 0 0 0 0 0 0 0 2 5 11 25 47 69 80 85 86 87 86 83 82 83 79 62 37 16 4 1 0 0 0 0 0 0 0 0 0 0 0 0 0 0 0 0
0 0 0 0 0 0 0 0 0 0 0 0 1 3 7 15 32 55 74 82 82 81 80 79 75 70 67 59 40 18 5 0 0 0 0 0 0 0 0 0 0 0 0 0 0 0 0 0 0
0 0 0 0 0 0 0 0 0 0 0 0 2 6 12 23 42 65 80 84 81 77 73 68 61 51 43 33 19 7 2 0 0 0 0 0 0 0 0 0 0 0 0 0 0 0 0 0 0
0 0 0 0 0 0 0 0 0 0 1 2 6 15 27 43 62 78 87 88 83 74 63 52 42 30 21 13 5 1 0 0 0 0 0 0 0 0 0 0 0 0 0 0 0 0 0 0 0
0 0 0 0 0 0 0 0 0 2 6 13 24 38 55 70 80 86 88 84 74 60 44 31 22 13 7 3 1 0 0 0 0 0 0 0 0 0 0 0 0 0 0 0 0 0 0 0 0
0 0 0 0 0 0 0 0 1 7 21 37 52 65 75 80 79 76 71 62 49 34 22 13 7 3 1 0 0 0 0 0 0 0 0 0 0 0 0 0 0 0 0 0 0 0 0 0 0
0 0 0 0 0 0 0 0 2 11 30 51 65 71 70 65 56 47 39 31 22 14 8 4 1 0 0 0 0 0 0 0 0 0 0 0 0 0 0 0 0 0 0 0 0 0 0 0 0
0 0 0 0 0 0 0 0 1 8 24 40 49 50 43 34 26 19 12 9 6 4 2 1 0 0 0 0 0 0 0 0 0 0 0 0 0 0 0 0 0 0 0 0 0 0 0 0 0
0 0 0 0 0 0 0 0 1 5 12 20 24 22 15 9 6 4 2 1 1 0 0 0 0 0 0 0 0 0 0 0 0 0 0 0 0 0 0 0 0 0 0 0 0 0 0 0 0
0 0 0 0 0 0 0 1 3 6 7 8 10 7 3 1 0 0 0 0 0 0 0 0 0 0 0 0 0 0 0 0 0 0 0 0 0 0 0 0 0 0 0 0 0 0 0 0 0

GEFSSGP_con_prob3kmehi_036.txt.gz
EHI
0 0 0 0 0 0 0 0 0 0 0 0 0 0 0 1 0 0 0 0 3 9 22 45 67 81 88 88 82 73 63 57 57 58 57 58 58 52 41 25 11 4 2 1 0 0 0 0 0
0 0 0 0 0 0 0 0 0 0 0 0 0 0 1 1 1 0 0 0 5 13 22 42 67 83 89 89 84 72 56 45 38 34 32 30 30 26 19 11 5 2 1 0 0 0 0 0 0
0 0 0 0 0 0 0 0 0 0 0 0 1 1 1 1 1 1 0 2 8 14 18 37 66 83 88 89 85 71 51 34 21 11 7 6 5 5 3 1 0 0 0 0 0 0 0 0 0
0 0 0 0 0 0 0 0 0 0 0 1 2 2 1 1 1 1 2 5 11 13 16 34 60 76 83 87 83 70 50 32 17 5 0 0 0 0 0 0 0 0 0 0 0 0 0 0 0
0 0 0 0 0 0 0 0 0 0 0 1 2 2 1 1 1 2 4 7 14 17 19 30 51 67 76 81 79 67 48 31 18 8 3 1 0 0 0 0 0 0 0 0 0 0 0 0 0
0 0 0 0 0 0 0 0 0 0 0 2 3 3 3 2 1 2 3 6 14 21 22 24 36 51 64 72 72 61 44 29 20 13 7 3 1 0 0 0 0 0 0 0 0 0 0 0 0
0 0 0 0 0 0 0 0 0 0 0 3 7 7 4 2 1 1 2 5 11 18 19 17 18 27 43 56 59 53 42 33 24 17 10 4 1 0 0 0 0 0 0 0 0 0 0 0 0
0 0 0 0 0 0 0 0 0 0 0 3 8 8 6 5 4 2 2 4 8 10 12 11 8 12 22 33 41 45 43 37 28 17 7 3 1 0 0 0 0 0 0 0 0 0 0 0 0
0 0 0 0 0 0 0 0 0 0 0 1 3 7 15 22 19 13 8 6 7 6 5 6 7 9 12 18 26 33 34 29 21 11 4 1 0 0 0 0 0 0 0 0 0 0 0 0 0
0 0 0 0 0 0 0 0 0 0 0 0 5 20 41 50 43 29 15 7 6 4 2 3 6 9 14 17 19 19 17 14 9 4 1 0 0 0 0 0 0 0 0 0 0 0 0 0 0
0 0 0 0 0 0 0 0 0 0 0 1 15 47 72 73 63 47 25 9 3 2 1 3 4 10 18 21 20 14 8 5 2 1 0 0 0 0 0 0 0 0 0 0 0 0 0 0 0
0 0 0 0 0 0 0 0 0 0 0 2 24 64 88 85 74 60 38 15 4 1 1 2 5 11 21 26 26 20 11 5 1 0 0 0 0 0 0 0 0 0 0 0 0 0 0 0 0
0 0 0 0 0 0 0 0 0 0 0 5 30 70 92 91 82 69 52 33 16 5 1 2 5 12 21 28 30 24 14 5 1 0 0 0 0 0 0 0 0 0 0 0 0 0 0 0 0
0 0 0 0 0 0 0 0 0 0 1 8 32 69 90 92 86 78 69 58 40 18 5 2 5 11 21 28 29 21 10 3 1 0 0 0 0 0 0 0 0 0 0 0 0 0 0 0 0
0 0 0 0 0 0 0 0 0 0 1 7 26 57 80 87 86 85 81 76 62 38 15 7 8 13 20 24 21 13 5 1 0 0 0 0 0 0 0 0 0 0 0 0 0 0 0 0 0
0 0 0 0 0 0 0 0 0 0 1 4 15 39 62 70 72 76 79 80 76 59 37 25 23 24 26 23 14 7 2 0 0 0 0 0 0 0 0 0 0 0 0 0 0 0 0 0 0
0 0 0 0 0 0 0 0 0 0 0 1 6 21 39 48 51 57 66 76 84 79 66 57 53 50 47 36 19 8 3 0 0 0 0 0 0 0 0 0 0 0 0 0 0 0 0 0 0
0 0 0 0 0 0 0 0 0 0 0 0 2 7 17 27 34 40 48 62 80 89 87 84 81 78 73 59 36 16 6 1 0 0 0 0 0 0 0 0 0 0 0 0 0 0 0 0 0
0 0 0 0 0 0 0 0 0 0 0 0 0 1 5 12 19 25 31 45 67 86 92 93 93 91 86 71 45 22 8 2 0 0 0 0 0 0 0 0 0 0 0 0 0 0 0 0 0
0 0 0 0 0 0 0 0 0 0 0 0 0 0 0 3 6 10 18 32 53 74 86 89 87 84 76 59 32 13 5 1 0 0 0 0 0 0 0 0 0 0 0 0 0 0 0 0 0
0 0 0 0 0 0 0 0 0 0 0 0 0 0 0 0 1 4 10 21 38 57 70 74 72 66 54 33 13 3 1 0 0 0 0 0 0 0 0 0 0 0 0 0 0 0 0 0 0
0 0 0 0 0 0 0 0 0 0 0 1 1 0 0 0 1 5 10 18 29 41 50 53 52 45 31 15 4 0 0 0 0 0 0 0 0 0 0 0 0 0 0 0 0 0 0 0 0
0 0 0 0 0 0 0 0 0 1 1 2 2 2 3 5 8 14 19 23 28 33 35 36 35 29 17 7 1 0 0 0 0 0 0 0 0 0 0 0 0 0 0 0 0 0 0 0 0
0 0 0 0 0 0 0 0 0 1 3 3 4 6 10 13 18 25 27 26 26 27 26 24 22 17 8 2 0 0 0 0 0 0 0 0 0 0 0 0 0 0 0 0 0 0 0 0 0
0 0 0 0 0 0 0 0 2 4 6 6 5 9 13 15 18 22 22 18 16 16 15 13 10 7 3 0 0 0 0 0 0 0 0 0 0 0 0 0 0 0 0 0 0 0 0 0 0
0 0 0 0 0 0 0 0 3 9 12 11 8 9 9 8 8 9 9 7 6 6 6 4 3 2 1 0 0 0 0 0 0 0 0 0 0 0 0 0 0 0 0 0 0 0 0 0 0
0 0 0 0 0 0 0 0 3 10 16 15 10 6 3 2 2 2 1 1 1 1 1 1 1 1 0 0 0 0 0 0 0 0 0 0 0 0 0 0 0 0 0 0 0 0 0 0 0
0 0 0 0 0 0 0 0 2 7 13 14 9 4 1 0 0 0 0 0 0 0 0 0 0 0 0 0 0 0 0 0 0 0 0 0 0 0 0 0 0 0 0 0 0 0 0 0 0
0 0 0 0 0 0 0 0 2 7 12 11 7 2 0 0 0 0 0 0 0 0 0 0 0 0 0 0 0 0 0 0 0 0 0 0 0 0 0 0 0 0 0 0 0 0 0 0 0
0 0 0 0 0 0 0 0 3 9 12 10 6 2 0 0 0 0 0 0 0 0 0 0 0 0 0 0 0 0 0 0 0 0 0 0 0 0 0 0 0 0 0 0 0 0 0 0 0

GEFSSGP_con_prob3kmehi_042.txt.gz
EHI
0 0 0 0 0 0 0 0 0 0 0 0 0 0 0 0 1 2 3 3 10 30 38 24 11 10 11 20 43 69 85 92 95 96 95 92 89 88 83 76 66 50 28 10 3 1 0 0 0
0 0 0 0 0 0 0 0 0 0 0 0 0 0 0 0 2 4 4 4 12 30 39 31 24 18 12 18 36 60 77 87 93 94 92 90 87 83 74 61 48 35 18 6 1 0 0 0 0
0 0 0 0 0 0 0 0 0 0 0 0 0 0 0 1 3 5 5 6 14 25 35 43 42 30 17 15 27 47 66 78 86 88 88 85 79 71 57 38 25 16 6 1 0 0 0 0 0
0 0 0 0 0 0 0 0 0 0 0 0 0 0 1 2 5 7 7 7 12 15 25 47 56 42 25 17 22 37 54 67 74 78 80 77 69 57 41 23 11 6 2 0 0 0 0 0 0
0 0 0 0 0 0 0 0 0 0 0 0 0 0 2 6 9 11 10 7 7 6 15 40 59 53 36 25 24 31 43 52 58 64 67 65 56 44 30 16 7 3 0 0 1 1 1 0 0
0 0 0 0 0 0 0 0 0 0 0 0 0 0 4 14 20 17 11 6 3 2 8 28 48 50 42 34 30 31 34 38 41 44 48 47 40 30 20 14 7 2 0 1 2 2 1 0 0
0 0 0 0 0 0 0 0 0 0 0 0 0 0 7 26 36 26 12 5 1 0 4 15 26 33 33 32 32 31 30 29 26 25 27 27 22 17 13 11 8 3 1 1 1 2 1 0 0
0 0 0 0 0 0 0 0 0 0 0 0 0 0 12 38 53 40 20 8 2 0 1 5 10 16 18 18 22 25 24 21 17 14 12 11 9 7 7 8 7 3 0 0 0 0 0 0 0
0 0 0 0 0 0 0 0 0 0 0 0 0 0 16 48 67 57 38 22 13 7 3 3 5 8 9 7 10 14 14 12 10 8 7 5 2 2 5 9 8 3 0 0 0 0 0 0 0
0 0 0 0 0 0 0 0 0 0 0 0 0 1 18 51 72 68 53 39 29 17 7 4 4 6 6 3 4 5 5 5 4 4 6 4 1 0 4 10 7 2 0 0 0 0 0 0 0
0 0 0 0 0 0 0 0 0 0 0 0 0 3 19 48 69 67 52 39 30 19 9 4 4 5 3 2 1 1 2 3 4 5 6 4 1 0 3 5 3 1 0 0 0 0 0 0 0
0 0 0 0 0 0 0 0 0 0 0 0 0 4 19 41 57 53 41 29 19 12 7 4 4 4 3 1 0 0 2 5 5 6 6 4 2 1 1 1 1 1 0 0 0 0 0 0 0
0 0 0 0 0 0 0 0 0 0 0 0 0 3 14 29 36 37 35 30 22 16 10 7 8 13 14 10 5 3 4 5 5 5 5 6 5 3 2 2 3 2 1 1 0 0 0 0 0
0 0 0 0 0 0 0 0 0 0 0 0 0 1 6 13 18 29 43 48 42 33 25 20 23 31 36 30 18 10 7 7 7 8 9 9 7 5 4 5 7 8 7 5 2 1 1 0 0
0 0 0 0 0 0 0 0 0 0 0 0 0 0 1 3 8 23 47 63 64 56 48 43 44 52 58 53 40 28 21 19 20 20 19 15 11 9 10 13 16 16 14 10 5 2 1 0 0
0 0 0 0 0 0 0 0 0 0 0 0 0 0 0 0 3 13 33 57 72 75 72 67 65 69 75 75 68 56 47 42 40 37 31 22 16 16 20 23 23 21 16 10 5 2 1 0 0
0 0 0 0 0 0 0 0 0 0 0 0 0 0 0 0 1 5 17 40 67 83 86 85 83 84 88 90 87 79 69 60 53 47 39 27 17 17 22 24 23 19 14 8 3 1 1 0 0
0 0 0 0 0 0 0 0 0 0 0 0 0 0 0 0 0 2 10 29 56 80 92 95 95 95 95 95 93 84 73 62 51 42 34 23 14 14 17 18 16 13 10 6 2 0 0 0 0
0 0 0 0 0 0 0 0 0 0 0 0 1 3 3 4 4 6 13 27 49 73 89 96 98 99 98 96 91 81 66 50 38 28 20 13 9 9 10 9 7 6 4 3 1 0 0 0 0
0 0 0 0 0 0 0 0 0 0 1 5 11 16 19 21 21 21 25 34 48 65 81 90 95 98 97 93 86 72 52 34 22 15 9 4 3 3 3 2 2 1 1 1 0 0 0 0 0
0 0 0 0 0 0 0 0 0 0 5 16 29 39 46 50 50 48 48 51 57 64 74 84 92 94 92 85 73 56 37 22 12 6 2 0 0 0 0 0 0 0 0 0 0 0 0 0 0
0 0 0 0 0 0 0 0 0 1 8 26 45 56 65 71 72 70 67 66 70 70 73 81 86 86 81 71 57 43 29 17 7 2 0 0 0 0 0 0 0 0 0 0 0 0 0 0 0
0 0 0 0 0 0 0 0 0 2 13 32 48 57 62 66 69 69 66 68 70 72 73 74 73 69 62 52 42 33 22 11 4 1 0 0 0 0 0 0 0 0 0 0 0 0 0 0 0
0 0 0 0 0 0 0 0 2 7 17 30 39 43 43 43 44 45 47 49 55 61 63 59 52 44 38 32 25 19 11 5 1 0 0 0 0 0 0 0 0 0 0 0 0 0 0 0 0
0 0 0 0 0 0 0 1 5 13 17 20 22 23 21 18 17 19 22 24 29 36 39 36 28 21 18 15 11 7 4 2 0 0 0 0 0 0 0 0 0 0 0 0 0 0 0 0 0
0 0 0 0 0 0 0 2 9 13 12 9 8 9 8 5 4 4 5 7 9 12 14 13 10 8 6 5 3 2 1 1 0 0 0 0 0 0 0 0 0 0 0 0 0 0 0 0 0
0 0 0 0 0 0 0 2 7 9 8 6 5 4 3 1 1 0 0 1 1 1 1 2 3 3 2 1 1 1 0 0 0 0 0 0 0 0 0 0 0 0 0 0 0 0 0 0 0
0 0 0 0 0 0 0 1 5 11 15 12 6 2 1 0 0 0 0 0 0 0 0 1 1 1 0 0 0 0 0 0 0 0 0 0 0 0 0 0 0 0 0 0 0 0 0 0 0
0 0 0 0 0 0 0 1 9 23 28 19 6 1 0 0 0 0 0 0 0 0 0 0 0 0 0 0 0 0 0 0 0 0 0 0 0 0 0 0 0 0 0 0 0 0 0 0 0
0 0 0 0 0 0 0 3 14 31 36 21 6 0 0 0 0 0 0 0 0 0 0 0 0 0 0 0 0 0 0 0 0 0 0 0 0 0 0 0 0 0 0 0 0 0 0 0 0

GEFSSGP_con_prob3kmehi_048.txt.gz
EHI
0 0 0 0 0 0 0 0 0 0 0 0 0 0 0 0 1 1 8 37 70 65 49 56 59 40 17 5 1 0 0 0 1 3 4 6 10 14 14 12 9 5 1 0 0 0 0 0 0
0 0 0 0 0 0 0 0 0 0 0 0 0 0 0 0 0 2 16 51 72 56 39 46 53 39 18 6 3 1 1 1 2 5 9 12 16 20 18 13 8 4 1 0 0 0 0 0 0
0 0 0 0 0 0 0 0 0 0 0 0 0 0 0 0 2 8 29 61 69 46 29 38 45 35 17 7 4 2 2 2 6 14 21 26 29 29 22 13 7 3 0 0 0 0 0 0 0
0 0 0 0 0 0 0 0 0 0 0 0 0 1 2 3 9 20 37 58 59 37 23 28 35 28 14 7 4 3 2 5 12 25 36 42 42 36 24 13 5 1 0 0 0 0 0 0 0
0 0 0 0 0 0 0 0 0 0 0 0 0 2 5 9 16 23 31 43 43 31 22 22 27 25 13 5 3 2 3 8 17 30 43 50 48 39 24 10 3 0 0 0 0 0 0 0 0
0 0 0 0 0 0 0 0 0 0 0 0 1 5 9 12 14 14 16 22 27 33 30 23 22 21 12 5 2 1 4 10 18 27 37 42 40 31 18 7 2 1 0 0 0 0 0 0 0
0 0 0 0 0 0 0 0 0 0 0 0 1 6 13 15 11 6 5 7 19 37 38 21 12 12 8 4 2 2 5 10 15 20 24 25 23 17 11 6 4 2 1 0 0 0 0 0 0
0 0 0 0 0 0 0 0 0 0 0 0 1 7 15 18 11 4 2 2 15 40 45 22 5 4 3 2 2 5 8 9 11 12 13 11 8 6 6 7 8 5 2 0 0 0 0 0 0
0 0 0 0 0 0 0 0 0 0 0 0 1 7 15 16 10 4 1 0 13 42 53 30 9 3 1 1 4 6 7 7 6 6 5 3 2 2 6 18 24 14 4 1 0 0 0 0 0
0 0 0 0 0 0 0 0 0 0 0 0 3 9 12 11 8 3 1 1 14 44 58 41 21 10 3 6 10 6 4 5 3 3 4 2 1 5 17 38 43 26 7 1 0 0 0 0 0
0 0 0 0 0 0 0 0 0 0 0 0 5 13 15 10 5 2 2 2 15 40 52 47 38 21 11 18 22 9 5 8 5 4 8 5 4 14 34 48 45 27 10 3 1 0 0 0 0
0 0 0 0 0 0 0 0 0 0 0 0 5 14 18 11 4 1 3 7 21 37 42 47 53 40 31 41 37 17 13 18 15 15 20 16 15 27 46 53 43 28 16 10 6 4 2 1 0
0 0 0 0 0 0 0 0 0 0 0 0 3 11 13 8 2 1 5 15 35 46 43 48 65 66 62 67 58 37 34 39 41 43 43 39 39 50 65 69 59 44 37 30 20 15 11 6 2
0 0 0 0 0 0 0 0 0 0 0 0 1 4 5 3 2 3 11 28 52 66 61 62 78 87 87 84 77 66 64 70 73 73 70 64 67 78 87 89 81 70 64 55 40 30 23 14 8
0 0 0 0 0 0 0 0 0 0 0 0 0 0 1 1 3 7 21 45 71 82 82 82 89 96 97 93 89 84 84 88 90 89 84 79 82 92 98 98 93 87 81 69 52 38 27 17 12
0 0 0 0 0 0 0 0 0 0 0 0 0 0 0 0 2 9 31 62 84 91 95 95 95 98 99 98 95 93 92 94 93 91 87 82 84 92 96 93 90 87 79 63 46 34 23 15 9
0 0 0 0 0 0 0 0 0 0 0 0 0 1 1 3 7 16 41 73 91 96 99 98 98 99 100 100 99 98 98 97 94 90 86 81 79 82 83 79 76 73 63 48 32 23 16 9 4
0 0 0 0 0 0 0 0 0 0 0 2 3 5 7 12 19 31 52 78 94 99 100 100 100 100 100 100 100 100 99 96 90 85 79 74 67 63 61 60 59 54 45 32 21 13 8 4 1
0 0 0 0 0 0 0 0 0 0 2 5 8 12 17 26 37 49 62 79 93 98 100 100 100 100 100 100 100 98 96 92 84 75 67 59 51 44 41 41 42 39 31 21 12 7 3 1 0
0 0 0 0 0 0 0 0 0 2 5 10 14 22 33 46 59 67 72 81 91 97 100 100 100 100 100 99 98 95 89 83 74 65 55 44 35 30 26 25 25 22 17 11 5 2 1 0 0
0 0 0 0 0 0 0 0 1 4 9 16 25 40 56 68 76 80 82 86 91 96 98 99 99 98 97 96 93 89 81 71 61 52 42 30 20 16 15 12 10 8 6 4 2 0 0 0 0
0 0 0 0 0 0 0 0 1 7 15 27 44 61 72 75 76 78 80 83 86 90 93 94 94 93 92 90 87 81 71 59 48 36 25 16 8 5 5 5 3 2 2 1 0 0 0 0 0
0 0 0 0 0 0 0 0 2 10 26 46 63 72 71 66 61 60 62 66 71 76 80 82 81 80 79 77 73 66 54 42 32 20 11 5 2 1 1 2 1 1 1 0 0 0 0 0 0
0 0 0 0 0 0 0 1 7 22 45 65 71 67 58 48 39 35 36 39 45 51 54 56 55 54 54 51 47 40 30 22 14 8 3 1 1 0 0 0 0 0 0 0 0 0 0 0 0
0 0 0 0 0 0 0 4 21 47 66 71 66 52 39 28 19 15 14 14 18 21 23 24 25 25 25 23 20 16 12 8 4 2 1 0 0 0 0 0 0 0 0 0 0 0 0 0 0
0 0 0 0 0 0 4 17 44 68 74 65 51 35 21 10 5 3 3 2 2 3 4 4 6 6 7 7 5 4 4 3 1 0 0 0 0 0 0 0 0 0 0 0 0 0 0 0 0
0 0 0 0 0 0 6 29 59 74 69 54 36 20 8 2 0 0 0 0 0 0 0 0 1 1 1 1 1 1 1 1 0 0 0 0 0 0 0 0 0 0 0 0 0 0 0 0 0
0 0 0 0 0 0 4 22 50 67 63 44 24 11 3 0 0 0 0 0 0 0 0 0 0 0 0 0 0 0 0 0 0 0 0 0 0 0 0 0 0 0 0 0 0 0 0 0 0
0 0 0 0 0 0 1 10 34 57 57 36 16 5 1 0 0 0 0 0 0 0 0 0 0 0 0 0 0 0 0 0 0 0 0 0 0 0 0 0 0 0 0 0 0 0 0 0 0
0 0 0 0 0 0 1 8 30 53 53 32 12 3 1 0 0 0 0 0 0 0 0 0 0 0 0 0 0 0 0 0 0 0 0 0 0 0 0 0 0 0 0 0 0 0 0 0 0

GEFSSGP_con_prob3kmehi_054.txt.gz
EHI
0 0 0 0 0 0 0 0 0 0 0 0 0 1 1 1 1 1 0 7 26 41 41 54 76 83 78 69 55 40 28 24 25 27 29 30 29 27 21 11 5 3 2 1 0 0 0 0 0
0 0 0 0 0 0 0 0 0 0 0 0 0 1 2 2 2 2 2 13 35 43 40 52 74 81 75 65 51 35 21 15 15 16 17 17 18 16 12 6 2 1 1 0 0 0 0 0 0
0 0 0 0 0 0 0 0 0 0 0 0 1 2 2 2 3 3 6 22 40 42 39 54 72 78 73 60 43 27 13 7 6 6 5 5 5 5 3 1 0 0 0 0 0 0 0 0 0
0 0 0 0 0 0 0 0 0 0 0 2 4 4 2 5 10 11 13 27 39 39 40 54 70 75 69 54 34 19 9 4 3 3 2 1 1 1 0 0 0 0 0 0 0 0 0 0 0
0 0 0 0 0 0 0 0 0 0 1 5 10 9 5 14 27 25 16 22 36 41 41 50 63 69 64 47 27 14 7 3 1 1 1 0 0 0 0 0 0 0 0 0 0 0 0 0 0
0 0 0 0 0 0 0 0 0 0 2 7 12 11 8 22 35 27 14 15 29 42 42 41 46 52 51 39 25 14 7 3 2 2 1 1 1 1 0 0 0 0 0 0 0 0 0 0 0
0 0 0 0 0 0 0 0 0 0 2 6 10 9 9 20 28 22 11 10 20 33 34 28 25 27 30 27 21 16 11 7 5 4 3 3 5 4 3 3 1 0 0 0 0 0 0 0 0
0 0 0 0 0 0 0 0 0 1 2 5 6 6 10 21 29 24 15 10 11 17 19 16 12 9 10 12 13 13 11 9 6 5 5 6 6 5 5 4 1 0 0 0 0 0 0 0 0
0 0 0 0 0 0 0 0 0 1 3 5 6 8 16 31 40 37 27 16 8 6 7 9 10 6 3 3 5 6 6 6 4 3 5 5 3 3 3 2 1 1 1 0 0 0 0 0 0
0 0 0 0 0 0 0 0 0 1 4 8 11 15 24 35 43 46 40 27 13 5 2 5 9 9 6 4 3 2 1 1 1 1 2 2 1 0 0 0 1 2 2 1 0 0 0 0 0
0 0 0 0 0 0 0 0 0 0 3 8 13 19 25 30 33 39 43 37 23 9 3 3 6 8 7 5 5 2 1 0 0 0 0 0 0 0 0 0 1 1 1 0 0 0 0 0 0
0 0 0 0 0 0 0 0 0 0 2 6 13 19 22 21 20 25 36 43 36 20 8 4 3 4 5 5 5 3 1 0 0 0 0 0 0 0 0 0 1 0 0 0 0 0 0 0 0
0 0 0 0 0 0 0 0 0 1 3 7 13 17 16 14 12 15 26 42 49 38 20 8 5 4 5 5 4 2 1 0 0 0 0 0 0 0 0 0 0 0 0 0 0 0 0 0 0
0 0 0 0 0 0 0 0 0 1 3 7 11 12 10 9 10 12 20 38 53 52 36 21 12 8 9 10 5 1 0 0 0 0 0 0 0 0 1 1 1 0 0 0 0 0 0 0 0
0 0 0 0 0 0 0 0 0 1 2 4 7 8 9 9 11 13 20 32 47 54 50 38 26 19 21 20 12 4 3 2 1 0 0 1 1 2 4 5 4 1 0 0 0 0 0 0 0
0 0 0 0 0 0 0 0 0 0 0 2 5 8 11 12 14 18 21 28 37 48 55 54 46 43 46 42 30 20 17 13 10 7 7 8 9 10 9 8 5 1 0 0 0 0 0 0 0
0 0 0 0 0 0 0 0 0 0 1 3 7 12 16 17 18 21 24 26 32 41 53 64 68 71 75 71 58 47 40 33 27 23 21 21 22 19 14 8 3 1 0 0 0 0 0 0 0
0 0 0 0 0 0 0 0 0 2 4 7 13 21 26 27 25 27 29 29 32 40 51 66 79 87 92 89 80 69 59 48 40 35 32 30 27 21 15 9 3 0 0 0 0 0 0 0 0
0 0 0 0 0 0 0 1 3 7 11 15 24 34 42 43 42 42 41 39 40 46 53 65 80 91 94 93 86 76 64 52 41 35 31 28 23 16 12 8 3 1 0 0 0 0 0 0 0
0 0 0 0 0 0 1 4 9 14 19 26 36 48 55 57 57 57 56 53 54 56 59 67 80 87 89 88 83 73 59 45 34 26 22 20 16 11 8 5 2 1 0 0 0 0 0 0 0
0 0 0 0 0 0 2 6 11 17 26 36 45 52 55 57 58 59 61 62 63 64 66 71 78 82 83 82 77 66 53 39 27 18 13 11 10 7 4 1 1 0 0 0 0 0 0 0 0
0 0 0 0 0 0 1 3 8 15 26 37 44 45 44 44 48 52 55 58 60 62 66 70 75 76 77 75 68 58 46 32 20 13 8 6 5 3 1 0 0 0 0 0 0 0 0 0 0
0 0 0 0 0 0 0 1 4 11 19 28 34 34 29 27 32 38 41 43 45 48 51 57 63 64 61 57 51 43 33 23 14 8 4 2 1 0 0 0 0 0 0 0 0 0 0 0 0
0 0 0 0 0 0 0 0 2 5 10 17 23 22 17 14 16 20 22 22 23 24 27 33 39 39 34 31 27 23 18 13 8 5 2 1 0 0 0 0 0 0 0 0 0 0 0 0 0
0 0 0 0 0 0 0 0 2 3 6 11 13 12 9 6 5 5 6 6 6 6 8 12 15 15 13 11 10 9 8 7 5 3 1 0 0 0 0 0 0 0 0 0 0 0 0 0 0
0 0 0 0 0 0 0 1 3 3 4 6 6 5 3 2 1 0 0 0 0 0 1 2 3 3 3 4 3 3 3 3 2 1 0 0 0 0 0 0 0 0 0 0 0 0 0 0 0
0 0 0 0 0 0 0 1 2 2 2 2 2 1 1 0 0 0 0 0 0 0 0 0 0 0 1 1 1 1 1 1 1 0 0 0 0 0 0 0 0 0 0 0 0 0 0 0 0
0 0 0 0 0 0 0 0 0 0 0 0 0 0 0 0 0 0 0 0 0 0 0 0 0 0 0 0 0 0 0 0 0 0 0 0 0 0 0 0 0 0 0 0 0 0 0 0 0
0 0 0 0 0 0 0 0 0 0 1 0 0 0 0 0 0 0 0 0 0 0 0 0 0 0 0 0 0 0 0 0 0 0 0 0 0 0 0 0 0 0 0 0 0 0 0 0 0
0 0 0 0 0 0 0 0 0 0 1 0 0 0 0 0 0 0 0 0 0 0 0 0 0 0 0 0 0 0 0 0 0 0 0 0 0 0 0 0 0 0 0 0 0 0 0 0 0

GEFSSGP_con_prob3kmehi_060.txt.gz
EHI
0 0 0 0 0 0 0 0 0 0 0 0 0 0 0 0 0 0 2 15 45 66 55 37 40 57 72 81 88 93 96 96 94 93 93 92 88 79 68 58 47 35 23 14 8 4 1 0 0
0 0 0 0 0 0 0 0 0 0 0 0 0 0 0 0 0 0 5 24 54 68 55 39 44 60 72 80 87 92 94 94 92 91 90 87 81 71 60 50 40 30 19 11 6 3 1 0 0
0 0 0 0 0 0 0 0 0 0 0 0 0 0 0 0 0 1 12 37 62 64 50 44 53 63 71 79 86 88 90 90 88 85 80 74 66 56 46 36 27 18 12 7 3 1 0 0 0
0 0 0 0 0 0 0 0 0 0 0 0 0 0 1 1 1 7 23 47 60 55 45 48 58 63 69 77 81 81 81 81 80 76 68 57 47 38 29 21 14 8 5 3 1 0 0 0 0
0 0 0 0 0 0 0 0 0 0 0 0 0 1 2 3 6 16 32 47 53 49 44 48 55 58 62 69 72 71 71 71 67 61 51 40 30 22 15 10 7 4 2 1 0 0 0 0 0
0 0 0 0 0 0 0 0 0 0 0 0 1 3 4 6 11 22 34 41 45 49 47 44 44 45 49 55 60 61 60 57 51 41 30 22 15 9 5 4 3 2 1 0 0 0 0 0 0
0 0 0 0 0 0 0 0 0 0 0 0 1 3 4 6 11 25 37 40 43 48 46 37 29 28 32 36 41 45 43 39 32 22 13 9 5 3 1 1 1 1 0 0 0 0 0 0 0
0 0 0 0 0 0 0 0 0 0 0 0 0 1 5 11 21 37 50 50 44 38 32 26 19 15 16 19 23 25 25 23 18 10 5 3 1 1 0 0 0 0 0 0 0 0 0 0 0
0 0 0 0 0 0 0 0 0 0 0 0 0 2 13 28 41 54 60 55 41 26 18 15 13 11 11 11 12 13 14 13 9 4 1 1 0 0 0 0 0 0 0 0 0 1 0 0 0
0 0 0 0 0 0 0 0 0 0 0 0 2 10 30 44 47 48 48 41 29 19 11 7 9 12 11 10 10 11 11 8 4 1 0 0 0 0 0 0 0 0 0 0 0 0 0 0 0
0 0 0 0 0 0 0 0 0 0 0 1 6 24 47 51 38 27 21 17 14 12 8 5 6 10 11 11 12 13 11 6 1 0 0 0 0 0 0 0 0 0 0 0 0 0 0 0 0
0 0 0 0 0 0 0 0 0 0 0 2 12 35 55 51 30 13 5 3 3 5 5 6 8 9 11 12 13 12 10 7 3 1 1 0 0 0 0 0 0 0 0 0 0 0 0 0 0
0 0 0 0 0 0 0 0 0 0 0 3 16 39 53 46 26 10 3 1 1 1 3 6 9 10 12 13 13 11 9 7 5 3 2 1 0 0 0 0 0 0 0 0 0 0 0 0 0
0 0 0 0 0 0 0 0 0 0 1 5 17 34 42 35 22 11 5 3 2 0 1 4 8 11 13 14 14 12 9 7 4 3 2 1 0 0 0 0 0 0 0 0 0 0 0 0 0
0 0 0 0 0 0 0 0 0 0 2 5 12 22 26 22 17 11 8 6 4 1 1 2 5 8 10 12 13 11 8 4 2 2 1 1 0 0 0 0 0 0 0 0 0 0 0 0 0
0 0 0 0 0 0 0 0 0 0 1 3 5 9 12 11 10 9 10 10 8 6 5 5 7 7 7 8 9 8 5 2 1 0 0 0 0 0 0 0 0 0 0 0 0 0 0 0 0
0 0 0 0 0 0 0 0 1 1 1 1 1 2 4 5 5 6 9 11 13 13 12 13 13 11 7 6 7 5 3 1 0 0 0 0 0 0 0 0 0 0 0 0 0 0 0 0 0
0 0 0 0 0 0 0 1 2 3 3 3 3 3 5 6 7 8 8 11 16 19 20 21 23 20 15 13 13 9 4 1 0 0 0 0 0 0 0 0 0 0 0 0 0 0 0 0 0
0 0 0 0 0 0 0 1 3 5 5 6 6 8 12 15 16 16 12 13 18 23 24 25 29 30 29 28 27 22 13 5 1 0 0 0 0 1 1 1 0 0 0 0 0 0 0 0 0
0 0 0 0 0 0 0 2 4 6 6 6 9 13 18 22 24 21 17 17 20 22 22 23 29 36 39 39 38 34 21 8 2 0 0 0 0 1 1 1 0 0 0 0 0 0 0 0 0
0 0 0 0 0 0 0 1 4 7 8 8 8 11 16 19 20 18 17 19 21 18 18 20 26 35 41 41 41 37 26 15 7 2 1 0 0 1 1 0 0 0 0 0 0 0 0 0 0
0 0 0 0 0 0 0 1 3 6 8 8 7 6 8 11 12 12 13 15 16 14 14 16 20 27 34 35 37 35 29 20 11 5 2 0 0 0 0 0 0 0 0 0 0 0 0 0 0
0 0 0 0 0 0 0 1 3 5 7 7 6 3 4 6 7 7 7 8 9 9 9 10 13 18 22 24 26 26 22 15 9 5 2 0 0 0 0 0 0 0 0 0 0 0 0 0 0
0 0 0 0 0 0 0 1 3 4 5 5 4 2 2 4 4 4 3 3 2 3 4 5 8 11 12 12 12 11 9 7 5 3 2 0 0 0 0 0 0 0 0 0 0 0 0 0 0
0 0 0 0 0 0 0 0 1 2 3 3 2 1 1 2 2 2 1 1 0 0 1 2 4 5 5 4 3 2 2 3 3 2 1 0 0 0 0 0 0 0 0 0 0 0 0 0 0
0 0 0 0 0 0 0 0 0 0 1 2 1 0 0 1 1 1 0 0 0 0 0 0 1 1 1 0 0 0 0 1 1 1 0 0 0 0 0 0 0 0 0 0 0 0 0 0 0
0 0 0 0 0 0 0 0 0 0 0 1 1 0 0 0 0 0 0 0 0 0 0 0 0 0 0 0 0 0 0 0 0 0 0 0 0 0 0 0 0 0 0 0 0 0 0 0 0
0 0 0 0 0 0 0 0 0 0 0 0 0 0 0 0 0 0 0 0 0 0 0 0 0 0 0 0 0 0 0 0 0 0 0 0 0 0 0 0 0 0 0 0 0 0 0 0 0
0 0 0 0 0 0 0 0 0 0 0 0 0 0 0 0 0 0 0 0 0 0 0 0 0 0 0 0 0 0 0 0 0 0 0 0 0 0 0 0 0 0 0 0 0 0 0 0 0
0 0 0 0 0 0 0 0 0 0 0 0 0 0 0 0 0 0 0 0 0 0 0 0 0 0 0 0 0 0 0 0 0 0 0 0 0 0 0 0 0 0 0 0 0 0 0 0 0

GEFSSGP_con_prob3kmehi_066.txt.gz
EHI
0 0 0 0 0 0 0 0 0 0 0 0 0 0 0 0 0 0 9 34 64 78 65 47 47 53 58 71 86 93 94 92 87 80 71 64 56 46 36 25 14 7 4 4 6 5 3 2 1
0 0 0 0 0 0 0 0 0 0 0 0 0 0 0 0 0 2 16 46 71 77 65 52 54 61 67 78 90 96 96 94 90 85 79 72 65 57 45 29 16 9 7 6 6 4 2 1 0
0 0 0 0 0 0 0 0 0 0 0 0 0 0 0 0 1 8 31 61 75 71 62 59 63 69 75 84 94 98 99 97 94 91 88 84 78 71 57 37 22 14 10 7 6 4 1 0 0
0 0 0 0 0 0 0 0 0 0 0 0 0 0 0 0 4 21 49 70 71 60 52 56 64 68 75 85 94 98 99 99 97 96 94 91 86 77 63 45 30 20 13 9 6 4 2 0 0
0 0 0 0 0 0 0 0 0 0 0 0 0 0 1 6 16 37 60 69 61 47 40 44 52 58 68 81 90 95 97 98 98 98 96 92 86 78 65 49 33 23 16 10 6 3 2 0 0
0 0 0 0 0 0 0 0 0 0 0 0 0 0 4 18 35 52 61 58 47 37 33 33 34 39 52 70 84 90 92 93 94 94 92 87 80 73 62 47 33 25 19 12 6 3 2 0 0
0 0 0 0 0 0 0 0 0 0 0 0 0 0 9 31 54 61 58 48 37 29 26 23 18 19 29 47 64 76 81 84 85 84 81 76 68 58 48 39 32 25 19 13 8 4 3 1 0
0 0 0 0 0 0 0 0 0 0 0 0 0 1 13 42 66 69 61 48 36 25 19 14 9 7 11 20 34 50 61 66 67 66 61 54 44 34 26 25 26 21 14 11 8 6 4 1 0
0 0 0 0 0 0 0 0 0 0 0 0 0 3 18 48 73 79 71 58 45 30 17 8 5 5 5 7 14 23 32 37 38 37 33 25 16 11 10 16 20 14 9 8 7 6 3 1 0
0 0 0 0 0 0 0 0 0 0 0 0 0 4 19 45 71 82 76 65 53 38 20 6 3 6 8 8 9 9 11 13 12 11 9 6 3 1 6 14 14 10 6 6 6 4 2 0 0
0 0 0 0 0 0 0 0 0 0 0 0 0 4 15 35 58 70 68 60 51 38 19 6 3 6 9 11 11 10 9 7 3 2 3 4 4 3 5 9 9 6 4 3 4 2 0 0 0
0 0 0 0 0 0 0 0 0 0 0 0 0 3 11 24 38 48 49 45 40 30 17 7 4 6 10 13 14 14 12 8 6 7 8 8 7 6 5 5 5 3 1 1 1 1 0 0 0
0 0 0 0 0 0 0 0 0 0 0 0 0 1 7 14 22 29 31 28 25 20 14 9 6 7 10 13 14 14 13 10 10 13 14 13 10 8 8 8 6 3 1 1 0 0 0 0 0
0 0 0 0 0 0 0 0 0 0 0 0 0 1 4 10 15 21 22 19 14 12 9 7 5 6 8 9 10 10 9 9 11 14 16 15 11 10 11 12 10 6 4 5 4 4 3 1 0
0 0 0 0 0 0 0 0 0 0 0 1 2 5 10 14 17 19 19 14 10 7 6 4 4 5 6 6 6 7 6 5 9 13 16 16 13 12 14 14 13 12 14 17 16 14 11 7 4
0 0 0 0 0 0 0 0 1 1 2 4 7 12 19 24 26 24 19 14 10 7 6 5 4 6 9 9 9 9 9 10 14 18 18 16 15 16 18 18 18 22 28 31 29 26 21 15 11
0 0 0 0 0 0 0 1 3 4 6 10 17 23 31 36 36 31 25 19 15 11 10 10 9 10 13 16 17 19 22 24 27 29 26 23 23 23 26 27 28 32 36 37 34 30 27 21 17
0 0 0 0 0 0 1 4 9 12 14 21 29 35 40 43 42 37 31 26 22 19 18 16 15 18 23 28 31 34 36 37 37 39 39 38 35 32 32 33 33 34 35 34 30 28 26 21 17
0 0 0 0 0 0 2 8 15 20 26 35 40 42 44 43 42 39 35 31 28 28 26 22 21 25 34 42 48 51 48 44 41 43 47 47 43 39 35 32 31 29 27 25 23 22 20 16 14
0 0 0 0 0 1 4 9 16 23 32 41 45 46 46 42 37 34 33 31 31 31 30 27 29 34 40 49 57 60 56 49 42 41 44 44 41 37 30 26 23 22 20 17 15 13 12 9 8
0 0 0 0 0 0 2 7 12 17 23 31 36 39 40 36 31 27 26 27 30 34 35 36 39 44 47 52 57 58 55 49 43 38 34 31 28 24 19 16 15 15 14 12 9 7 6 6 5
0 0 0 0 0 0 0 3 7 8 10 15 21 24 24 24 23 21 21 22 26 33 39 41 41 45 51 55 55 53 49 45 38 29 21 15 12 10 9 8 8 9 8 6 5 4 4 4 4
0 0 0 0 0 0 0 2 4 4 5 8 12 12 12 12 12 14 14 14 18 26 33 34 33 35 41 46 49 47 43 35 25 17 10 6 3 2 3 4 4 5 4 4 3 3 3 3 3
0 0 0 0 0 0 0 1 3 3 3 4 5 6 5 5 5 6 6 6 8 13 17 19 20 22 25 29 33 33 29 22 14 8 5 3 1 1 2 3 2 2 2 2 2 2 1 1 1
0 0 0 0 0 0 0 2 4 4 2 1 2 3 2 2 2 2 2 1 2 3 4 6 7 10 11 13 14 15 13 11 8 4 3 2 1 1 2 1 1 1 1 1 1 1 0 0 0
0 0 0 0 0 0 0 3 5 4 2 1 1 2 1 1 1 1 1 0 0 0 0 0 1 2 3 3 3 3 4 4 3 2 1 1 0 1 1 0 0 0 0 0 0 0 0 0 0
0 0 0 0 0 0 1 3 3 2 2 1 0 0 0 0 0 0 0 0 0 0 0 0 0 0 0 0 0 0 1 1 1 0 0 0 0 0 0 0 0 0 0 0 0 0 0 0 0
0 0 0 0 0 0 0 1 1 1 1 1 1 0 0 0 0 0 0 0 0 0 0 0 0 0 0 0 0 0 0 0 0 0 0 0 0 0 0 0 0 0 0 0 0 0 0 0 0
0 0 0 0 0 0 0 0 1 2 2 1 1 0 0 0 0 0 0 0 0 0 0 0 0 0 0 0 0 0 0 0 0 0 0 0 0 0 0 0 0 0 0 0 0 0 0 0 0
0 0 0 0 0 0 0 0 1 2 1 1 0 0 0 0 0 0 0 0 0 0 0 0 0 0 0 0 0 0 0 0 0 0 0 0 0 0 0 0 0 0 0 0 0 0 0 0 0

GEFSSGP_con_prob3kmehi_072.txt.gz
EHI
0 0 0 0 0 0 0 0 0 0 0 0 0 0 0 1 1 1 12 46 85 100 100 99 96 84 58 27 8 2 1 1 1 1 1 1 0 1 2 1 0 0 0 0 0 0 0 0 0
0 0 0 0 0 0 0 0 0 0 0 0 0 0 1 2 3 8 28 65 91 99 99 99 97 87 67 40 17 7 4 3 3 4 3 2 1 1 1 1 0 0 0 0 0 0 0 0 0
0 0 0 0 0 0 0 0 0 0 0 0 0 0 1 3 8 22 53 82 96 97 98 99 98 92 79 56 32 16 10 10 12 12 9 6 4 2 1 1 0 0 0 0 0 0 0 0 0
0 0 0 0 0 0 0 0 0 0 0 0 0 4 7 9 19 42 68 89 95 93 94 96 97 94 85 70 48 30 24 26 29 29 25 19 13 7 3 2 1 1 0 0 0 0 0 0 0
0 0 0 0 0 0 0 0 0 0 0 0 2 12 19 21 33 53 71 84 88 87 89 92 94 92 87 79 66 52 47 48 52 52 48 39 29 17 9 5 3 2 1 0 0 0 0 0 0
0 0 0 0 0 0 0 0 0 0 0 0 4 17 28 31 37 50 63 70 77 82 81 81 85 86 84 80 76 71 68 68 69 69 64 55 44 31 18 10 6 3 1 0 0 0 0 0 0
0 0 0 0 0 0 0 0 0 0 0 0 3 16 31 37 36 40 46 53 67 75 69 61 63 68 71 70 72 73 73 73 72 69 64 56 44 32 22 15 10 6 2 1 0 0 0 0 0
0 0 0 0 0 0 0 0 0 0 0 0 3 14 32 39 33 29 30 42 63 69 56 41 38 42 45 48 54 58 59 63 63 55 48 39 27 18 14 15 14 9 3 1 1 1 1 0 0
0 0 0 0 0 0 0 0 0 0 0 1 4 14 27 31 26 23 27 45 65 68 50 31 23 20 19 22 29 33 35 40 39 31 24 17 9 5 8 17 24 17 7 3 2 3 2 1 0
0 0 0 0 0 0 0 0 0 0 0 1 7 16 21 21 19 20 31 50 69 70 49 29 20 12 7 9 13 12 12 13 12 9 7 4 1 4 14 29 35 27 12 5 4 5 3 1 0
0 0 0 0 0 0 0 0 0 0 0 1 8 19 22 18 16 21 33 51 68 66 45 30 25 16 12 14 11 4 2 2 2 4 5 3 2 8 23 34 35 26 13 6 6 6 4 2 1
0 0 0 0 0 0 0 0 0 0 0 0 6 17 22 16 14 21 34 50 64 59 41 34 35 31 32 34 21 7 5 7 9 13 13 8 5 11 22 31 29 20 13 11 11 7 4 3 3
0 0 0 0 0 0 0 0 0 0 0 1 5 13 17 14 14 25 38 53 64 58 44 42 50 55 62 60 41 21 17 19 24 30 25 15 12 15 23 33 33 23 21 27 23 15 11 10 10
0 0 0 0 0 0 0 0 0 0 1 3 7 12 16 17 22 33 47 60 67 63 54 55 68 80 84 76 58 40 32 32 40 47 41 27 24 32 40 47 45 34 32 42 41 31 28 26 24
0 0 0 0 0 0 0 0 0 2 3 6 11 17 21 27 34 43 55 68 73 72 69 69 76 87 91 80 63 46 37 39 51 62 60 47 42 53 62 61 55 46 42 48 51 49 46 43 40
0 0 0 0 0 0 0 1 3 5 6 10 16 23 29 37 44 50 61 73 81 82 82 76 74 82 86 78 64 46 40 48 62 71 71 63 58 64 71 69 62 56 53 52 54 57 54 50 48
0 0 0 0 0 0 2 5 8 9 11 16 24 31 36 43 51 57 66 77 86 90 89 82 78 80 81 75 64 53 52 60 70 73 72 68 64 65 70 71 66 61 58 56 56 59 55 48 44
0 0 0 0 1 2 6 12 16 19 23 28 34 38 40 44 52 60 68 77 86 90 90 87 85 85 84 77 68 62 61 65 69 69 66 65 64 64 66 68 66 61 56 54 52 51 46 37 31
0 0 0 1 2 6 12 20 27 33 37 39 41 42 41 43 50 58 66 73 78 82 85 84 84 85 85 81 75 68 63 63 65 64 61 59 59 59 59 58 56 52 47 42 37 33 29 23 19
0 0 0 1 3 9 17 25 33 38 39 40 42 43 41 41 48 53 57 62 66 69 71 71 72 76 79 78 75 69 62 59 58 55 50 47 46 45 44 42 38 35 31 25 20 18 16 13 11
0 0 0 1 3 7 13 19 26 31 34 37 38 38 36 36 41 44 44 45 48 50 51 51 55 61 66 67 66 64 60 53 48 42 36 31 28 26 25 23 21 19 17 12 9 9 9 9 9
0 0 0 0 1 2 4 7 14 24 30 31 29 29 29 29 30 30 28 27 28 29 31 32 35 40 45 51 55 57 53 44 34 27 21 17 12 10 10 10 9 9 8 5 3 3 4 5 6
0 0 0 0 0 0 0 1 8 18 24 23 23 23 23 22 21 18 16 16 15 15 16 17 18 19 24 31 38 42 38 29 21 15 11 8 5 4 4 3 3 3 2 1 0 1 2 3 3
0 0 0 0 0 0 0 1 7 16 19 20 21 20 17 15 13 11 10 10 10 9 8 8 8 8 10 14 18 20 19 14 10 8 6 4 3 2 2 1 1 1 0 0 1 1 2 2 1
0 0 0 0 0 0 1 6 14 22 24 22 18 14 11 8 8 7 6 6 6 4 3 3 4 4 5 4 5 6 5 4 4 4 3 2 1 1 1 0 0 0 0 0 1 2 2 1 0
0 0 0 0 0 1 5 15 25 29 27 21 13 8 5 3 2 2 2 2 1 1 1 1 1 1 1 1 1 1 0 0 1 1 1 1 0 0 0 0 0 0 0 0 1 1 1 0 0
0 0 0 0 0 1 7 18 25 26 21 14 7 3 1 0 0 0 0 0 0 0 0 0 0 0 0 0 0 0 0 0 0 0 0 0 0 0 0 0 0 0 0 0 0 0 0 0 0
0 0 0 0 0 0 3 8 13 15 12 6 2 0 0 0 0 0 0 0 0 0 0 0 0 0 0 0 0 0 0 0 0 0 0 0 0 0 0 0 0 0 0 0 0 0 0 0 0
0 0 0 0 0 0 0 1 4 8 6 2 0 0 0 0 0 0 0 0 0 0 0 0 0 0 0 0 0 0 0 0 0 0 0 0 0 0 0 0 0 0 0 0 0 0 0 0 0
0 0 0 0 0 0 0 0 2 5 3 1 0 0 0 0 0 0 0 0 0 0 0 0 0 0 0 0 0 0 0 0 0 0 0 0 0 0 0 0 0 0 0 0 0 0 0 0 0

GEFSSGP_con_prob3kmehi_078.txt.gz
EHI
0 0 0 0 0 0 0 0 0 0 0 0 0 1 2 3 2 2 9 28 52 63 53 40 44 53 54 47 35 22 16 17 21 23 22 18 14 9 3 0 0 0 0 0 0 0 0 0 0
0 0 0 0 0 0 0 0 0 0 0 0 0 2 4 5 4 7 19 43 66 72 60 49 52 61 60 49 36 21 12 11 14 15 13 9 6 4 2 0 0 0 0 0 0 0 0 0 0
0 0 0 0 0 0 0 0 0 0 0 0 1 3 5 6 8 19 40 67 82 81 71 65 68 70 64 51 36 22 11 6 5 5 3 1 1 1 0 0 0 0 0 0 0 0 0 0 0
0 0 0 0 0 0 0 0 0 0 0 0 1 4 7 10 22 44 68 85 90 85 80 81 82 77 65 51 37 25 14 6 2 1 0 0 0 0 0 0 0 0 0 0 0 0 0 0 0
0 0 0 0 0 0 0 0 0 0 0 0 2 6 10 19 44 72 86 91 92 90 87 88 89 83 70 55 43 31 19 9 4 1 0 0 0 0 0 0 0 0 0 0 0 0 0 0 0
0 0 0 0 0 0 0 0 0 0 0 1 5 10 14 29 58 82 89 90 92 94 91 88 86 82 73 64 54 41 25 13 5 1 0 0 0 0 0 0 0 0 0 0 0 0 0 0 0
0 0 0 0 0 0 0 0 0 0 0 3 9 14 18 34 59 77 84 87 90 93 92 85 77 72 68 64 58 46 28 14 5 1 0 0 0 0 0 0 0 0 0 0 0 0 0 0 0
0 0 0 0 0 0 0 0 0 0 0 3 10 15 20 37 59 75 84 86 85 86 86 81 72 64 57 53 49 40 26 15 6 2 1 1 0 0 0 0 0 1 1 0 0 0 0 0 0
0 0 0 0 0 0 0 0 0 0 0 3 10 15 25 44 64 80 88 87 82 78 76 75 73 66 56 46 39 32 24 15 7 3 2 2 0 0 0 0 1 3 3 2 1 0 0 0 0
0 0 0 0 0 0 0 0 0 0 0 3 10 20 34 51 69 81 86 84 78 73 67 67 70 69 62 51 40 31 22 13 7 4 3 1 0 0 0 0 2 4 5 4 2 0 0 0 0
0 0 0 0 0 0 0 0 0 0 0 4 12 25 39 53 65 73 75 71 66 62 59 58 61 61 58 52 42 30 20 10 4 3 2 1 0 0 0 0 2 4 4 3 1 0 0 0 0
0 0 0 0 0 0 0 0 0 0 1 5 14 26 37 46 54 61 62 57 51 48 48 48 47 45 42 40 33 23 14 6 2 1 1 0 0 0 0 0 1 2 2 1 0 0 0 0 0
0 0 0 0 0 0 0 0 0 1 3 8 17 26 30 35 43 52 56 52 44 38 38 40 38 33 28 24 18 12 7 3 1 0 0 0 0 0 0 0 0 1 0 0 0 0 0 0 0
0 0 0 0 0 0 1 1 1 2 5 11 20 26 27 29 37 48 54 52 44 34 31 33 31 26 20 14 9 5 2 1 0 0 0 0 0 0 0 0 0 0 0 0 0 0 0 0 0
0 0 0 0 0 0 2 3 2 3 7 14 21 27 29 31 36 45 51 49 42 34 29 27 25 22 18 14 9 4 2 1 0 0 0 1 1 0 0 0 0 0 0 0 0 0 0 0 0
0 0 0 0 0 1 3 4 3 4 9 16 21 27 33 35 37 40 43 44 40 36 32 29 26 25 25 21 16 11 7 4 2 1 3 3 2 0 0 1 1 0 0 0 0 0 0 0 0
0 0 0 0 0 2 4 5 5 6 11 17 20 25 30 34 35 35 38 39 38 37 37 37 35 34 33 30 27 23 17 10 6 5 6 6 4 2 2 3 2 1 1 0 0 0 0 0 0
0 0 0 0 1 4 8 11 10 10 14 17 18 21 25 27 28 29 31 33 33 33 38 42 42 41 40 39 38 34 23 14 11 10 8 7 7 6 6 6 4 3 2 1 0 0 0 0 0
0 0 0 1 3 9 17 22 18 15 16 19 18 20 23 22 21 21 22 24 26 29 35 38 37 37 39 41 40 34 25 17 13 11 8 7 8 8 8 8 5 3 2 1 0 0 0 0 0
0 0 1 2 5 13 24 29 24 20 20 19 18 18 20 19 16 16 17 18 19 22 26 27 25 25 27 29 30 27 22 16 12 8 5 4 5 5 6 6 4 2 1 0 0 0 0 0 0
0 0 1 2 4 10 18 21 20 20 21 18 15 15 15 14 13 13 14 14 13 13 15 16 16 15 15 15 18 20 18 13 7 3 2 1 2 3 3 3 2 1 0 0 0 0 0 0 0
0 0 0 1 1 3 6 7 9 15 17 15 13 13 12 10 9 8 8 9 7 6 7 8 10 10 8 7 10 13 12 7 3 0 0 0 1 1 1 1 1 0 0 0 0 0 0 0 0
0 0 0 0 0 0 0 0 3 9 12 11 10 10 9 7 4 3 3 4 3 3 4 4 6 6 6 5 5 7 6 3 1 0 0 0 0 0 0 0 0 0 0 0 0 0 0 0 0
0 0 0 0 0 0 0 0 1 4 6 7 7 6 5 2 1 0 1 1 3 3 3 3 3 4 4 3 3 3 2 1 0 0 0 0 0 0 0 0 0 0 0 0 0 0 0 0 0
0 0 0 0 0 0 0 0 0 1 2 4 4 3 2 0 0 0 0 1 2 2 2 2 2 2 2 1 2 1 0 0 0 0 0 0 0 0 0 0 0 0 0 0 0 0 0 0 0
0 0 0 0 0 0 0 0 0 0 1 1 1 1 0 0 0 0 0 0 1 1 1 1 1 1 0 0 0 0 0 0 0 0 0 0 0 0 0 0 0 0 0 0 0 0 0 0 0
0 0 0 0 0 0 0 0 0 1 0 0 0 0 0 0 0 0 0 0 0 0 0 0 0 0 0 0 0 0 0 0 0 0 0 0 0 0 0 0 0 0 0 0 0 0 0 0 0
0 0 0 0 0 0 0 0 0 0 0 0 0 0 0 0 0 0 0 0 0 0 0 0 0 0 0 0 0 0 0 0 0 0 0 0 0 0 0 0 0 0 0 0 0 0 0 0 0
0 0 0 0 0 0 0 0 0 0 0 0 0 0 0 0 0 0 0 0 0 0 0 0 0 0 0 0 0 0 0 0 0 0 0 0 0 0 0 0 0 0 0 0 0 0 0 0 0
0 0 0 0 0 0 0 0 0 0 0 0 0 0 0 0 0 0 0 0 0 0 0 0 0 0 0 0 0 0 0 0 0 0 0 0 0 0 0 0 0 0 0 0 0 0 0 0 0

GEFSSGP_con_prob3kmehi_084.txt.gz
EHI
0 0 0 0 0 0 0 0 0 0 0 0 1 3 3 3 3 4 5 15 41 66 64 51 44 47 62 83 95 97 96 93 87 82 79 76 69 58 46 32 19 12 9 8 7 7 7 6 4
0 0 0 0 0 0 0 0 0 1 1 1 2 3 3 4 4 5 8 21 50 71 69 56 50 53 68 86 96 96 93 88 82 77 74 71 65 55 42 29 19 13 10 8 7 7 7 6 4
0 0 0 0 0 0 0 0 0 1 2 3 3 3 4 4 5 7 14 32 58 73 72 64 61 63 72 86 92 90 84 77 71 68 67 64 58 48 35 24 17 12 9 7 7 7 7 5 4
0 0 0 0 0 0 0 0 0 1 2 3 3 3 4 6 9 13 23 42 60 70 71 72 74 73 74 81 85 82 75 68 62 60 60 56 48 37 25 17 12 9 7 7 6 7 6 5 4
0 0 0 0 0 0 0 0 0 0 2 3 3 3 5 10 16 21 31 46 59 68 73 77 81 80 76 78 81 78 73 66 61 58 55 49 37 26 18 12 9 6 5 5 5 5 5 5 5
0 0 0 0 0 0 0 0 0 0 2 3 3 4 8 16 24 31 39 50 62 72 78 81 81 79 75 77 80 80 76 71 65 59 50 39 27 18 13 10 7 5 3 3 3 3 4 4 4
0 0 0 0 0 0 0 0 0 0 1 3 3 4 9 21 34 43 49 58 69 78 83 84 79 75 73 76 80 82 79 74 66 54 40 27 17 11 8 7 5 4 3 2 3 3 3 3 3
0 0 0 0 0 0 0 0 0 0 1 3 4 5 12 30 49 57 60 67 75 80 85 87 82 77 74 73 77 80 77 70 59 45 31 20 13 8 5 4 4 3 3 3 3 3 3 3 3
0 0 0 0 0 0 0 0 0 0 1 3 5 7 20 45 64 69 69 71 74 78 82 85 84 81 77 74 76 78 74 65 54 42 31 22 14 8 5 4 3 3 3 3 3 3 3 3 3
0 0 0 0 0 0 0 0 0 0 1 3 5 12 32 57 72 75 72 69 70 73 76 76 76 77 78 78 81 83 77 66 54 43 33 23 14 9 7 5 3 4 4 5 4 3 3 3 3
0 0 0 0 0 0 0 0 0 0 1 2 6 19 43 63 71 72 70 65 64 66 67 66 68 71 74 78 85 87 80 67 52 40 31 20 12 9 7 6 4 5 7 7 5 2 2 3 3
0 0 0 0 1 1 1 1 1 0 0 3 11 27 50 65 68 68 65 60 57 56 55 56 61 65 67 73 81 82 74 60 44 33 27 19 11 8 7 6 6 6 7 7 4 1 1 3 3
0 0 0 1 2 2 2 1 0 0 1 6 15 30 48 60 63 63 61 56 50 46 43 45 51 56 60 65 72 72 60 45 34 26 22 16 9 6 6 6 6 5 5 4 2 0 1 2 3
0 0 0 1 1 2 2 1 0 0 3 9 16 26 39 51 56 56 56 53 45 37 33 36 41 47 52 55 57 53 41 29 23 19 15 11 6 4 4 4 4 4 2 1 0 0 0 1 2
0 0 0 0 0 1 1 0 0 0 3 9 14 19 29 38 43 46 49 48 42 35 31 32 35 38 41 39 34 28 22 17 13 11 10 7 5 3 3 3 3 3 1 0 0 0 0 0 1
0 0 0 0 0 0 0 0 0 0 2 6 10 15 20 26 32 37 39 39 38 36 32 30 30 30 29 24 17 13 11 8 6 5 4 4 3 3 3 3 3 2 1 0 0 0 0 0 0
0 0 0 0 0 0 0 0 0 0 1 5 9 12 15 19 24 29 30 30 32 33 31 28 26 24 21 16 11 8 5 3 2 1 1 1 1 1 2 2 1 1 0 0 0 0 0 0 0
0 0 0 0 0 0 0 0 0 1 2 5 8 10 13 15 17 22 24 24 26 26 25 25 23 20 17 13 9 6 2 0 0 0 0 0 0 0 1 1 0 0 0 0 0 0 0 0 0
0 0 0 0 0 1 1 1 1 3 4 6 8 9 10 11 11 14 17 19 20 20 20 20 18 15 13 12 9 4 1 0 0 0 0 0 0 0 0 0 0 0 0 0 0 0 0 0 0
0 0 0 0 0 1 2 2 3 4 4 6 7 8 9 9 9 10 11 13 15 15 14 14 12 9 9 10 7 4 2 1 0 0 0 0 0 0 0 0 0 0 0 0 0 0 0 0 0
0 0 0 0 0 1 1 1 2 3 4 5 6 6 6 7 6 6 8 9 11 11 10 9 8 7 7 7 4 3 3 2 0 0 0 1 0 0 0 0 0 0 0 0 0 0 0 0 0
0 0 0 0 0 0 0 0 1 3 3 4 4 3 4 4 4 4 5 6 8 8 8 7 7 7 6 5 3 1 2 1 0 0 0 0 0 0 0 0 0 0 0 0 0 0 0 0 0
0 0 0 0 0 0 0 0 1 2 3 3 3 3 3 3 3 2 2 3 5 6 6 6 6 6 5 3 1 0 0 0 0 0 0 0 0 0 0 0 0 0 0 0 0 0 0 0 0
0 0 0 0 0 0 0 0 1 2 3 3 3 3 2 2 1 1 1 1 3 4 4 4 5 5 2 1 0 0 0 0 0 0 0 0 0 0 0 0 0 0 0 0 0 0 0 0 0
0 0 0 0 0 0 0 1 1 2 3 2 2 1 1 1 0 0 0 0 1 3 3 3 4 3 1 0 0 0 0 0 0 0 0 0 0 0 0 0 0 0 0 0 0 0 0 0 0
0 0 0 0 0 0 1 2 2 2 1 1 1 0 0 0 0 0 0 0 1 2 3 3 3 2 1 0 0 0 0 0 0 0 0 0 0 0 0 0 0 0 0 0 0 0 0 0 0
0 0 0 0 0 0 1 2 3 2 0 0 0 0 0 0 0 0 0 0 0 1 2 2 1 1 0 0 0 0 0 0 0 0 0 0 0 0 0 0 0 0 0 0 0 0 0 0 0
0 0 0 0 0 0 1 2 2 2 1 0 0 0 0 0 0 0 0 0 0 0 1 1 0 0 0 0 0 0 0 0 0 0 0 0 0 0 0 0 0 0 0 0 0 0 0 0 0
0 0 0 0 0 0 0 1 1 1 1 0 0 0 0 0 0 0 0 0 0 0 0 0 0 0 0 0 0 0 0 0 0 0 0 0 0 0 0 0 0 0 0 0 0 0 0 0 0
0 0 0 0 0 0 0 0 0 1 0 0 0 0 0 0 0 0 0 0 0 0 0 0 0 0 0 0 0 0 0 0 0 0 0 0 0 0 0 0 0 0 0 0 0 0 0 0 0

GEFSSGP_con_prob3kmehi_090.txt.gz
EHI
0 0 0 0 0 0 0 0 0 0 0 0 0 0 0 0 0 1 5 13 32 54 63 66 76 83 82 79 78 82 84 81 75 67 59 50 43 36 29 24 20 16 13 13 15 16 18 16 11
0 0 0 0 0 0 0 0 0 0 0 0 0 0 0 0 1 3 10 21 39 57 63 65 77 87 88 86 84 84 85 82 78 72 66 60 53 46 35 25 20 16 13 12 12 12 12 10 7
0 0 0 0 0 0 0 0 0 0 0 0 0 0 0 0 1 8 19 31 46 57 60 66 79 90 93 92 89 88 86 83 79 75 73 70 66 56 42 27 19 15 14 12 11 9 8 6 4
0 0 0 0 0 0 0 0 0 0 0 0 0 0 0 1 4 15 28 39 48 52 56 67 81 89 93 93 91 89 87 82 79 78 77 75 71 60 44 29 19 15 14 13 10 8 7 6 5
0 0 0 0 0 0 0 0 0 0 0 0 0 0 1 4 12 24 35 41 46 50 56 69 82 88 90 90 89 89 87 84 82 82 81 79 74 63 47 32 23 16 14 13 10 7 7 6 6
0 0 0 0 0 0 0 0 0 0 0 0 0 1 3 8 19 31 38 39 42 48 56 69 78 81 83 85 86 87 86 85 85 86 85 82 77 66 50 35 26 18 13 11 9 7 6 5 4
0 0 0 0 0 0 0 0 0 0 0 1 1 2 6 13 24 35 40 38 39 45 54 63 66 67 70 74 78 81 82 82 85 87 85 80 73 61 44 31 25 19 13 10 8 6 5 3 2
0 0 0 0 0 0 0 0 0 0 1 2 2 4 10 19 30 41 45 43 41 46 52 55 54 52 51 54 64 70 74 78 81 82 77 66 53 41 28 22 22 18 12 9 7 5 4 2 1
0 0 0 0 0 0 0 0 0 0 1 2 3 6 14 24 34 44 49 51 51 54 55 54 52 46 38 41 54 59 61 63 62 61 56 41 26 18 14 19 24 18 11 8 6 4 2 1 0
0 0 0 0 0 0 0 0 0 0 0 1 3 9 16 24 32 39 46 53 59 63 62 59 57 50 42 45 55 55 50 47 41 40 39 30 22 14 12 21 24 17 10 7 5 3 1 0 0
0 0 0 0 0 0 0 0 0 1 2 3 5 10 15 19 25 32 39 50 59 64 62 59 59 56 52 54 60 59 55 49 42 42 45 43 37 27 21 21 20 15 10 6 4 2 0 0 0
0 0 0 0 0 0 0 0 0 2 5 6 7 11 14 17 22 29 36 45 57 61 56 53 55 57 58 61 64 64 62 57 55 57 57 53 47 38 29 22 16 13 10 6 3 1 0 0 0
0 0 0 0 0 0 0 0 0 2 5 7 10 14 17 19 25 31 37 44 53 58 54 50 52 58 63 66 66 63 60 56 59 60 54 48 45 40 33 25 19 13 11 10 7 3 1 1 0
0 0 0 0 0 0 0 0 0 1 2 5 11 17 20 22 27 33 38 43 49 53 53 50 53 59 65 66 63 59 54 54 57 57 48 39 38 38 32 26 21 16 15 16 12 8 5 3 1
0 0 0 0 0 0 0 0 0 0 0 3 9 15 18 20 26 32 37 42 47 50 49 49 52 58 63 63 60 55 52 52 53 53 48 40 36 35 30 25 22 21 21 22 18 13 9 6 3
0 0 0 0 0 0 0 0 0 0 0 1 5 10 14 17 23 29 36 42 48 49 48 48 52 56 59 58 54 50 48 49 49 49 47 42 35 31 30 28 28 27 25 22 19 16 12 8 5
0 0 0 0 0 0 0 0 0 0 0 1 4 8 11 15 21 27 33 39 44 47 47 49 52 52 51 49 47 43 41 41 42 41 39 38 34 30 30 33 34 30 24 19 16 15 11 7 5
0 0 0 0 0 0 0 0 0 0 0 2 5 8 10 11 15 20 25 29 34 38 41 44 46 45 41 41 41 38 34 31 28 27 27 29 29 27 26 29 32 29 22 17 15 13 9 5 3
0 0 0 0 0 0 1 1 1 0 0 2 5 7 7 7 10 13 16 19 23 28 31 34 35 35 35 37 40 38 31 22 17 16 17 19 19 18 18 21 25 24 19 17 15 11 6 3 2
0 0 0 0 0 0 1 1 1 2 2 2 3 5 5 6 10 11 12 14 17 22 24 25 26 27 30 34 37 34 25 15 11 10 11 11 10 10 11 13 15 15 15 14 11 8 4 1 1
0 0 0 0 0 0 0 0 1 3 3 2 2 3 4 7 9 10 11 12 14 18 21 21 21 22 23 25 27 24 17 11 8 7 6 5 5 5 7 8 8 8 8 7 6 4 2 1 1
0 0 0 0 0 0 0 0 1 2 3 2 2 2 3 5 7 9 10 11 12 14 16 17 18 17 15 16 18 17 13 9 6 4 2 1 1 1 3 5 5 4 3 3 2 1 1 0 0
0 0 0 0 0 0 0 0 1 1 1 1 2 2 2 4 7 9 10 9 9 11 13 13 14 13 11 12 14 15 11 7 3 2 0 0 0 0 1 3 2 1 1 1 1 1 0 0 0
0 0 0 0 0 0 0 0 1 2 2 1 1 1 2 4 6 8 8 7 7 8 10 11 10 9 8 8 11 11 7 3 1 0 0 0 0 0 0 0 0 0 0 0 0 0 0 0 0
0 0 0 0 0 0 0 0 2 3 4 3 1 0 1 2 3 3 3 3 4 5 6 7 7 6 5 5 6 5 3 1 0 0 0 0 0 0 0 0 0 0 0 0 0 0 0 0 0
0 0 0 0 0 0 0 1 3 4 5 3 1 0 0 0 0 0 0 0 1 2 3 4 5 5 4 3 3 2 1 0 0 0 0 0 0 0 0 0 0 0 0 0 0 0 0 0 0
0 0 0 0 0 0 0 2 3 3 3 2 1 1 0 0 0 0 0 0 0 1 2 3 3 3 3 2 1 1 0 0 0 0 0 0 0 0 0 0 0 0 0 0 0 0 0 0 0
0 0 0 0 0 0 0 1 2 2 1 1 1 1 0 0 0 0 0 0 0 0 1 1 1 2 2 1 0 0 0 0 0 0 0 0 0 0 0 0 0 0 0 0 0 0 0 0 0
0 0 0 0 0 0 0 0 2 4 3 1 1 0 0 0 0 0 0 0 0 0 0 0 0 1 1 0 0 0 0 0 0 0 0 0 0 0 0 0 0 0 0 0 0 0 0 0 0
0 0 0 0 0 0 0 0 2 5 5 3 2 1 0 0 0 0 0 0 0 0 0 0 0 0 0 0 0 0 0 0 0 0 0 0 0 0 0 0 0 0 0 0 0 0 0 0 0

GEFSSGP_con_prob3kmehi_096.txt.gz
EHI
0 0 0 0 0 0 0 0 0 0 0 0 0 0 1 1 2 7 12 32 71 92 88 82 78 70 55 38 24 13 8 4 4 4 5 6 7 9 10 9 10 11 9 6 4 4 4 1 0
0 0 0 0 0 0 0 0 0 0 0 0 0 0 1 2 4 11 19 41 76 93 88 83 82 75 63 49 34 21 13 8 6 7 9 10 10 10 10 9 8 8 7 5 3 3 3 1 0
0 0 0 0 0 0 0 0 0 0 0 0 0 1 2 4 8 20 34 54 80 91 87 88 87 80 71 61 48 34 25 19 18 18 18 18 17 15 12 8 5 4 3 3 3 4 3 1 0
0 0 0 0 0 0 0 0 0 0 0 0 0 3 7 10 17 32 45 59 74 80 80 85 88 83 75 69 60 50 42 35 34 32 30 28 25 21 15 9 5 3 1 1 3 5 4 2 0
0 0 0 0 0 0 0 0 0 0 0 0 0 5 13 19 28 39 42 50 60 65 70 78 85 84 78 74 70 66 60 53 49 46 43 39 34 27 19 11 6 4 2 2 3 4 4 3 1
0 0 0 0 0 0 0 0 0 0 0 0 1 6 16 25 33 36 34 38 47 56 65 74 79 82 80 78 78 77 74 69 65 60 56 50 42 31 22 15 10 6 4 3 3 3 3 2 1
0 0 0 0 0 0 0 0 0 0 0 0 1 8 22 33 35 33 31 33 42 55 66 70 71 75 76 78 83 84 81 78 77 72 64 54 41 30 23 20 14 8 5 3 3 3 2 1 0
0 0 0 0 0 0 0 0 0 0 0 0 2 13 32 44 39 32 29 31 42 59 67 64 62 65 66 69 78 85 85 82 76 68 59 47 31 20 17 16 14 8 3 2 2 2 1 0 0
0 0 0 0 0 0 0 0 0 0 0 2 6 17 34 44 38 29 27 34 48 65 66 55 51 53 50 55 69 77 77 73 64 53 44 33 18 10 8 10 11 6 2 1 2 1 0 0 0
0 0 0 0 0 0 0 0 0 0 1 5 10 19 29 34 33 30 32 41 56 68 64 50 45 43 39 49 66 67 61 57 46 37 31 20 10 6 8 15 17 10 4 3 2 1 0 0 0
0 0 0 0 0 0 0 0 1 1 4 10 15 21 26 29 32 34 37 45 59 69 64 51 47 44 42 54 66 59 51 45 36 30 26 17 10 11 18 26 25 15 6 3 3 2 1 0 0
0 0 0 0 0 0 0 1 2 4 7 11 16 22 28 31 34 38 42 50 63 71 67 59 55 53 54 64 66 55 50 45 37 35 32 23 17 20 27 31 26 15 5 2 3 3 2 1 1
0 0 0 0 0 0 0 1 3 6 8 10 14 22 30 36 41 46 53 61 69 73 70 65 65 64 66 71 67 56 55 51 46 47 43 30 25 26 30 31 25 15 8 6 5 5 6 7 7
0 0 0 0 0 0 0 1 3 7 9 9 13 21 32 40 45 51 59 67 72 72 69 65 64 66 71 74 69 60 58 57 54 54 48 35 29 31 32 33 31 25 21 19 14 13 16 16 14
0 0 0 0 0 0 0 1 4 8 10 12 17 25 32 37 41 47 55 63 67 67 65 59 57 62 68 71 67 59 56 54 53 51 45 35 31 33 36 37 36 33 34 35 30 27 28 24 20
0 0 0 0 0 0 0 2 6 8 10 16 24 30 33 34 36 41 48 55 59 60 59 56 57 61 65 65 59 52 49 47 45 42 38 33 30 32 37 37 35 35 38 39 36 33 32 26 21
0 0 0 0 0 0 1 3 5 7 10 19 30 33 31 30 32 36 42 47 51 55 57 58 61 63 60 54 46 38 35 34 33 31 30 28 27 28 30 31 30 31 32 31 29 28 26 20 17
0 0 0 0 0 0 1 3 5 6 11 22 31 31 28 26 26 31 36 41 46 52 54 55 58 57 51 42 34 27 22 22 22 23 22 22 22 22 22 23 25 25 23 22 22 19 16 12 9
0 0 0 0 0 0 1 3 6 7 13 25 30 26 24 23 23 27 31 35 41 46 48 48 48 47 42 36 30 25 20 17 17 17 16 16 16 16 16 18 20 21 21 20 19 14 9 6 5
0 0 0 0 0 0 1 3 7 10 16 27 29 24 22 21 21 24 27 30 33 36 38 39 39 38 36 33 31 28 23 18 14 13 12 10 10 12 12 14 15 18 19 19 17 12 6 3 3
0 0 0 0 0 0 0 2 6 12 19 26 28 24 20 18 18 22 24 24 25 26 27 31 32 32 31 31 30 28 24 16 11 9 7 6 7 8 9 9 10 12 13 13 11 8 4 1 1
0 0 0 0 0 0 0 1 6 13 20 25 26 23 20 17 18 21 20 19 20 20 21 24 26 27 28 29 27 25 21 14 8 6 4 3 4 5 6 7 7 7 6 6 5 3 1 0 0
0 0 0 0 0 0 0 1 5 11 18 25 28 26 21 18 17 17 16 16 17 18 18 19 20 22 23 23 22 18 15 11 7 4 3 2 1 2 3 4 4 4 3 3 2 1 0 0 0
0 0 0 0 0 0 0 0 3 9 16 25 29 26 21 17 13 11 11 12 15 16 14 13 14 16 17 16 14 10 8 8 5 2 1 1 0 0 1 1 1 1 1 1 1 1 0 0 0
0 0 0 0 0 0 0 1 5 12 19 26 27 21 16 12 8 6 7 8 9 10 10 9 9 11 12 10 8 6 5 5 3 1 0 0 0 0 0 0 0 0 0 0 0 0 0 0 0
0 0 0 0 0 0 0 2 8 16 21 22 18 14 10 6 4 3 3 3 3 5 6 6 6 8 7 6 5 4 4 3 1 0 0 0 0 0 0 0 0 0 0 0 0 0 0 0 0
0 0 0 0 0 0 0 2 8 13 14 12 10 8 5 3 2 1 1 1 1 1 2 2 4 5 4 4 4 3 3 2 1 0 0 0 0 0 0 0 0 0 0 0 0 0 0 0 0
0 0 0 0 0 0 0 1 4 7 6 5 5 4 3 3 2 0 0 0 0 0 0 0 1 2 3 2 2 2 1 1 0 0 0 0 0 0 0 0 0 0 0 0 0 0 0 0 0
0 0 0 0 0 0 0 0 3 5 5 3 2 2 3 2 1 0 0 0 0 0 0 0 0 1 1 1 1 1 0 0 0 0 0 0 0 0 0 0 0 0 0 0 0 0 0 0 0
0 0 0 0 0 0 0 1 3 7 5 2 1 2 2 1 0 0 0 0 0 0 0 0 0 0 0 0 0 0 0 0 0 0 0 0 0 0 0 0 0 0 0 0 0 0 0 0 0

GEFSSGP_con_prob3kmehi_102.txt.gz
EHI
0 0 0 0 0 0 0 0 0 0 0 1 2 6 10 10 7 5 6 16 34 47 46 49 56 58 52 44 32 21 15 14 15 15 17 21 25 28 28 26 21 13 7 3 2 2 2 1 0
0 0 0 0 0 0 0 0 0 0 0 1 3 7 14 16 13 10 13 26 46 55 51 51 59 62 57 49 36 23 15 12 11 10 11 15 18 19 18 17 13 8 5 3 2 1 1 0 0
0 0 0 0 0 0 0 0 0 0 1 2 5 9 14 18 19 20 27 45 60 64 58 57 64 66 61 54 42 27 17 11 8 7 7 7 8 9 8 6 4 2 2 2 1 0 0 1 1
0 0 0 0 0 0 0 0 0 0 1 4 8 12 14 20 28 38 50 62 69 68 64 64 69 69 65 57 45 32 22 14 9 6 5 4 3 3 2 1 0 0 1 1 0 0 0 1 2
0 0 0 0 0 0 0 0 0 0 1 5 11 18 22 32 48 63 69 72 73 72 70 70 72 72 69 62 51 41 30 20 12 8 5 2 1 1 0 0 0 0 0 0 0 0 0 1 1
0 0 0 0 0 0 0 0 0 0 2 6 14 22 31 46 65 76 76 74 76 78 76 72 69 69 70 68 61 52 41 30 21 16 11 5 3 2 1 0 0 0 0 0 0 0 0 0 0
0 0 0 0 0 0 0 0 0 1 4 9 16 24 35 50 65 74 76 77 81 83 79 71 63 61 66 68 66 60 51 42 34 27 19 11 5 3 2 1 0 0 0 0 0 0 0 0 0
0 0 0 0 0 0 0 0 1 4 8 12 18 26 36 49 64 75 80 83 85 81 76 71 63 59 61 62 60 58 54 47 41 34 25 15 8 4 3 1 0 0 0 0 0 0 0 0 0
0 0 0 0 0 0 0 1 3 7 12 17 23 30 40 55 70 80 83 84 83 75 70 69 66 61 60 57 52 52 51 46 41 34 26 18 11 6 3 1 0 0 0 0 0 0 0 0 0
0 0 0 0 0 0 0 1 4 9 15 21 28 35 47 62 74 78 77 78 76 70 63 62 61 59 58 55 52 50 48 43 39 33 25 17 11 6 2 0 0 0 0 0 0 0 0 0 0
0 0 0 0 0 0 0 1 4 11 18 22 28 37 49 59 66 69 68 70 72 66 56 51 52 52 52 55 56 52 46 40 34 29 22 14 8 4 2 0 0 1 0 0 0 0 0 0 0
0 0 0 0 0 0 0 1 4 10 17 21 27 37 45 48 51 56 59 63 67 61 48 41 41 42 45 52 55 50 43 36 27 21 16 11 5 3 1 0 0 1 1 0 0 0 0 0 0
0 0 0 0 0 1 2 2 4 10 16 22 28 35 39 37 38 44 52 57 58 53 45 38 32 31 36 44 45 41 36 30 21 14 10 6 2 1 0 0 0 0 1 0 0 0 0 0 0
0 0 0 0 0 1 2 4 5 10 18 24 27 33 35 32 32 37 44 48 47 44 41 37 31 28 30 34 33 29 25 21 14 8 4 2 0 0 0 0 0 0 1 1 0 0 0 0 0
0 0 0 0 0 0 2 3 5 12 21 26 30 33 34 32 29 31 34 37 38 35 32 32 30 28 28 28 26 21 18 14 8 4 1 0 0 0 0 0 0 0 1 1 1 0 0 0 0
0 0 0 0 0 1 2 3 5 13 24 30 33 35 34 29 25 25 29 33 32 27 23 23 25 26 25 24 20 17 14 10 6 3 1 0 0 0 1 1 0 0 1 1 1 0 0 0 0
0 0 0 0 0 1 3 6 10 18 28 34 35 34 31 25 21 22 27 31 29 25 20 18 19 21 21 18 14 12 11 8 5 3 3 1 0 0 1 2 1 1 1 1 0 0 0 0 0
0 0 0 0 0 2 5 10 16 23 30 33 32 32 30 25 20 20 23 25 25 22 18 15 14 16 15 12 9 7 7 6 4 4 5 3 2 1 2 2 2 2 2 1 0 0 0 0 0
0 0 0 0 0 1 6 12 17 23 28 29 29 30 30 26 21 19 20 21 21 19 15 12 11 12 10 8 6 4 4 5 4 4 5 4 4 4 3 3 3 3 2 1 0 0 0 0 0
0 0 0 0 0 1 4 9 13 19 24 25 25 27 27 24 21 20 19 18 18 17 14 11 10 9 8 7 5 4 4 5 5 4 4 4 5 5 5 4 2 1 1 0 0 0 0 0 0
0 0 0 0 0 0 2 5 9 15 22 24 24 22 20 18 17 16 14 13 14 14 12 10 9 8 7 7 5 4 5 6 5 4 3 3 4 4 4 3 1 0 0 0 0 0 0 0 0
0 0 0 0 0 0 0 2 5 12 19 22 21 17 13 11 9 9 9 9 10 10 9 8 7 7 7 7 6 5 5 5 4 3 3 3 3 3 3 2 1 0 0 0 0 0 0 0 0
0 0 0 0 0 0 0 0 2 6 13 16 15 12 8 5 4 4 5 6 7 7 6 5 5 5 5 5 5 4 4 4 3 3 3 3 2 2 2 2 1 0 0 0 0 0 0 0 0
0 0 0 0 0 0 0 0 0 2 5 9 9 7 5 3 3 3 4 4 5 5 4 3 3 3 2 2 2 2 3 3 3 3 2 1 1 1 1 1 0 0 0 0 0 0 0 0 0
0 0 0 0 0 0 0 0 0 0 2 4 5 4 3 2 2 3 3 3 4 3 2 1 1 1 0 0 0 1 3 3 3 1 1 0 0 0 0 0 0 0 0 0 0 0 0 0 0
0 0 0 0 0 0 0 0 0 0 1 1 1 1 1 1 1 1 2 2 2 1 1 0 0 0 0 0 0 1 2 3 2 1 0 0 0 0 0 0 0 0 0 0 0 0 0 0 0
0 0 0 0 0 0 0 0 0 0 0 0 0 0 0 0 0 0 1 1 1 0 0 0 0 0 0 0 0 1 2 2 1 0 0 0 0 0 0 0 0 0 0 0 0 0 0 0 0
0 0 0 0 0 0 0 0 0 0 0 0 0 0 0 0 0 0 0 0 0 0 0 0 0 0 0 0 0 0 1 1 0 0 0 0 0 0 0 0 0 0 0 0 0 0 0 0 0
0 0 0 0 0 0 0 0 0 0 0 0 0 0 0 0 0 0 0 0 0 0 0 0 0 0 0 0 0 0 0 0 0 0 0 0 0 0 0 0 0 0 0 0 0 0 0 0 0
0 0 0 0 0 0 0 0 0 0 0 0 0 0 0 0 0 0 0 0 0 0 0 0 0 0 0 0 0 0 0 0 0 0 0 0 0 0 0 0 0 0 0 0 0 0 0 0 0

GEFSSGP_con_prob3kmehi_108.txt.gz
EHI
0 0 0 0 0 0 0 0 0 0 0 1 3 4 4 3 1 0 2 17 45 64 63 58 57 57 58 61 66 74 81 86 87 85 82 75 69 62 52 39 27 19 14 10 6 3 2 2 3
0 0 0 0 0 0 0 0 0 0 0 1 2 3 4 4 3 2 6 25 54 70 67 62 61 60 59 61 65 70 75 79 79 78 75 71 67 61 52 40 28 20 15 10 6 4 3 3 2
0 0 0 0 0 0 0 0 0 0 0 0 2 3 4 5 6 6 15 39 66 77 73 69 69 66 62 63 64 65 66 66 66 66 64 61 59 55 48 37 27 21 15 10 8 7 5 3 3
0 0 0 0 0 0 0 0 0 0 0 1 3 6 8 9 10 14 28 52 74 81 76 74 76 71 65 64 64 63 60 58 56 54 51 49 49 47 41 33 25 18 13 11 12 11 7 4 4
0 0 0 0 0 0 0 0 0 0 1 3 7 13 17 16 17 23 37 56 73 79 75 74 77 75 69 66 64 61 59 56 52 47 43 41 41 40 35 29 22 15 10 8 10 11 9 7 6
0 0 0 0 0 0 0 0 0 1 3 6 12 21 26 26 27 34 43 54 67 74 73 71 72 74 72 68 65 62 58 54 50 45 40 38 37 34 29 24 18 12 6 3 4 7 8 8 7
0 0 0 0 0 0 0 0 1 3 6 10 16 25 31 35 41 49 54 56 63 70 71 67 64 64 68 69 67 63 57 50 46 42 37 33 31 27 22 18 13 8 3 0 1 2 4 5 6
0 0 0 0 0 0 0 0 1 4 9 13 18 25 35 47 59 69 69 64 63 67 68 65 60 57 60 64 65 62 56 49 42 37 33 28 25 22 17 14 10 5 2 0 0 1 2 3 3
0 0 0 0 0 0 0 0 1 5 10 16 23 28 42 60 74 79 76 67 62 61 62 62 60 58 57 58 59 59 56 50 43 37 32 26 23 20 16 10 7 5 3 1 0 1 2 3 4
0 0 0 0 0 0 0 1 2 5 9 16 26 35 49 65 74 74 68 59 55 55 55 55 58 60 58 55 56 58 56 51 46 40 35 28 22 19 15 9 6 5 4 3 2 2 3 4 5
0 0 0 0 0 0 0 1 2 4 6 11 22 36 50 61 64 61 51 43 43 48 50 51 55 59 57 55 56 58 55 49 45 41 35 27 19 15 13 10 8 8 7 4 3 4 5 5 5
0 0 0 0 0 0 0 2 3 4 6 10 21 36 49 55 54 48 41 36 35 41 45 47 51 53 52 54 56 57 52 45 40 35 30 23 17 13 11 11 11 10 8 6 4 4 5 4 3
0 0 0 0 0 0 1 2 3 5 8 16 28 39 46 46 44 40 39 36 33 34 38 42 45 46 47 50 52 51 46 39 32 26 22 18 13 9 9 9 10 9 8 7 5 4 3 2 2
0 0 0 0 0 0 1 2 2 5 10 18 28 36 38 36 35 36 35 33 31 30 33 36 38 38 39 41 43 40 35 30 25 19 15 13 9 6 6 6 6 6 5 5 5 4 2 1 1
0 0 0 0 0 0 1 1 1 4 10 16 22 28 31 30 30 31 30 27 26 28 29 30 31 30 30 31 32 29 24 20 18 14 10 8 7 5 3 3 3 2 2 2 2 2 1 0 0
0 0 0 0 0 0 0 0 1 4 11 17 20 23 26 26 25 24 22 18 20 23 24 23 23 22 21 21 21 19 15 13 12 8 4 3 4 4 3 2 1 0 0 0 0 1 1 0 0
0 0 0 0 0 0 0 0 2 5 11 18 21 22 23 22 20 17 14 13 15 17 17 15 14 13 12 13 14 13 11 9 6 3 1 1 4 5 4 2 0 0 0 0 0 1 1 0 0
0 0 0 0 0 0 0 0 2 5 11 17 21 22 21 20 16 12 9 10 12 13 12 10 8 8 8 10 10 9 7 5 3 1 0 1 4 6 6 4 1 0 0 0 0 0 0 0 0
0 0 0 0 0 0 0 1 2 5 9 14 17 19 18 16 13 9 7 8 9 9 8 8 7 7 7 8 7 6 5 3 1 0 0 0 2 5 6 5 2 1 2 1 0 0 0 0 0
0 0 0 0 0 0 0 1 2 5 8 11 12 13 12 11 10 7 6 6 6 5 6 6 5 5 5 5 4 3 3 1 0 0 0 0 1 3 4 4 3 2 2 1 0 0 0 0 0
0 0 0 0 0 0 0 0 1 5 8 9 7 6 7 8 7 5 5 5 3 2 3 3 3 3 3 3 3 2 1 0 0 0 1 1 1 2 3 2 3 2 1 1 0 0 0 0 0
0 0 0 0 0 0 0 0 0 3 6 7 5 4 4 5 5 4 4 3 2 1 1 1 1 1 1 1 2 2 1 0 0 0 1 1 1 1 2 3 2 1 0 0 0 0 0 0 0
0 0 0 0 0 0 0 0 0 1 3 3 3 3 4 4 3 4 3 3 3 1 0 0 0 0 0 0 1 1 1 0 0 0 1 1 0 1 2 3 2 1 0 0 0 0 0 0 0
0 0 0 0 0 0 0 0 0 0 1 1 1 1 2 3 3 3 3 3 3 2 0 0 0 0 0 0 0 0 0 0 0 0 0 0 0 1 2 3 2 1 0 0 0 0 0 0 0
0 0 0 0 0 0 0 0 0 0 0 0 0 0 1 1 1 2 3 3 2 1 0 0 0 0 0 0 0 0 0 0 0 0 0 0 0 1 1 2 2 1 0 0 0 0 0 0 0
0 0 0 0 0 0 0 0 0 0 0 0 0 0 0 0 0 1 2 2 1 0 0 0 0 0 0 0 0 0 0 0 0 0 0 0 0 0 0 1 1 0 0 0 0 0 0 0 0
0 0 0 0 0 0 0 0 0 0 0 0 0 0 0 0 0 0 1 1 0 0 0 0 0 0 0 0 0 0 0 0 0 0 0 0 0 0 0 0 0 0 0 0 0 0 0 0 0
0 0 0 0 0 0 0 0 0 0 0 0 0 0 0 0 0 0 0 0 0 0 0 0 0 0 0 0 0 0 0 0 0 0 0 0 0 0 0 0 0 0 0 0 0 0 0 0 0
0 0 0 0 0 0 0 0 0 0 0 0 0 0 0 0 0 0 0 0 0 0 0 0 0 0 0 0 0 0 0 0 0 0 0 0 0 0 0 0 0 0 0 0 0 0 0 0 0
0 0 0 0 0 0 0 0 0 0 0 0 0 0 0 0 0 0 0 0 0 0 0 0 0 0 0 0 0 0 0 0 0 0 0 0 0 0 0 0 0 0 0 0 0 0 0 0 0

GEFSSGP_con_prob3kmehi_114.txt.gz
EHI
0 0 0 0 0 0 0 0 0 0 1 3 4 3 3 4 2 0 4 14 29 44 46 39 40 43 45 53 63 68 69 70 73 73 71 65 56 47 41 35 28 22 17 15 13 11 9 6 3
0 0 0 0 0 0 0 0 0 0 1 2 4 5 5 6 4 3 7 17 31 42 44 42 43 45 48 58 66 71 73 75 79 82 80 72 63 56 48 39 30 24 19 14 10 9 9 7 6
0 0 0 0 0 0 0 0 0 0 0 1 3 6 8 8 9 10 16 24 33 38 40 45 48 47 51 60 69 75 78 81 85 87 85 78 69 64 57 44 31 22 16 11 7 6 7 8 9
0 0 0 0 0 0 0 0 0 0 0 1 3 6 11 13 15 19 27 31 32 32 34 42 48 49 53 60 70 76 79 82 83 83 82 77 71 65 58 45 29 18 12 7 5 5 6 9 11
0 0 0 0 0 0 0 0 0 0 1 3 5 10 18 22 24 28 33 33 30 28 31 37 43 47 53 61 69 75 78 79 79 79 76 73 67 62 55 43 30 20 13 9 7 8 10 12 13
0 0 0 0 0 0 0 0 0 1 3 4 7 15 27 33 33 32 30 28 26 26 31 34 33 36 45 57 67 75 79 78 77 76 73 66 60 56 50 41 32 24 17 12 11 13 14 12 11
0 0 0 0 0 0 0 0 1 3 5 8 11 20 34 43 40 33 28 27 25 26 31 31 26 26 33 46 59 70 76 77 76 74 69 62 54 48 43 36 30 25 20 14 12 12 12 10 8
0 0 0 0 0 0 0 0 2 5 11 18 23 30 44 52 47 38 33 31 29 29 31 31 27 24 26 34 45 57 65 70 71 68 62 53 43 34 29 28 27 25 19 14 11 10 10 9 7
0 0 0 0 0 0 0 1 2 6 15 29 40 46 55 59 55 47 42 40 37 33 32 33 33 30 27 31 39 45 49 53 55 54 48 38 27 19 17 23 29 24 17 13 11 11 9 7 5
0 0 0 0 0 0 0 1 2 5 15 31 45 50 54 57 55 51 48 45 42 37 34 35 37 35 31 35 41 41 40 41 39 38 35 29 24 17 15 24 29 22 14 11 12 12 8 5 4
0 0 0 0 0 0 0 2 3 6 16 29 40 43 45 47 48 46 45 43 40 38 35 36 39 38 35 37 40 39 40 40 36 34 34 34 33 28 25 28 28 22 15 12 14 13 7 4 3
0 0 0 0 0 0 2 4 7 10 18 27 34 37 38 39 39 37 35 35 36 35 34 37 44 46 44 41 38 37 39 39 36 34 34 35 35 34 35 35 32 29 25 23 24 21 13 7 5
0 0 0 0 0 1 3 6 9 13 18 24 29 34 35 34 32 30 28 28 31 32 33 39 48 53 53 49 42 37 37 35 32 30 28 27 29 34 38 39 39 36 35 35 34 32 24 15 11
0 0 0 0 0 1 2 5 8 11 15 20 24 27 30 30 30 30 28 27 29 31 33 38 45 51 52 47 41 38 38 36 32 27 25 25 27 31 33 35 38 38 37 36 35 35 31 23 18
0 0 0 0 0 0 1 3 6 10 13 17 19 21 25 29 32 32 29 29 30 31 32 33 36 40 42 39 33 32 36 37 33 28 25 24 25 27 27 28 31 32 31 31 31 32 31 26 21
0 0 0 0 0 0 0 2 5 8 12 15 16 18 22 28 30 31 30 30 29 28 27 27 26 28 33 34 29 28 32 32 28 25 22 20 21 23 24 24 24 24 25 25 25 27 28 25 21
0 0 0 0 0 0 1 3 5 7 9 14 16 18 22 24 24 26 29 29 26 21 19 19 19 20 24 26 27 27 28 26 22 19 17 16 16 17 18 18 17 18 20 20 19 21 23 22 20
0 0 0 0 0 0 1 5 7 7 8 11 14 18 21 21 19 19 21 22 20 16 16 17 18 18 17 18 21 22 22 20 17 15 12 12 11 9 9 10 11 14 16 16 16 16 17 17 17
0 0 0 0 0 0 2 5 7 7 6 8 11 16 19 17 14 14 16 17 16 15 15 18 19 17 15 14 14 15 14 13 12 9 6 5 4 3 3 5 8 11 14 14 14 13 12 12 12
0 0 0 0 0 1 2 4 5 5 6 7 9 13 16 15 13 13 14 15 14 11 11 14 15 14 13 13 12 10 8 7 6 4 2 1 1 1 1 4 7 10 11 11 10 9 7 7 7
0 0 0 0 0 1 2 2 2 3 5 8 9 12 15 15 14 12 12 10 8 6 5 7 9 11 11 10 9 8 6 4 4 2 1 0 0 0 1 3 6 9 10 9 7 6 5 4 5
0 0 0 0 0 0 1 1 1 2 4 6 8 10 13 15 13 10 7 4 2 2 3 4 6 8 8 7 6 6 6 5 4 3 1 1 0 0 1 3 5 7 8 7 6 6 5 3 2
0 0 0 0 0 0 0 0 1 1 2 4 7 9 11 12 10 7 4 2 1 2 3 3 5 6 6 5 5 5 5 4 4 2 1 0 0 0 1 2 3 4 6 6 5 5 5 3 2
0 0 0 0 0 0 0 0 1 1 1 3 7 9 9 8 7 4 2 1 1 2 3 3 3 5 5 5 5 5 4 2 2 1 0 0 0 0 1 1 2 2 4 4 4 4 3 3 3
0 0 0 0 0 0 0 0 0 1 1 3 8 10 9 6 5 3 1 0 1 2 2 2 2 3 4 4 4 3 2 1 0 0 0 0 0 0 1 2 2 3 3 3 3 2 2 2 2
0 0 0 0 0 0 0 0 0 1 2 3 7 10 8 5 3 1 0 0 0 1 1 1 0 1 2 2 2 2 1 0 0 0 0 0 1 1 1 3 3 3 3 3 3 1 0 1 1
0 0 0 0 0 0 0 0 0 1 2 3 5 6 5 3 1 0 0 0 0 0 0 0 0 0 1 1 1 1 1 0 0 0 0 0 1 2 2 2 3 3 3 3 2 1 0 0 0
0 0 0 0 0 0 0 0 0 1 2 3 3 3 3 1 0 0 0 0 0 0 0 0 0 0 0 0 0 0 0 0 0 0 0 0 1 1 1 1 1 2 2 2 1 0 0 0 0
0 0 0 0 0 0 0 0 0 1 3 4 3 3 2 1 0 0 0 0 0 0 0 0 0 0 0 0 0 0 0 0 0 0 0 0 0 0 0 0 0 1 1 1 0 0 0 0 0
0 0 0 0 0 0 0 0 1 2 4 4 3 3 2 1 0 0 0 0 0 0 0 0 0 0 0 0 0 0 0 0 0 0 0 0 0 0 0 0 0 0 0 0 0 0 0 0 0

GEFSSGP_con_prob3kmehi_120.txt.gz
EHI
0 0 0 0 0 0 0 0 0 0 0 1 1 4 10 13 8 6 17 46 69 65 50 44 38 25 13 7 4 2 0 0 0 0 0 0 1 3 5 8 9 7 6 4 2 1 2 2 3
0 0 0 0 0 0 0 0 0 0 0 0 2 7 12 13 11 13 29 55 66 55 43 42 40 29 16 9 6 3 1 0 0 0 0 1 3 5 7 9 8 7 7 6 4 2 1 1 2
0 0 0 0 0 0 0 0 0 0 0 1 4 11 16 16 17 25 44 61 58 45 39 43 43 34 22 14 10 6 3 1 1 1 0 2 6 8 9 9 7 6 7 6 4 1 0 0 1
0 0 0 0 0 0 0 0 0 0 0 2 8 17 24 25 26 35 49 55 49 41 39 41 44 37 26 21 16 10 7 7 7 6 6 9 13 14 11 8 6 5 4 3 2 1 0 0 0
0 0 0 0 0 0 0 0 0 0 1 5 14 26 33 35 34 36 42 43 41 41 39 40 45 40 30 26 23 20 19 20 21 20 20 22 25 23 15 8 5 3 1 1 1 1 0 0 0
0 0 0 0 0 0 0 0 0 0 3 9 21 33 38 38 33 28 28 31 38 43 39 37 41 39 35 32 32 34 36 38 39 38 35 33 32 28 21 12 6 2 1 1 1 1 1 0 0
0 0 0 0 0 0 0 0 0 1 4 12 24 36 40 38 28 20 20 28 39 41 32 26 27 29 31 34 38 44 50 53 52 49 45 40 33 28 22 16 10 5 3 2 2 2 1 1 0
0 0 0 0 0 0 0 0 1 4 8 15 25 35 41 38 28 23 25 32 40 37 26 17 15 17 17 22 33 43 49 53 53 49 48 42 31 22 18 16 15 11 6 4 2 1 2 2 1
0 0 0 0 0 0 0 0 1 6 12 20 27 34 40 36 31 33 37 39 41 38 27 17 15 14 11 13 26 35 37 40 43 44 43 37 25 17 14 18 22 18 10 6 3 2 3 2 1
0 0 0 0 0 0 0 1 3 9 17 25 30 36 38 36 36 42 45 45 47 44 32 24 23 21 19 20 27 30 29 31 34 35 35 28 20 17 20 29 35 27 14 8 5 3 2 2 1
0 0 0 0 0 0 1 3 8 14 22 28 33 38 41 41 43 47 51 51 51 47 38 34 34 32 33 34 31 30 30 29 29 29 27 22 19 21 29 40 43 33 18 10 7 5 2 1 2
0 0 0 0 0 1 3 6 11 20 25 28 33 37 40 43 44 48 51 52 50 45 41 42 45 46 48 47 40 36 36 32 29 29 26 22 22 25 33 41 40 30 19 12 9 6 3 3 3
0 0 0 0 0 1 4 7 12 19 23 24 29 34 37 38 40 44 47 49 49 45 44 48 55 58 60 59 53 47 43 37 34 33 30 27 28 30 35 39 36 26 19 15 10 7 7 7 5
0 0 0 0 0 2 5 7 10 14 17 20 25 32 35 35 38 43 46 49 50 50 49 53 60 64 64 63 59 53 47 41 39 38 35 34 35 35 38 39 34 27 23 20 14 11 13 13 10
0 0 0 0 0 1 4 7 7 9 12 16 22 30 36 39 42 46 48 50 52 53 54 55 57 59 60 58 55 51 47 44 43 42 39 37 36 37 37 35 31 27 26 23 17 13 16 16 14
0 0 0 0 0 0 3 6 7 7 10 15 20 28 36 41 44 46 47 49 51 54 55 54 51 54 54 51 47 46 45 44 44 42 39 34 32 33 33 32 29 26 24 20 15 13 14 14 12
0 0 0 0 0 0 2 7 8 8 12 16 21 27 34 39 42 43 43 44 46 49 51 50 49 50 50 47 44 44 43 43 42 39 33 28 26 27 29 30 28 24 21 17 13 12 11 9 8
0 0 0 0 0 0 2 5 8 9 12 18 23 29 33 36 38 37 35 36 38 41 42 42 43 46 47 47 46 44 41 42 40 34 28 24 23 24 26 27 26 22 19 16 14 12 10 8 7
0 0 0 0 0 0 1 3 6 8 12 18 26 33 36 36 34 31 28 29 31 33 34 33 36 40 44 46 47 43 39 38 35 29 25 23 23 22 20 21 22 20 17 15 14 12 10 8 7
0 0 0 0 0 0 1 2 5 9 13 19 27 35 39 36 31 26 24 23 24 26 27 28 31 35 39 41 41 39 35 31 27 24 21 21 20 16 14 16 17 16 16 13 11 10 9 7 6
0 0 0 0 0 0 0 2 7 12 15 17 23 32 37 35 29 25 22 19 18 20 22 24 26 29 32 33 33 34 32 26 22 19 17 17 13 10 11 11 10 11 11 11 10 10 9 6 4
0 0 0 0 0 0 0 1 8 16 18 16 19 26 33 33 31 26 20 16 14 14 16 17 19 22 25 27 29 30 29 24 19 17 16 13 9 7 7 6 5 5 6 7 9 9 8 5 3
0 0 0 0 0 0 0 1 8 18 20 18 19 26 30 33 32 25 16 11 10 9 9 10 12 15 17 20 24 24 22 18 15 14 14 11 7 5 4 3 3 3 4 5 6 7 7 5 3
0 0 0 0 0 0 0 1 7 15 18 20 26 29 30 29 28 20 11 7 6 5 5 6 7 8 11 13 16 16 15 13 13 12 11 8 5 3 2 3 3 3 3 3 4 5 5 5 4
0 0 0 0 0 0 0 3 9 15 19 25 31 31 28 25 21 14 7 4 4 3 3 4 4 4 6 8 9 10 10 10 10 8 7 5 2 1 2 3 3 3 3 3 3 4 4 4 4
0 0 0 0 0 0 0 4 11 16 21 27 32 30 25 20 15 8 4 2 2 2 2 2 2 2 3 4 5 5 5 5 5 4 3 1 0 1 2 3 3 3 3 3 3 3 4 4 5
0 0 0 0 0 0 1 4 9 14 19 26 28 25 21 16 9 4 2 1 1 0 1 1 1 1 1 1 2 1 1 1 1 1 0 0 0 0 1 3 3 3 3 3 3 3 3 4 4
0 0 0 0 0 0 1 2 4 9 17 23 22 19 16 10 4 2 0 0 0 0 0 0 0 0 0 0 0 0 0 0 0 0 0 0 0 0 1 2 2 1 1 2 3 3 3 2 2
0 0 0 0 0 0 0 1 2 8 17 21 17 13 10 6 1 0 0 0 0 0 0 0 0 0 0 0 0 0 0 0 0 0 0 0 0 0 0 1 1 0 0 1 1 2 1 1 1
0 0 0 0 0 0 0 1 2 8 16 19 16 10 7 4 1 0 0 0 0 0 0 0 0 0 0 0 0 0 0 0 0 0 0 0 0 0 0 0 0 0 0 0 0 1 0 0 0

GEFSSGP_con_prob3kmehi_126.txt.gz
EHI
0 0 0 0 0 0 0 0 0 0 2 7 15 24 29 25 17 9 5 17 39 52 51 53 58 54 42 31 23 17 13 12 11 10 14 19 20 17 13 12 12 9 5 3 3 2 1 0 0
0 0 0 0 0 0 0 0 0 1 4 9 18 29 34 31 23 13 9 24 48 55 50 52 59 58 48 35 25 17 13 11 8 5 7 11 13 11 7 6 6 5 3 2 2 1 0 0 0
0 0 0 0 0 0 0 0 1 3 8 14 24 34 36 30 23 17 19 36 56 60 52 53 62 62 54 41 27 18 13 10 6 2 1 3 5 4 2 1 1 1 1 1 1 0 0 0 0
0 0 0 0 0 0 0 0 1 5 12 22 33 39 36 28 24 26 32 45 60 63 57 57 64 65 56 43 29 20 13 8 5 3 2 1 1 2 2 2 1 0 0 0 0 0 0 0 0
0 0 0 0 0 0 0 0 2 7 16 29 40 43 38 32 34 40 44 50 60 66 62 60 64 63 56 43 32 23 14 7 4 3 3 2 2 3 5 5 3 2 0 0 0 0 0 0 0
0 0 0 0 0 0 0 1 4 12 22 31 39 43 39 36 40 44 48 51 59 65 62 58 60 60 54 45 37 28 20 13 7 4 4 4 4 6 8 8 6 4 1 0 0 0 0 0 0
0 0 0 0 0 0 0 2 7 17 26 31 37 41 40 36 37 42 49 53 57 59 58 53 53 54 49 44 39 33 26 20 13 8 7 7 7 8 8 9 8 5 2 1 0 1 1 0 0
0 0 0 0 0 0 0 4 13 21 25 29 34 39 38 35 37 44 52 54 52 50 47 43 43 43 39 37 38 34 30 25 18 13 12 12 9 7 7 9 9 7 3 1 1 2 2 1 0
0 0 0 0 0 1 2 7 16 22 24 27 33 37 38 37 41 48 50 47 43 36 31 30 32 32 29 29 32 32 29 25 19 14 13 12 7 4 4 7 9 7 5 2 1 2 3 2 1
0 0 0 0 0 2 5 10 16 21 23 27 34 39 40 41 43 45 42 37 32 26 20 18 19 20 21 23 25 24 20 18 15 11 11 8 4 3 3 4 6 6 5 4 3 3 3 2 1
0 0 0 0 1 3 8 11 16 20 22 26 34 38 38 38 38 36 32 28 26 22 17 13 10 10 13 16 16 13 10 10 9 9 9 6 2 2 2 2 2 2 3 3 3 3 2 2 1
0 0 0 1 2 6 9 11 13 17 20 24 31 34 32 30 30 27 23 21 21 19 17 13 9 7 8 9 9 7 6 7 7 7 7 4 1 1 1 1 0 0 0 1 2 1 1 1 0
0 0 2 4 6 7 9 9 10 14 18 23 29 30 27 24 25 24 20 17 16 15 16 15 12 9 8 8 8 7 7 8 7 4 3 3 1 1 0 0 0 0 0 0 0 0 0 1 1
0 0 2 4 6 6 7 7 9 12 16 22 27 27 24 23 24 24 21 17 15 15 16 15 13 11 11 10 10 10 9 8 7 5 3 2 2 1 0 0 0 1 1 0 0 0 0 1 2
0 0 1 2 2 3 5 6 8 12 16 21 25 25 22 22 22 22 21 18 17 17 16 14 11 10 11 12 12 13 12 10 10 9 7 6 4 2 0 0 0 1 1 0 0 0 0 1 1
0 0 0 0 0 1 3 5 7 13 19 23 24 23 21 19 17 17 19 19 17 15 13 11 9 10 13 16 17 17 16 14 13 11 9 8 5 2 1 0 0 1 1 0 0 0 0 0 0
0 0 0 0 0 1 3 5 9 16 23 25 23 21 20 18 14 14 18 19 16 12 11 9 11 14 18 20 22 21 20 17 14 11 9 8 6 3 2 1 0 0 0 0 0 0 0 0 0
0 0 0 0 1 3 4 8 14 20 23 25 24 22 21 19 15 13 17 17 14 12 11 11 13 16 18 19 21 21 20 16 12 9 8 7 5 4 4 3 1 0 0 0 0 0 0 0 0
0 0 0 1 2 5 9 12 16 19 22 23 24 22 20 19 16 14 14 14 13 13 12 13 13 13 12 13 15 15 14 11 8 6 6 5 5 5 5 3 1 0 0 0 0 0 0 0 0
0 0 0 1 4 9 13 14 14 16 18 20 20 19 17 16 15 13 11 11 12 11 11 12 12 11 9 9 11 10 9 7 5 4 4 4 4 4 3 2 1 0 0 0 0 0 0 0 0
0 0 0 1 4 8 11 11 10 12 16 18 17 16 14 13 12 12 10 9 9 8 8 9 9 9 9 10 10 9 8 6 5 5 5 5 4 3 2 1 1 1 1 1 1 1 1 0 0
0 0 0 1 2 3 4 5 6 10 15 16 16 15 13 12 11 9 8 7 6 5 6 6 6 7 8 10 9 9 8 6 5 5 5 4 3 2 1 1 1 1 2 2 2 2 2 1 1
0 0 0 0 0 0 0 1 3 8 12 14 13 13 13 12 10 7 5 4 3 4 5 5 5 5 6 7 7 6 5 4 3 3 2 1 1 1 0 0 0 1 1 2 3 3 3 3 2
0 0 0 0 0 0 0 0 1 3 6 9 10 10 11 10 7 5 3 2 2 3 4 5 4 3 3 3 4 4 3 3 2 1 0 0 0 0 0 0 0 0 0 1 2 3 3 3 3
0 0 0 0 0 0 0 0 0 0 3 5 6 7 8 8 6 3 1 1 2 3 3 3 3 2 1 1 2 2 2 2 1 0 0 0 0 0 0 0 0 0 0 0 1 2 2 3 3
0 0 0 0 0 0 0 0 1 1 3 5 5 5 5 5 4 1 0 0 1 2 2 1 1 1 0 0 1 1 1 1 0 0 0 0 0 0 0 0 0 0 0 0 0 1 1 1 2
0 0 0 0 0 0 0 0 1 3 5 6 6 5 3 2 1 0 0 0 1 1 1 0 0 0 0 0 0 0 0 0 0 0 0 0 0 0 0 0 0 0 0 0 0 0 0 0 1
0 0 0 0 0 0 0 0 1 3 6 6 5 4 3 1 0 0 0 0 0 0 0 0 0 0 0 0 0 0 0 0 0 0 0 0 0 0 0 0 0 0 0 0 0 0 0 0 0
0 0 0 0 0 0 0 0 1 3 5 5 4 3 2 1 0 0 0 0 0 0 0 0 0 0 0 0 0 0 0 0 0 0 0 0 0 0 0 0 0 0 0 0 0 0 0 0 0
0 0 0 0 0 0 0 0 0 2 4 4 3 2 1 0 0 0 0 0 0 0 0 0 0 0 0 0 0 0 0 0 0 0 0 0 0 0 0 0 0 0 0 0 0 0 0 0 0

GEFSSGP_con_prob3kmehi_132.txt.gz
EHI
0 0 0 0 0 0 0 0 0 0 2 4 6 8 10 8 4 2 4 16 32 38 29 23 30 43 55 62 67 69 69 67 66 68 66 56 42 34 28 18 12 9 7 6 4 4 2 1 0
0 0 0 0 0 0 0 0 0 1 3 6 10 12 13 11 6 4 6 17 34 38 29 26 34 46 55 62 65 65 64 62 59 58 56 47 35 29 24 18 13 11 9 8 6 4 3 2 1
0 0 0 0 0 0 0 0 0 2 5 8 11 15 15 11 8 8 13 26 39 38 29 31 40 50 57 62 62 60 57 52 48 45 42 35 28 25 22 19 15 12 11 10 8 7 6 5 3
0 0 0 0 0 0 0 0 0 2 5 8 12 15 16 12 10 16 26 39 47 40 31 35 44 53 59 62 60 55 51 46 41 37 32 28 24 21 20 18 14 11 10 9 9 8 9 8 6
0 0 0 0 0 0 0 0 0 2 5 10 16 20 21 18 20 30 39 47 49 43 36 40 48 56 59 61 58 52 46 44 39 32 27 24 19 15 16 14 11 9 9 8 8 8 8 9 9
0 0 0 0 0 0 0 0 0 1 4 12 21 27 28 28 34 41 45 46 46 43 42 45 52 57 60 60 56 49 43 41 38 31 25 20 16 13 13 12 9 8 8 8 7 6 7 8 9
0 0 0 0 0 0 0 0 1 3 7 15 24 31 33 36 42 46 46 45 43 43 44 48 52 57 59 58 52 45 39 37 35 30 23 19 17 15 13 11 8 6 6 6 5 6 6 7 7
0 0 0 0 0 0 0 1 3 7 13 19 23 29 33 38 43 45 44 42 40 39 42 47 50 53 56 55 49 40 34 32 29 23 18 17 16 13 12 11 8 5 3 3 4 4 5 6 7
0 0 0 0 0 0 0 1 5 10 17 22 24 28 33 38 41 42 43 41 37 34 35 41 46 48 50 51 45 36 29 25 21 15 11 11 10 8 9 10 9 6 4 4 5 5 3 3 4
0 0 0 0 0 0 0 1 3 10 17 22 28 34 38 38 37 37 39 38 35 29 28 32 37 39 41 41 38 31 25 20 16 11 8 6 5 4 4 6 6 6 6 6 6 5 3 1 1
0 0 0 0 0 0 0 0 1 6 12 18 28 36 37 36 33 31 30 29 28 25 23 23 26 28 29 29 28 25 20 15 12 9 6 4 3 3 2 2 2 3 3 4 3 3 2 1 1
0 0 0 0 0 0 1 1 2 4 6 13 24 32 31 29 27 23 20 19 19 19 18 18 18 19 20 20 18 15 12 9 8 7 5 4 3 2 1 0 0 0 1 1 1 1 1 1 0
0 0 0 0 0 1 2 3 3 4 5 11 20 26 26 23 20 16 15 15 15 13 13 14 15 15 14 13 10 8 7 7 6 5 4 3 3 2 0 0 0 0 0 0 0 0 0 0 0
0 0 0 0 0 1 2 3 3 3 6 12 16 20 21 19 16 13 13 14 12 10 9 9 10 9 7 6 6 6 6 6 5 4 2 1 2 2 1 0 0 0 0 0 0 0 0 0 0
0 0 0 1 1 0 1 2 2 3 6 11 13 15 16 14 12 10 10 10 9 8 6 4 4 3 2 2 5 5 4 3 4 3 1 1 2 2 1 0 0 0 0 0 0 0 0 0 0
0 0 0 1 2 1 0 1 3 4 7 10 11 11 11 9 7 5 5 6 6 5 3 2 2 1 0 1 3 3 2 1 2 2 1 0 1 1 0 0 0 0 0 0 0 0 0 0 0
0 0 0 1 1 1 1 2 5 6 7 10 11 11 9 6 4 3 1 3 4 4 2 1 1 1 0 1 1 1 0 0 1 1 0 0 0 0 0 0 0 0 0 0 0 0 0 0 0
0 0 0 0 1 1 2 4 7 8 9 10 12 12 10 6 4 2 1 2 3 2 1 1 1 0 0 1 0 0 0 0 0 0 0 0 0 0 0 0 0 0 0 0 0 0 0 0 0
0 0 0 1 2 2 2 4 7 9 9 10 12 13 11 7 5 3 3 4 4 1 0 1 1 0 0 0 0 0 0 0 0 0 0 0 0 0 0 0 0 0 0 0 0 0 0 0 0
0 0 0 2 3 2 1 3 6 7 9 10 12 11 9 8 6 5 5 6 4 2 0 0 0 0 0 0 0 0 0 0 0 0 0 0 0 0 0 0 0 0 0 0 0 0 0 0 0
0 0 0 1 1 1 1 2 3 6 8 10 10 8 7 8 8 7 6 5 4 2 1 1 1 0 0 0 0 0 0 1 1 1 0 0 0 0 0 0 0 0 0 0 0 0 0 0 0
0 0 0 0 0 0 0 0 1 3 6 7 7 6 6 8 9 8 6 5 3 3 3 3 2 1 0 0 0 0 0 1 2 2 0 0 0 0 0 0 0 0 0 0 0 0 0 1 1
0 0 0 0 0 0 0 0 0 1 3 4 5 6 7 8 8 8 6 4 3 3 3 4 4 3 1 1 1 1 1 2 2 1 0 0 0 0 0 0 0 0 0 0 0 0 0 1 2
0 0 0 0 0 0 0 0 0 1 2 3 4 5 6 7 6 6 4 4 3 3 3 3 4 3 3 2 2 2 2 2 1 0 0 0 0 0 0 0 0 0 0 0 0 0 0 1 1
0 0 0 0 0 0 0 0 0 0 1 2 3 3 4 4 5 4 3 3 3 3 3 3 3 3 3 3 2 1 1 1 0 0 0 0 0 0 0 0 0 0 0 0 0 0 0 0 0
0 0 0 0 0 0 0 0 0 0 0 1 2 3 3 4 4 3 1 1 2 3 3 3 3 3 2 1 1 0 0 0 0 0 0 0 0 0 0 0 0 0 0 0 0 0 0 0 0
0 0 0 0 0 0 0 0 0 0 0 0 1 3 4 4 3 1 0 0 1 2 2 2 2 1 1 0 0 0 0 0 0 0 0 0 0 0 0 0 0 0 0 0 0 0 0 0 0
0 0 0 0 0 0 0 0 0 0 0 1 2 3 3 3 2 0 0 0 0 0 0 1 1 0 0 0 0 0 0 0 0 0 0 0 0 0 0 0 0 0 0 0 0 0 0 0 0
0 0 0 0 0 0 0 0 0 0 1 2 3 3 2 1 0 0 0 0 0 0 0 0 0 0 0 0 0 0 0 0 0 0 0 0 0 0 0 0 0 0 0 0 0 0 0 0 0
0 0 0 0 0 0 0 0 0 0 1 3 4 3 1 0 0 0 0 0 0 0 0 0 0 0 0 0 0 0 0 0 0 0 0 0 0 0 0 0 0 0 0 0 0 0 0 0 0

GEFSSGP_con_prob3kmehi_138.txt.gz
EHI
0 0 0 0 0 0 0 0 0 0 0 0 1 2 3 3 1 0 3 8 14 15 10 7 9 17 31 46 58 66 67 64 58 49 39 32 27 24 20 15 10 7 5 3 2 1 2 3 3
0 0 0 0 0 0 0 0 0 0 0 1 2 4 4 2 1 1 5 12 15 13 9 7 9 17 30 43 54 62 64 61 57 50 40 31 26 24 21 16 11 8 6 4 1 1 2 3 3
0 0 0 0 0 0 0 0 1 1 1 1 4 5 4 2 1 4 11 16 15 10 7 8 11 17 28 41 52 58 60 58 56 50 39 28 24 22 20 16 11 8 7 5 2 1 3 3 3
0 0 0 0 0 0 0 0 2 2 1 2 5 7 6 4 5 13 20 19 14 8 5 8 12 16 24 38 51 57 57 55 52 45 36 27 22 20 18 15 11 8 6 5 3 3 3 3 2
0 0 0 0 0 0 0 0 1 2 1 2 5 8 10 12 15 22 23 18 12 8 6 10 14 16 22 35 48 54 53 50 46 40 35 29 23 19 17 13 9 7 5 4 3 3 2 1 1
0 0 0 0 0 0 0 0 1 1 1 3 6 10 15 22 26 25 20 14 10 9 10 12 13 15 21 33 44 49 49 47 44 40 36 32 25 19 15 11 8 7 6 4 3 2 1 1 1
0 0 0 0 0 0 0 0 1 1 1 3 6 10 19 31 35 29 22 16 13 12 14 13 10 10 17 28 39 43 43 43 41 37 33 29 23 17 11 7 6 6 5 3 2 1 1 2 2
0 0 0 0 0 0 0 1 3 4 5 7 11 16 28 42 45 39 33 27 22 19 19 17 11 9 12 19 27 32 33 31 29 26 23 19 16 12 7 5 6 5 3 2 1 1 1 2 2
0 0 0 0 0 0 0 1 5 8 12 14 18 27 42 53 54 49 44 37 32 29 27 23 18 14 13 15 19 21 20 17 15 14 13 10 8 6 5 7 8 6 3 1 1 2 2 2 2
0 0 0 0 0 0 1 2 5 10 14 16 21 34 49 53 52 48 44 38 35 34 32 26 22 20 19 20 23 21 17 15 11 9 8 7 7 5 6 9 8 5 3 2 2 3 2 1 1
0 0 0 0 0 1 2 3 7 12 14 12 17 31 42 42 39 37 35 33 32 30 28 25 24 23 23 26 30 29 24 21 15 10 9 10 10 9 7 7 6 4 3 3 3 3 1 0 0
0 0 0 0 0 1 2 4 11 17 15 9 13 25 33 33 31 29 28 28 27 24 22 22 24 25 26 30 33 31 27 23 19 15 12 11 11 8 6 7 7 5 4 4 4 3 1 0 0
1 1 0 0 0 1 3 5 11 17 15 11 15 24 30 30 29 28 26 26 25 23 20 20 23 27 29 31 31 27 23 20 19 18 15 11 8 6 5 7 7 6 4 3 3 3 2 1 1
0 0 0 0 1 1 1 3 6 10 12 14 20 26 28 28 26 25 25 25 25 22 20 19 22 27 31 31 28 24 21 20 20 20 18 13 7 5 7 7 6 4 2 1 2 2 2 2 2
0 0 0 0 1 0 0 1 2 4 8 14 20 24 24 21 18 18 20 22 22 20 18 17 17 21 26 28 25 21 20 22 23 22 20 15 10 9 9 8 6 3 1 0 1 1 2 2 3
0 0 0 0 0 0 0 0 0 1 5 11 16 19 18 14 11 11 14 17 19 17 15 12 11 13 19 24 24 22 21 21 21 20 18 16 14 11 10 9 8 5 2 1 1 2 2 3 3
0 0 0 0 0 0 0 0 0 1 4 8 13 15 14 12 10 10 11 13 14 13 12 10 9 9 13 20 22 22 22 19 16 15 14 14 13 10 9 9 9 8 6 3 2 3 4 4 4
0 0 0 0 0 0 0 0 1 2 5 8 11 13 12 11 11 12 11 12 12 12 11 10 8 8 11 17 19 20 20 15 11 10 10 10 9 8 7 8 8 9 9 7 5 4 5 5 3
0 0 0 0 1 1 1 1 3 5 8 11 12 13 12 10 9 10 11 11 11 11 10 8 6 7 10 13 14 15 14 10 7 6 8 8 8 6 6 5 5 6 7 7 6 5 3 2 1
0 0 0 2 3 3 2 3 4 7 12 14 13 13 13 10 8 9 9 9 8 8 7 5 4 6 7 9 10 9 7 5 4 4 5 6 6 5 5 4 3 3 4 4 3 3 1 0 0
0 0 0 2 3 3 2 3 4 7 10 13 12 11 11 10 9 8 7 6 6 6 5 4 5 5 5 6 6 4 2 2 1 2 2 3 3 3 4 5 4 2 1 1 1 1 0 0 0
0 0 0 1 1 1 1 1 3 5 8 10 10 8 7 8 9 8 6 6 6 6 5 5 6 5 4 4 4 2 1 1 2 3 2 1 1 1 3 4 3 2 1 0 0 0 0 0 0
0 0 0 0 0 0 0 0 1 3 6 9 10 7 5 7 10 10 6 5 5 6 6 5 5 5 4 3 4 4 3 4 5 6 3 1 0 0 1 2 2 1 0 0 0 0 0 0 0
0 0 0 0 0 0 0 0 0 2 4 8 10 8 7 10 13 12 8 5 4 6 5 4 4 4 3 4 5 5 5 7 8 6 3 1 0 0 0 0 1 1 0 0 0 0 0 0 0
0 0 0 0 0 0 0 0 0 1 3 8 11 11 11 13 14 12 9 5 4 4 4 3 3 3 3 3 4 5 6 8 7 4 2 0 0 0 0 0 0 0 0 0 0 0 0 0 0
0 0 0 0 0 0 0 0 0 1 4 7 10 11 13 14 13 10 8 5 3 3 3 3 3 3 3 3 3 4 5 6 5 3 1 0 0 0 0 0 0 0 0 0 0 0 0 0 0
0 0 0 0 0 0 0 0 0 1 3 5 7 10 12 12 10 7 6 4 2 2 2 3 3 3 3 3 3 3 3 3 3 2 1 0 0 0 0 0 0 0 0 0 0 0 0 0 0
0 0 0 0 0 0 0 0 0 0 2 4 6 9 11 10 8 5 3 1 1 1 1 1 3 3 3 3 2 1 1 1 1 1 0 0 0 0 0 0 0 0 0 0 0 0 0 0 0
0 0 0 0 0 0 0 0 0 0 1 3 6 8 9 8 6 4 1 0 0 0 0 1 2 2 2 1 1 0 0 0 0 0 0 0 0 0 0 0 0 0 0 0 0 0 0 0 0
0 0 0 0 0 0 0 0 0 0 1 3 6 7 7 7 6 3 1 0 0 0 0 0 1 1 1 0 0 0 0 0 0 0 0 0 0 0 0 0 0 0 0 0 0 0 0 0 0

GEFSSGP_con_prob3kmehi_144.txt.gz
EHI
0 0 0 0 0 0 0 0 0 0 1 2 7 16 27 29 18 9 19 43 57 45 32 31 33 28 18 12 12 10 7 5 2 0 0 0 1 2 3 3 3 2 1 0 0 0 0 0 0
0 0 0 0 0 0 0 0 1 0 0 2 9 20 27 24 15 12 24 45 53 43 34 35 37 32 23 16 16 15 11 7 4 2 1 1 2 2 2 2 2 2 1 0 0 0 0 0 0
0 0 0 0 0 0 0 1 2 1 1 4 14 26 28 20 13 17 31 44 45 41 40 42 41 36 28 21 18 17 14 11 8 5 3 2 3 3 1 1 1 1 0 0 0 0 0 0 0
0 0 0 0 0 0 0 0 1 2 2 7 19 30 30 22 18 24 32 36 36 37 40 43 44 40 32 25 21 19 17 15 12 8 6 6 5 3 1 0 0 0 1 1 0 0 0 0 0
0 0 0 0 0 0 0 0 0 1 4 12 26 37 33 24 23 26 26 26 27 31 34 38 44 43 38 30 25 23 22 20 18 15 12 11 8 3 0 0 0 1 1 0 0 0 0 0 0
0 0 0 0 0 0 1 1 1 4 8 17 33 43 35 24 22 22 20 20 26 31 30 32 37 39 37 32 27 25 24 22 22 20 17 14 9 3 1 0 0 0 0 0 1 1 1 0 0
0 0 0 0 0 1 2 3 4 8 14 21 32 39 33 25 22 22 22 25 32 35 29 25 25 26 26 27 25 23 21 20 19 17 15 11 6 3 2 1 1 1 0 0 1 2 2 1 1
0 0 0 0 1 2 4 6 10 14 22 31 38 41 40 35 30 31 35 38 42 41 33 24 20 18 18 20 21 20 18 17 15 12 10 8 5 2 3 3 4 3 2 2 3 4 3 2 2
0 0 0 0 1 3 6 9 13 18 30 45 55 57 54 47 42 43 46 48 49 47 40 32 26 20 17 17 18 17 16 15 12 8 6 6 5 4 5 7 10 9 5 4 5 6 4 3 2
0 0 0 1 1 3 6 8 11 18 32 50 63 65 60 54 52 52 52 51 50 48 44 37 32 27 22 19 19 17 15 13 9 6 6 7 7 8 10 16 19 14 8 5 6 6 5 3 2
0 0 0 1 2 4 6 9 14 20 31 45 56 58 53 52 53 54 53 52 50 47 42 38 36 34 31 28 24 21 19 17 12 9 10 9 8 10 17 25 26 18 11 9 8 8 5 4 4
0 0 0 1 1 4 8 15 24 29 34 43 48 46 44 45 48 52 55 55 55 52 46 43 43 44 44 39 31 26 24 23 18 15 16 14 12 13 19 26 26 20 15 14 14 13 8 6 7
0 0 0 0 1 4 9 19 29 34 38 41 41 38 39 42 46 52 57 57 57 56 53 49 48 50 50 45 37 30 29 27 23 22 22 21 19 19 22 25 25 22 19 18 18 16 12 10 10
0 0 0 0 2 4 6 13 23 31 35 37 37 38 41 46 49 53 56 56 55 54 51 47 46 47 48 44 37 30 29 30 28 27 28 26 24 25 25 27 26 23 21 20 18 15 12 11 9
0 0 0 0 1 1 2 7 16 24 28 33 38 42 44 47 48 51 54 54 52 50 46 40 37 39 42 38 31 25 25 28 29 30 30 27 24 25 27 27 26 23 21 21 18 13 10 8 7
0 0 0 0 0 0 0 6 14 19 23 31 38 40 41 43 43 44 46 46 45 44 40 33 29 31 34 31 25 23 25 28 29 30 29 25 21 22 24 26 25 23 22 19 16 13 11 8 6
0 0 0 0 0 0 0 6 14 17 20 29 34 34 37 39 36 33 34 34 34 35 34 29 27 28 28 26 24 24 26 28 28 26 24 20 17 17 20 21 21 21 20 16 13 14 13 10 8
0 0 0 0 0 0 1 5 11 14 19 27 29 29 33 36 32 27 25 24 25 27 27 26 25 26 25 23 22 22 24 24 22 21 18 15 14 14 14 13 14 15 15 13 13 13 13 11 10
0 0 0 0 0 0 2 5 8 12 17 24 27 28 31 33 30 26 23 21 22 22 22 21 21 23 23 22 21 20 19 18 16 15 13 12 12 11 9 7 8 10 11 11 10 9 8 8 8
0 0 0 0 0 0 1 4 7 10 15 22 25 28 30 31 29 26 24 23 22 20 18 17 18 20 20 19 19 19 17 14 11 9 10 9 7 6 5 4 4 7 8 8 7 5 4 4 4
0 0 0 0 0 0 1 4 6 9 15 20 23 26 30 31 31 28 26 24 22 19 16 15 16 17 16 15 15 16 14 10 7 7 7 5 2 2 3 3 3 4 5 6 5 4 2 1 1
0 0 0 0 0 0 0 3 7 12 17 20 22 25 30 33 33 31 28 24 21 18 16 15 14 14 13 12 12 12 10 7 6 6 5 3 1 1 2 3 4 3 3 4 3 2 1 0 0
0 0 0 0 0 0 0 2 7 14 19 20 22 27 33 37 37 33 28 23 18 16 15 14 13 13 13 12 12 11 8 6 6 6 5 3 2 2 2 3 4 3 2 3 2 1 1 1 1
0 0 0 0 0 0 0 2 7 14 19 21 25 31 37 39 37 32 26 21 17 14 14 13 12 12 12 11 11 10 8 6 6 6 6 4 3 3 3 3 3 3 2 2 1 0 1 1 1
0 0 0 0 0 0 0 3 10 15 20 26 29 33 36 36 35 29 23 19 15 13 13 12 11 12 11 11 9 8 7 7 6 6 6 6 4 3 3 3 2 2 1 0 0 0 0 0 0
0 0 0 0 0 0 0 4 11 17 23 30 30 30 32 32 31 26 21 17 14 13 13 12 11 11 10 8 7 6 7 7 7 7 7 6 5 3 2 1 1 1 0 0 0 0 0 0 0
0 0 0 0 0 0 0 3 10 18 24 26 26 27 30 30 26 22 19 16 14 12 11 10 9 7 6 6 4 5 6 7 7 7 6 5 3 2 1 0 0 0 0 0 0 0 0 0 0
0 0 0 0 0 0 0 2 9 17 21 21 22 26 28 26 21 17 15 14 12 10 8 6 4 3 3 4 3 3 4 5 5 4 3 3 2 1 0 0 0 0 0 0 0 0 0 0 0
0 0 0 0 0 0 0 2 7 14 18 19 21 23 23 21 17 14 12 12 9 6 3 2 1 1 1 2 3 3 3 3 2 1 1 1 1 0 0 0 0 0 0 0 0 0 0 0 0
0 0 0 0 0 0 0 2 7 12 16 19 21 21 20 19 17 13 11 10 6 3 1 1 0 0 0 1 3 3 3 3 1 0 0 0 0 0 0 0 0 0 0 0 0 0 0 0 0

GEFSSGP_con_prob3kmehi_150.txt.gz
EHI
0 0 0 0 0 0 0 0 2 5 13 24 35 40 37 24 11 4 4 17 39 45 38 38 42 40 32 22 14 8 4 3 4 7 10 12 15 14 11 10 9 7 4 1 0 0 0 0 1
0 0 0 0 0 0 0 1 4 8 16 32 46 48 40 27 13 4 6 21 43 49 43 42 49 48 39 27 17 11 7 5 5 6 8 9 10 10 9 8 7 6 4 1 0 0 0 1 2
0 0 0 0 0 0 0 2 8 16 28 43 54 53 39 22 11 7 12 29 46 51 45 46 53 56 47 35 25 18 14 9 8 7 6 5 5 7 7 5 4 3 2 0 0 0 0 1 2
0 0 0 0 0 0 0 3 12 27 43 54 58 52 34 18 13 15 22 34 44 46 42 44 53 58 53 43 33 25 21 16 12 10 8 6 5 5 5 4 3 2 1 1 1 0 0 1 2
0 0 0 0 0 0 1 6 20 38 51 57 57 49 32 21 22 25 27 32 38 40 38 41 51 57 55 47 38 31 26 21 17 14 11 8 6 4 3 3 3 2 2 2 1 0 0 0 1
0 0 0 0 0 0 2 11 28 43 49 50 48 41 30 24 27 27 25 28 32 34 33 36 44 49 49 46 40 33 27 22 18 15 12 8 4 3 2 2 2 1 1 1 1 0 0 0 0
0 0 0 0 0 1 4 15 30 40 41 39 35 31 27 26 27 28 26 26 27 27 27 27 29 32 35 37 35 30 24 19 16 13 10 6 3 2 1 2 1 0 0 0 0 0 0 0 0
0 0 0 0 1 3 9 19 29 34 34 32 29 27 29 30 32 35 34 30 25 22 20 18 17 17 18 20 22 21 19 16 12 9 7 4 1 1 1 1 1 1 1 1 0 0 0 0 0
0 0 0 0 1 6 14 25 34 37 36 36 37 36 35 37 42 47 45 38 27 19 15 13 13 13 10 10 12 13 12 11 9 6 5 3 1 0 0 1 2 3 3 1 0 0 0 0 0
0 0 0 0 2 8 18 29 38 43 42 43 47 49 46 45 48 53 50 40 28 19 13 10 11 13 11 9 9 10 10 8 4 2 2 2 1 0 1 2 3 4 3 1 0 1 0 0 0
0 0 1 2 4 10 18 28 36 41 38 38 46 52 51 47 46 47 43 36 26 20 15 11 10 10 9 8 8 8 8 6 2 0 1 1 0 0 1 1 2 2 2 1 0 0 0 0 0
0 0 1 2 5 11 20 29 34 33 27 30 40 49 50 48 44 40 37 34 29 24 18 13 9 7 6 6 6 6 6 4 2 1 1 0 0 0 0 0 0 1 1 1 0 0 0 0 0
0 0 1 1 4 12 25 32 31 29 27 32 41 47 48 48 44 40 37 35 33 27 20 16 12 9 9 9 9 8 7 5 3 2 3 1 0 0 0 0 0 0 1 1 0 0 0 0 0
0 0 0 1 3 14 27 32 29 30 33 39 44 47 47 45 43 41 38 35 32 28 22 20 17 14 12 11 10 10 10 7 5 4 4 3 1 1 1 0 0 0 0 0 0 0 0 0 0
0 0 0 0 2 10 22 27 25 29 37 42 45 45 43 41 40 40 37 32 28 26 23 21 19 15 11 9 7 9 10 9 7 6 6 5 3 3 2 1 0 1 1 0 0 0 0 0 0
0 0 0 0 0 4 12 18 21 28 36 41 43 42 38 36 35 35 33 28 23 20 19 18 16 13 9 6 5 5 8 9 8 8 8 7 5 4 3 2 2 2 2 1 0 0 0 0 0
0 0 0 0 0 1 5 13 21 29 36 39 40 39 35 31 29 28 26 22 17 15 14 13 12 9 7 5 4 5 7 8 7 7 7 8 6 4 3 3 2 2 2 1 0 0 0 0 0
0 0 0 0 0 1 6 14 25 33 38 40 39 37 31 27 25 24 22 18 15 13 11 9 8 7 6 5 4 5 6 7 5 5 5 6 5 3 2 2 2 1 1 1 0 0 0 0 0
0 0 0 0 0 2 9 18 28 36 40 41 39 34 28 26 24 22 19 17 14 12 9 7 6 6 5 4 4 3 4 5 4 3 3 3 3 2 2 2 2 1 1 1 1 0 0 0 0
0 0 0 0 1 3 10 18 26 32 35 35 34 29 26 26 24 20 17 15 13 10 8 6 5 4 3 3 2 2 2 2 2 1 1 1 1 1 1 1 1 1 1 1 1 0 0 0 0
0 0 0 0 1 3 7 13 19 24 27 28 28 27 26 26 23 18 15 14 11 9 7 5 4 3 3 1 1 1 1 1 1 0 0 0 0 0 0 0 0 0 0 0 0 0 0 0 0
0 0 0 0 1 1 2 5 10 18 23 25 27 29 29 26 21 17 15 13 10 7 6 4 3 3 3 2 1 1 1 0 0 0 0 0 0 0 0 0 0 0 0 0 0 0 0 0 0
0 0 0 0 0 0 0 1 4 12 19 23 26 28 28 24 18 15 15 13 11 8 5 4 3 3 3 2 1 1 1 1 1 2 1 1 0 0 0 0 0 0 0 0 0 0 0 0 0
0 0 0 0 0 0 0 0 2 8 14 18 21 23 23 20 16 14 14 14 13 10 7 5 4 3 3 2 0 0 1 2 4 4 3 2 1 0 0 0 0 0 0 0 0 0 0 0 0
0 0 0 0 0 0 0 0 1 4 10 14 16 18 20 18 15 15 15 15 13 11 9 7 5 3 3 2 1 0 1 3 5 6 5 4 2 1 0 0 0 0 0 0 0 0 0 0 0
0 0 0 0 0 0 0 0 0 2 7 12 14 17 17 16 15 14 13 13 12 10 9 8 6 4 3 3 2 1 0 2 5 6 5 4 3 1 0 0 0 0 0 0 0 0 0 0 0
0 0 0 0 0 0 0 0 0 1 6 11 13 14 14 14 13 11 10 10 9 8 7 6 5 3 2 2 2 1 1 2 4 4 4 4 2 1 0 0 0 0 0 0 0 0 0 0 0
0 0 0 0 0 0 0 0 0 2 6 10 11 10 10 10 10 8 7 7 6 5 4 3 2 1 1 1 1 1 1 3 3 3 3 3 1 0 0 0 0 0 0 0 0 0 0 0 0
0 0 0 0 0 0 0 0 1 3 5 7 7 7 7 8 7 7 6 6 5 4 3 1 0 0 0 0 0 0 1 2 3 3 3 2 1 0 0 0 0 0 0 0 0 0 0 0 0
0 0 0 0 0 0 0 0 1 3 4 4 5 5 6 6 7 6 6 6 4 3 2 1 0 0 0 0 0 0 0 1 3 3 3 1 0 0 0 0 0 0 0 0 0 0 0 0 0

GEFSSGP_con_prob3kmehi_156.txt.gz
EHI
0 0 0 0 0 0 0 0 0 1 6 11 14 14 10 6 3 3 4 6 10 12 9 10 19 28 35 39 40 41 42 42 41 38 35 32 29 26 23 19 14 9 7 5 4 3 3 3 3
0 0 0 0 0 0 0 0 1 4 10 18 22 20 14 8 6 5 5 6 11 13 11 13 22 31 36 40 41 41 41 41 39 35 33 30 26 23 20 16 11 8 7 6 4 3 3 3 3
0 0 0 0 0 0 0 0 4 10 17 23 27 25 18 11 7 5 5 8 13 15 14 18 29 36 40 42 41 41 39 38 36 34 31 27 24 21 19 14 9 8 8 6 4 3 4 4 4
0 0 0 0 0 0 0 0 6 15 20 21 25 26 21 12 7 6 8 12 18 18 17 25 38 43 44 44 42 41 38 36 36 36 33 28 24 21 19 15 10 8 6 5 3 4 4 5 5
0 0 0 0 0 0 0 1 6 14 17 18 25 31 26 16 10 10 11 14 19 21 22 31 43 47 46 45 43 41 40 40 40 39 35 29 24 20 18 14 10 6 4 3 3 3 4 4 4
0 0 0 0 1 0 0 1 5 9 12 16 27 35 31 22 16 12 11 13 16 22 26 30 36 40 42 42 42 41 41 42 40 34 27 23 20 17 14 10 7 4 3 3 3 3 3 3 3
0 0 0 0 0 0 1 3 7 10 13 17 25 33 32 24 19 15 13 12 13 18 24 24 22 25 30 35 37 37 36 35 30 22 15 12 13 13 11 8 6 4 3 4 3 3 3 3 3
0 0 0 0 0 0 1 6 11 16 19 19 21 25 29 28 25 23 20 16 13 13 15 15 13 13 16 22 26 27 25 22 18 13 9 8 8 8 8 9 8 6 4 4 4 3 4 4 4
0 0 0 0 0 0 2 7 15 19 22 23 23 27 36 40 36 32 27 21 15 11 10 10 9 8 9 10 13 15 14 11 10 10 9 7 5 4 5 7 9 8 6 5 4 4 4 4 3
0 0 0 0 0 1 3 8 14 17 20 24 31 44 55 50 38 30 24 19 15 11 9 8 7 8 8 7 8 9 8 7 6 8 8 6 2 1 2 4 6 6 5 4 4 4 3 2 2
0 0 0 0 2 4 6 10 13 15 15 21 37 56 62 48 31 21 16 13 11 10 8 6 7 8 8 8 9 9 8 7 6 6 7 5 2 1 1 2 2 2 2 2 2 1 1 2 2
0 0 0 2 3 6 9 14 19 18 16 22 39 53 52 40 25 15 10 8 8 8 7 5 6 8 9 10 11 11 10 9 8 7 7 5 3 1 0 0 1 1 1 0 0 0 0 1 2
0 0 1 3 4 7 12 19 25 26 26 32 41 45 42 33 22 15 10 8 8 7 5 3 4 7 9 9 10 10 9 8 8 7 6 4 3 1 1 0 1 2 2 1 0 0 0 0 1
0 0 0 2 3 8 15 23 26 30 37 41 42 40 35 28 22 17 12 9 7 5 3 1 2 5 6 6 7 8 7 5 4 4 4 3 3 3 2 1 1 3 2 1 0 0 0 0 0
0 0 0 0 2 6 13 20 24 31 40 43 39 35 30 25 20 16 13 8 4 2 1 0 1 2 3 3 4 4 3 2 1 1 2 2 2 3 3 3 3 3 2 1 0 0 0 0 0
0 0 0 1 2 5 8 12 19 30 39 39 34 30 28 24 18 15 11 7 4 2 0 0 0 1 1 1 1 1 1 1 0 0 0 1 1 2 3 3 2 2 2 1 0 0 0 0 0
0 0 0 1 2 4 6 8 16 27 34 34 30 28 26 24 20 16 12 9 6 3 1 1 1 0 0 0 0 0 0 0 0 0 1 1 1 2 2 1 1 1 1 0 0 0 0 0 0
0 0 0 0 2 5 6 9 15 22 27 29 27 25 24 23 19 15 13 11 8 5 3 2 2 1 0 0 0 0 0 0 0 0 1 2 3 2 1 0 0 0 0 0 0 0 0 0 0
0 0 0 0 2 4 6 11 15 18 21 25 26 24 23 22 17 12 11 10 8 6 4 3 2 1 0 0 0 0 0 0 0 0 1 2 2 2 1 0 0 0 0 0 0 0 0 0 0
0 0 0 0 1 2 5 10 14 16 18 21 23 22 21 19 15 12 9 7 6 6 5 3 1 0 0 0 0 0 0 0 0 0 0 1 1 1 0 0 0 0 0 0 0 0 0 0 0
0 0 0 0 0 1 3 6 10 13 15 17 19 17 16 17 15 13 9 5 5 6 5 3 1 1 2 2 1 1 0 0 0 0 0 0 0 0 0 0 0 0 0 0 0 0 0 0 0
0 0 0 1 0 0 1 2 6 11 13 15 16 15 14 15 16 15 10 5 4 5 4 2 1 2 3 3 2 1 0 0 0 0 0 0 0 0 0 0 0 0 0 0 0 0 0 0 0
0 0 0 0 0 0 0 1 3 8 11 13 15 14 14 13 14 15 11 6 5 5 4 2 1 1 3 3 2 1 0 0 0 0 0 0 0 0 0 0 0 0 0 0 0 0 0 0 0
0 0 0 0 0 0 0 0 1 4 6 10 13 14 13 13 13 12 9 5 4 3 2 1 0 1 2 2 1 0 0 0 0 0 0 0 0 0 0 0 0 0 0 0 0 0 0 0 0
0 0 0 0 0 0 0 0 0 1 2 6 10 13 13 14 14 11 6 2 1 1 1 0 0 0 1 1 0 0 0 0 0 0 0 0 0 0 0 0 0 0 0 0 0 0 0 0 0
0 0 0 0 0 0 0 0 0 0 0 2 6 9 11 15 15 10 4 1 0 1 1 0 0 0 0 0 0 0 0 0 0 0 0 0 0 0 0 0 0 0 0 0 0 0 0 0 0
0 0 0 0 0 0 0 0 0 0 0 1 3 6 9 12 12 8 3 1 1 2 2 1 0 0 0 0 0 0 0 0 0 0 0 0 0 0 0 0 0 0 0 0 0 0 0 0 0
0 0 0 0 0 0 0 0 0 0 0 0 2 4 6 7 8 6 4 2 2 3 3 1 0 0 0 0 0 0 0 0 0 0 0 0 0 0 0 0 0 0 0 0 0 0 0 0 0
0 0 0 0 0 0 0 0 0 0 0 0 1 2 3 4 6 6 5 4 4 5 4 1 0 0 0 0 0 0 0 0 0 0 0 0 0 0 0 0 0 0 0 0 0 0 0 0 0
0 0 0 0 0 0 0 0 0 0 0 0 0 0 1 4 6 6 6 5 5 6 5 2 1 0 0 0 0 0 0 0 0 0 0 0 0 0 0 0 0 0 0 0 0 0 0 0 0

GEFSSGP_con_prob3kmehi_162.txt.gz
EHI
0 0 0 0 0 0 0 0 1 1 2 2 2 1 1 2 1 2 3 4 3 4 6 6 5 7 15 26 33 36 37 36 34 26 15 9 6 5 3 1 0 1 1 1 0 0 0 0 0
0 0 0 0 0 0 1 1 2 2 2 2 2 2 1 1 2 4 5 4 3 4 6 8 9 9 14 24 32 36 35 33 29 22 14 8 6 5 4 2 1 2 2 2 1 0 0 0 0
0 0 0 0 0 1 2 2 2 2 1 1 1 2 3 3 3 6 7 5 3 3 5 10 13 12 13 20 27 31 30 27 22 16 11 8 7 6 5 3 3 3 3 2 1 0 0 0 0
0 0 0 0 1 2 3 3 1 1 0 0 1 4 9 8 7 7 7 5 4 3 4 9 14 14 15 17 21 25 27 25 21 15 11 9 7 6 5 4 3 3 2 1 0 0 0 0 0
0 0 0 0 1 3 4 2 1 0 0 0 2 7 16 20 17 12 7 5 4 2 3 8 13 15 16 16 19 24 29 28 25 21 14 10 9 7 5 3 2 2 1 0 0 0 0 0 0
0 0 0 0 1 3 3 1 0 0 0 1 3 10 23 32 29 16 7 5 3 2 3 6 10 13 16 18 21 27 32 31 26 21 17 13 12 9 5 3 1 1 0 0 0 0 0 0 0
0 0 0 0 1 3 3 3 2 2 3 4 5 12 28 40 35 19 10 6 4 2 4 5 7 10 13 18 24 28 30 28 22 17 16 15 13 9 6 3 3 2 1 0 0 0 0 0 0
0 0 0 0 1 2 4 4 4 5 7 9 9 15 33 47 39 25 17 11 6 4 5 5 4 4 7 12 19 22 22 21 18 14 13 11 9 6 4 5 6 5 2 2 1 1 0 0 0
0 0 0 0 0 1 1 2 4 8 10 12 15 26 46 54 43 32 27 19 11 7 6 4 2 1 2 5 10 12 12 13 12 9 7 6 4 3 3 6 9 7 4 3 2 1 0 0 0
0 0 0 0 0 0 0 1 3 7 9 11 21 41 58 57 43 34 29 23 16 11 8 5 3 2 3 5 7 7 7 8 7 6 6 5 4 3 5 8 9 8 5 3 3 2 0 0 0
0 0 0 1 1 1 1 2 4 7 8 11 24 46 59 53 40 30 27 23 19 16 11 6 6 6 7 10 11 8 7 8 9 12 13 10 8 7 8 10 11 10 8 6 5 3 2 1 1
0 1 1 2 3 3 5 7 10 12 12 15 27 43 50 46 36 29 25 22 19 17 13 9 11 12 14 16 17 13 12 14 16 19 19 15 13 11 10 10 11 12 12 12 10 8 6 4 3
1 2 3 3 4 5 8 12 15 16 16 21 32 39 39 36 32 28 25 22 18 14 13 13 15 18 19 21 21 19 19 21 21 22 21 18 16 13 11 11 12 12 14 15 13 12 10 7 5
1 2 3 3 4 5 7 12 16 15 16 22 32 35 31 28 29 28 25 20 15 12 13 15 16 17 18 20 21 22 22 22 21 20 19 17 14 13 12 13 14 13 14 15 14 13 11 9 6
0 1 2 1 2 2 4 9 13 13 14 20 26 29 29 30 31 28 23 18 15 14 16 16 14 13 15 18 21 21 19 17 16 14 13 11 10 11 13 15 16 15 14 15 14 12 11 10 8
0 0 0 0 0 0 2 7 10 11 14 19 22 25 30 33 31 26 21 18 17 17 20 19 15 14 17 19 19 18 15 12 9 8 8 7 8 9 12 14 15 15 14 14 13 10 9 9 9
0 0 0 0 0 0 1 5 9 11 14 19 21 23 28 29 25 22 21 20 19 19 21 21 19 19 19 18 16 14 12 9 7 6 6 6 7 8 10 12 14 14 14 14 12 9 8 8 8
0 0 0 0 0 0 0 3 7 10 13 17 20 21 24 24 21 19 20 20 20 20 20 20 20 20 18 16 13 11 8 6 4 4 4 5 5 6 8 11 12 13 13 14 11 9 8 7 7
0 0 0 0 0 0 0 1 5 9 11 13 17 20 22 23 21 18 18 19 20 20 19 18 17 16 16 15 13 10 7 4 3 2 2 3 3 3 6 9 11 11 11 10 9 8 7 8 8
0 0 0 1 1 1 0 1 3 7 9 11 16 21 22 21 20 19 17 17 18 19 18 16 15 14 14 13 11 8 5 4 2 1 1 1 1 1 3 6 8 8 8 8 7 7 8 8 7
0 0 0 1 1 1 0 0 2 5 8 11 15 20 21 20 18 19 17 16 18 18 17 15 14 13 12 10 8 7 6 5 3 2 1 0 0 0 0 1 3 4 5 5 5 5 6 6 6
0 0 0 0 0 0 0 0 1 4 6 9 14 19 22 20 18 18 18 17 16 16 15 14 12 11 10 9 7 7 8 6 5 4 2 1 0 0 0 0 0 1 2 2 2 2 2 2 3
0 0 0 0 0 0 0 0 1 2 4 7 13 20 24 23 20 17 17 16 16 16 15 13 11 10 9 7 7 7 8 7 6 4 3 1 0 0 0 0 0 0 0 0 0 0 0 0 1
0 0 0 0 0 0 0 0 0 1 3 7 12 18 23 23 20 17 17 17 18 17 14 12 11 9 7 6 5 5 6 6 4 3 2 1 0 0 0 0 0 0 0 0 0 0 0 0 0
0 0 0 0 0 0 0 0 1 2 3 6 11 16 19 19 17 17 18 19 19 16 12 10 9 8 6 5 4 3 4 4 2 1 1 0 0 0 0 0 0 0 0 0 0 0 0 0 0
0 0 0 0 0 0 0 0 1 2 2 5 10 12 12 13 14 16 18 19 18 15 11 7 7 7 6 5 5 4 4 4 2 1 0 0 0 1 1 1 0 0 0 0 0 0 0 0 0
0 0 0 0 0 0 0 0 0 1 1 4 9 11 10 11 14 15 16 16 16 15 11 7 7 7 6 6 7 6 5 4 3 2 1 1 1 2 2 1 0 0 0 0 0 0 0 0 0
0 0 0 0 0 0 0 0 1 2 5 7 9 10 10 12 15 14 12 12 14 14 12 9 8 8 8 7 7 7 6 4 3 2 1 2 2 2 1 0 0 0 0 0 0 0 0 0 0
0 0 0 0 0 0 0 0 2 6 10 11 9 8 8 10 12 10 8 8 11 12 11 9 8 10 10 9 8 7 6 4 3 3 2 2 2 1 0 0 0 0 0 0 0 0 0 0 0
0 0 0 0 0 0 0 0 3 9 12 12 9 6 6 7 8 7 6 6 9 10 9 8 8 10 11 10 9 7 5 4 4 3 3 2 1 0 0 0 0 0 0 0 0 0 0 0 0

GEFSSGP_con_prob3kmehi_168.txt.gz
EHI
0 0 0 0 0 0 0 2 4 5 6 7 9 14 22 25 16 9 13 27 35 24 12 13 15 9 4 2 2 1 1 2 2 2 1 0 0 0 0 0 0 0 0 0 0 0 0 0 0
0 0 0 0 0 0 1 3 5 6 7 10 13 19 23 20 13 11 18 31 34 22 11 12 14 11 7 5 4 2 2 3 3 3 2 1 0 0 0 0 0 0 0 0 0 0 0 0 0
0 0 0 0 0 0 1 4 6 8 9 12 18 24 23 16 12 16 25 34 33 22 15 16 17 15 11 8 5 3 3 3 3 3 3 1 0 0 0 0 0 0 0 0 0 0 0 0 0
0 0 0 0 0 0 2 4 6 8 10 12 19 26 23 16 16 22 28 32 30 24 20 20 22 20 15 10 5 2 1 1 2 3 3 2 1 0 0 0 0 0 0 0 0 0 0 0 0
0 0 0 0 0 0 1 3 5 8 10 14 22 29 26 19 20 24 26 27 25 23 20 21 23 21 17 13 7 3 1 1 1 2 3 3 2 1 0 0 0 0 0 0 0 0 0 0 0
0 0 0 0 0 1 1 3 6 9 12 16 24 32 29 24 23 23 22 21 21 21 20 20 20 19 18 15 11 7 4 3 1 1 2 2 2 1 0 0 0 0 0 0 0 0 0 0 0
0 0 0 0 1 2 4 7 11 14 15 17 24 31 31 29 28 25 21 20 21 21 21 18 15 14 15 14 11 9 8 7 3 1 1 1 1 0 0 0 1 1 0 0 0 0 0 0 0
0 0 0 0 1 4 7 12 18 22 23 25 27 32 36 36 34 30 26 26 28 26 25 21 15 11 9 8 8 8 8 8 5 3 2 2 1 1 1 2 4 4 2 1 0 0 0 0 1
0 0 0 0 2 5 9 14 20 25 29 35 39 42 42 41 38 35 33 34 35 34 31 25 19 12 7 5 7 8 7 7 7 7 7 6 4 3 3 8 12 11 6 3 1 1 2 2 2
0 0 0 1 3 6 9 13 17 22 28 38 47 50 46 40 39 38 36 37 40 39 35 28 25 21 13 10 11 10 9 11 11 12 14 13 10 7 9 16 19 15 9 5 3 4 5 5 4
0 0 1 2 5 7 10 13 16 19 25 33 42 47 43 38 38 37 34 36 41 42 36 31 31 29 24 21 18 13 13 16 18 19 22 21 19 16 17 23 23 16 10 7 6 7 8 7 4
0 0 1 4 6 9 11 13 17 22 27 31 35 39 39 37 36 36 37 40 44 44 41 38 37 35 34 31 25 18 18 22 25 28 29 27 26 24 22 24 24 19 14 11 11 11 10 8 6
1 1 1 4 7 8 9 13 18 24 28 30 32 35 37 35 35 39 45 49 50 49 48 48 45 41 41 40 35 28 27 29 33 36 34 30 28 27 25 25 24 21 17 15 15 14 12 9 7
2 1 1 4 7 7 7 10 16 22 25 27 30 33 34 34 37 44 54 60 59 55 55 53 48 46 47 47 43 37 34 34 36 37 33 29 27 27 26 25 23 20 18 17 15 15 13 10 7
1 1 1 3 5 5 5 7 15 22 27 28 29 32 36 38 42 50 59 63 63 60 57 52 46 47 49 48 45 41 36 36 36 34 29 24 22 22 22 21 18 17 17 16 15 16 15 10 5
0 0 1 2 4 4 3 7 17 27 32 32 30 33 40 43 46 52 58 63 63 61 58 53 47 48 48 45 43 41 39 38 35 31 25 18 15 14 14 13 13 14 14 13 13 16 15 9 5
0 0 0 2 3 2 3 9 21 30 34 32 30 35 42 44 47 52 58 63 64 62 59 54 50 49 46 42 40 40 39 37 32 26 21 16 12 10 9 9 10 11 10 9 9 12 12 9 6
0 0 0 1 1 1 5 13 22 27 28 29 31 37 43 43 44 49 56 62 64 62 59 55 52 50 46 40 37 36 34 32 26 22 17 13 10 8 6 6 6 7 5 4 4 5 6 6 5
0 0 0 0 0 1 6 14 19 21 22 26 31 37 42 43 41 43 49 56 60 59 58 55 52 50 46 41 36 32 30 27 23 18 13 9 6 5 4 4 3 3 2 1 1 1 2 2 3
0 0 0 0 0 1 4 9 13 14 18 25 32 35 38 39 37 37 43 50 53 54 52 50 47 45 42 37 32 28 25 23 18 14 11 6 4 3 4 4 2 1 1 0 0 0 0 1 2
0 0 0 0 0 0 1 3 7 11 18 27 35 37 36 35 33 34 39 43 44 44 41 39 39 38 35 30 26 24 21 17 13 11 8 5 3 3 4 4 1 0 1 1 1 0 0 1 1
0 0 0 0 0 0 0 1 5 12 20 28 36 38 37 35 33 34 36 37 37 36 33 33 33 32 29 25 23 20 17 14 11 9 6 4 3 3 3 2 1 1 2 3 2 2 1 0 0
0 0 0 0 0 0 0 0 4 12 20 27 33 35 36 36 34 33 35 36 35 33 31 31 30 28 24 22 20 18 15 13 12 9 6 4 3 2 1 1 2 3 4 5 5 4 3 1 1
0 0 0 0 0 0 0 0 2 8 15 22 26 29 33 35 33 32 35 37 35 31 29 28 26 22 20 19 18 16 15 14 12 9 6 3 2 1 0 0 2 4 5 6 6 6 5 4 3
0 0 0 0 0 0 0 1 4 8 12 17 21 26 31 33 32 32 35 36 33 28 26 24 23 20 18 18 16 14 14 13 10 8 6 3 1 0 1 1 2 4 4 5 6 5 5 5 6
0 0 0 0 0 0 0 2 7 10 13 16 20 25 31 32 30 32 35 35 30 24 21 20 21 20 19 18 16 14 13 11 9 7 5 2 1 1 2 3 3 4 4 4 5 5 5 5 6
0 0 0 0 0 0 0 3 8 11 13 16 19 22 28 30 28 30 33 32 27 23 19 18 19 19 19 18 17 15 13 11 9 7 4 2 1 2 3 3 4 4 4 4 4 5 5 4 4
0 0 0 0 0 0 0 2 8 13 15 17 20 22 26 28 27 28 30 27 24 21 18 17 18 18 17 17 16 16 15 13 11 8 5 3 3 3 3 3 3 4 3 3 3 4 4 3 3
0 0 0 0 0 0 0 2 7 14 19 22 24 26 28 29 29 29 27 23 20 18 17 18 18 17 16 16 16 16 15 14 12 9 6 4 4 5 4 3 3 3 3 2 2 2 2 2 2
0 0 0 0 0 0 0 2 7 14 21 24 26 28 31 32 31 29 27 21 17 16 17 18 18 17 16 16 15 15 15 14 13 9 7 6 6 5 4 3 3 3 2 1 1 1 1 1 1

GEFSSGP_con_prob3kmehi_174.txt.gz
EHI
0 0 0 0 0 0 0 1 2 4 10 18 23 25 25 19 11 4 1 3 14 26 30 37 46 46 36 25 17 9 4 4 4 4 4 4 4 4 4 4 3 2 2 1 0 0 0 0 0
0 0 0 0 0 0 0 1 4 7 13 22 28 29 30 25 15 7 4 7 18 28 31 37 48 49 38 26 17 8 3 3 3 3 3 3 3 2 2 1 1 1 1 0 0 0 0 0 0
0 0 0 0 0 0 0 3 9 14 21 28 32 33 32 26 17 11 9 14 23 30 32 40 51 52 40 28 18 8 4 3 2 1 1 1 1 1 0 0 0 0 0 0 0 0 0 0 0
0 0 0 0 0 0 0 4 13 21 28 33 34 35 32 24 19 17 18 22 28 32 35 42 51 52 42 30 20 11 7 5 4 2 1 0 0 1 0 0 0 0 0 0 0 0 0 0 0
0 0 0 0 0 0 0 4 14 24 32 35 35 35 31 26 27 28 26 27 30 33 35 40 47 47 39 29 19 14 11 8 6 3 1 0 0 1 1 0 0 0 0 0 0 0 0 0 0
0 0 0 0 0 0 1 5 12 23 31 36 36 34 28 25 29 32 29 27 30 33 32 33 37 37 32 25 18 15 13 11 8 4 2 1 1 1 1 0 0 0 0 0 0 0 0 0 0
0 0 0 0 0 0 1 6 13 21 28 33 36 34 28 23 24 27 27 25 26 30 29 26 25 25 24 21 16 14 14 12 9 6 4 3 2 2 1 0 1 1 0 0 0 0 0 0 0
0 0 0 0 0 0 3 9 16 23 26 29 32 31 28 25 24 26 27 24 24 25 24 22 19 18 18 17 14 13 13 11 8 6 6 5 4 3 2 1 3 3 1 1 1 1 1 0 0
0 0 0 0 0 1 6 13 19 24 26 28 31 30 28 28 30 30 29 28 27 23 20 20 19 17 16 15 13 13 12 10 7 5 5 5 4 3 3 3 5 5 4 2 2 2 2 1 1
0 0 0 1 1 2 7 12 17 20 24 28 31 32 31 32 34 32 30 31 31 25 19 18 18 17 15 13 12 12 11 10 7 4 5 6 5 3 4 5 6 6 5 5 4 3 3 2 2
0 0 1 1 2 3 5 8 11 13 16 21 28 33 36 36 33 31 30 31 31 27 22 18 16 16 13 11 11 12 11 9 6 4 4 6 6 5 4 5 6 6 6 6 6 4 3 3 3
1 1 2 2 2 4 5 6 8 9 9 15 26 35 38 36 32 31 31 30 28 26 23 18 15 15 13 13 14 13 12 10 7 4 5 5 6 6 5 4 4 4 4 6 6 5 4 4 4
2 2 2 2 3 5 7 7 9 9 10 18 29 35 37 35 32 33 33 31 29 27 24 20 18 18 17 17 17 15 13 10 7 5 4 5 5 5 4 3 2 2 3 4 5 4 3 3 3
2 2 2 2 4 6 8 9 10 10 14 24 29 31 33 34 33 33 33 33 31 29 27 26 25 23 21 20 19 17 14 11 8 5 4 4 4 4 4 2 1 1 2 3 2 1 1 1 1
3 3 2 1 3 6 7 8 9 12 18 25 27 27 28 31 32 31 33 35 33 31 32 33 32 29 26 24 23 20 16 13 10 6 5 4 3 3 2 1 0 0 0 1 0 0 0 0 0
2 1 1 1 1 3 5 6 8 15 21 25 26 27 27 29 30 31 35 37 35 34 37 38 36 33 29 27 26 22 18 15 10 7 5 3 2 1 1 0 0 0 0 0 0 0 0 0 0
0 0 0 0 0 1 4 7 11 19 26 27 29 30 31 32 32 32 36 39 36 34 36 38 37 32 27 25 23 20 17 13 8 5 4 3 2 1 0 0 0 0 0 0 0 0 0 0 0
0 0 0 0 0 1 5 8 14 22 28 29 30 32 34 36 34 33 35 38 36 32 32 34 33 29 23 19 17 15 13 10 6 4 4 4 3 3 1 0 0 0 0 0 0 0 0 0 0
0 0 0 0 0 2 5 8 13 21 26 27 29 32 35 36 34 33 35 36 35 32 29 28 27 24 19 14 12 10 9 8 6 4 3 3 3 2 1 0 0 0 0 0 0 0 0 0 0
0 0 0 0 1 3 6 8 11 17 21 23 26 31 35 35 31 31 32 33 33 31 28 24 22 19 15 11 8 7 7 6 5 3 1 1 1 1 0 0 0 0 0 0 0 0 0 0 0
0 0 0 0 1 2 5 6 9 13 16 19 23 28 33 34 30 28 29 30 31 29 25 21 18 15 11 10 8 6 5 4 3 1 0 0 0 0 0 0 0 0 0 0 0 0 0 0 0
0 0 0 0 0 1 2 3 5 8 11 14 18 25 31 33 31 28 27 29 29 26 23 19 16 13 10 9 8 6 4 3 2 1 0 0 0 0 0 0 0 0 0 0 0 0 0 0 0
0 0 0 0 0 0 0 0 1 3 7 10 14 22 28 31 29 26 25 26 26 24 21 18 15 13 11 9 8 5 3 1 1 1 0 0 0 0 0 0 0 0 0 0 0 0 0 0 0
0 0 0 0 0 0 0 0 0 1 3 6 11 19 25 28 27 24 22 23 23 20 16 14 14 14 12 10 7 4 1 0 0 0 0 0 0 0 0 0 0 0 0 0 0 0 0 0 0
0 0 0 0 0 0 0 0 0 0 2 4 8 13 20 26 27 23 19 20 20 17 13 12 13 13 11 9 6 2 1 1 1 0 0 0 0 0 0 0 0 0 0 0 0 0 0 0 0
0 0 0 0 0 0 0 0 0 2 3 5 6 9 16 24 26 22 18 17 16 14 12 11 11 11 10 8 5 2 1 2 1 0 0 0 0 0 0 0 0 0 0 0 0 0 0 0 0
0 0 0 0 0 0 0 0 1 4 7 8 8 9 14 21 23 19 16 14 13 12 11 11 10 10 10 8 5 3 3 2 1 0 0 0 0 0 0 0 0 0 0 0 0 0 0 0 0
0 0 0 0 0 0 0 0 2 4 8 10 10 11 14 17 18 17 15 13 11 10 10 10 9 9 9 8 5 3 3 2 1 0 0 0 0 0 0 0 0 0 0 0 0 0 0 0 0
0 0 0 0 0 0 0 0 1 2 6 9 11 13 14 14 14 13 12 11 9 8 9 10 9 8 8 7 5 4 3 2 1 0 0 0 0 0 0 0 0 0 0 0 0 0 0 0 0
0 0 0 0 0 0 0 0 0 1 4 9 13 14 15 13 11 10 10 10 8 8 9 10 9 8 6 5 4 4 3 2 1 0 0 0 0 0 0 0 0 0 0 0 0 0 0 0 0

GEFSSGP_con_prob3kmehi_180.txt.gz
EHI
0 0 0 0 0 0 0 0 0 0 1 3 3 3 4 2 1 0 0 3 11 19 17 15 21 27 33 40 39 35 30 26 21 15 13 15 15 12 10 9 8 6 4 1 0 0 0 0 0
0 0 0 0 0 0 0 0 0 1 4 6 7 5 5 4 3 1 2 6 16 23 21 19 25 30 34 37 38 34 29 23 18 14 13 13 12 10 7 6 5 5 4 2 1 0 0 0 0
0 0 0 0 0 0 0 0 2 4 8 11 11 8 7 6 4 3 5 13 23 28 25 26 32 35 35 36 34 32 28 21 15 13 12 11 10 8 5 3 3 4 4 3 1 1 1 1 1
0 0 0 0 0 0 0 1 3 6 11 15 14 12 10 7 4 5 10 19 28 30 28 31 39 40 38 36 33 30 27 22 15 12 11 11 10 8 5 2 2 3 4 3 2 2 2 2 2
0 0 0 0 0 0 0 1 3 6 11 14 15 15 13 6 4 8 14 22 27 29 28 33 41 43 40 37 33 30 28 24 17 13 11 11 9 7 4 1 1 1 2 2 2 2 2 2 2
0 0 0 0 0 0 0 0 2 5 8 10 12 14 11 5 5 9 15 20 25 27 28 32 39 43 43 40 35 31 29 25 19 14 10 8 7 4 2 1 0 0 1 1 0 1 1 1 1
0 0 0 0 0 0 0 1 4 7 7 5 7 10 7 5 6 9 12 16 21 25 27 29 33 38 40 39 35 31 28 22 16 11 8 5 4 2 1 1 1 1 1 0 0 0 0 0 0
0 0 0 0 0 0 1 3 8 11 9 5 7 8 7 8 11 13 14 17 21 22 22 23 25 28 29 30 30 28 23 18 12 8 6 4 2 1 0 1 2 3 2 1 0 0 0 0 0
0 0 0 0 0 0 2 5 8 10 8 6 8 9 13 20 23 22 22 24 23 19 16 18 20 21 22 23 24 22 18 14 11 8 5 3 2 0 0 0 1 1 1 0 0 0 0 0 0
0 0 1 1 0 1 2 4 6 6 5 4 8 15 26 33 32 27 25 25 22 16 12 13 15 19 20 21 19 17 14 12 11 9 6 4 2 1 0 0 0 0 0 0 1 1 1 1 1
0 0 1 1 1 2 3 3 4 4 3 3 9 24 38 40 34 27 23 20 16 13 11 11 12 15 18 19 17 14 13 12 12 10 8 5 3 1 0 0 0 0 0 1 2 2 2 3 4
0 0 1 1 1 2 2 2 2 2 2 4 14 31 43 41 33 24 19 17 14 12 12 13 15 14 14 15 15 14 13 13 12 11 9 7 5 1 0 0 0 0 0 1 2 2 2 3 4
1 1 1 0 0 1 1 1 1 2 4 8 18 32 41 40 34 25 20 19 16 13 12 15 17 17 14 14 14 14 13 12 11 9 8 6 4 1 0 0 0 0 0 0 1 1 1 1 1
2 2 1 0 0 0 1 1 1 2 6 10 19 29 35 38 37 31 24 19 15 12 11 14 17 17 16 14 13 12 11 9 7 5 4 3 2 1 0 0 0 0 0 0 0 0 0 0 0
2 2 1 0 0 0 1 2 1 2 5 10 17 24 29 33 35 31 23 16 12 10 11 13 15 16 16 14 11 9 8 6 3 2 1 1 1 1 0 0 0 0 0 0 0 0 0 0 0
1 1 0 0 0 1 1 1 1 2 5 10 16 21 22 25 27 24 19 15 12 10 11 14 15 15 13 11 8 6 5 4 2 1 0 1 1 1 0 0 0 0 0 0 0 0 0 0 0
0 0 0 0 0 1 0 0 0 1 5 10 16 18 19 21 23 20 17 16 15 12 11 13 14 12 10 8 6 4 4 4 2 1 0 0 1 1 0 0 0 0 0 0 0 0 0 0 0
0 0 0 0 0 0 0 0 0 1 5 10 15 18 20 22 22 21 18 17 15 11 9 11 11 11 8 5 4 4 4 3 2 1 0 0 0 0 0 0 0 0 0 0 0 0 0 0 0
0 0 0 0 0 0 0 0 0 1 5 11 16 19 23 24 23 21 18 17 14 11 9 10 11 11 7 5 4 4 3 2 2 1 0 0 0 0 0 0 0 0 0 0 0 0 0 0 0
0 0 0 0 0 0 0 0 0 0 4 9 14 17 22 23 21 18 18 17 15 14 11 10 11 11 8 6 5 5 3 1 0 0 0 0 0 0 1 1 0 0 0 0 0 0 0 0 0
0 0 0 0 0 1 0 0 0 0 2 5 8 11 16 21 19 16 15 15 15 15 13 11 10 10 9 8 6 5 2 0 0 0 0 0 0 0 0 1 1 0 0 0 0 0 0 0 0
0 0 0 0 0 0 0 0 0 0 1 3 4 6 11 15 14 12 13 14 15 15 13 11 10 9 9 8 5 3 2 0 0 0 0 0 0 0 0 0 0 0 0 0 0 0 0 0 0
0 0 0 0 0 0 0 0 0 0 0 1 3 5 9 12 10 10 11 13 15 14 12 10 10 9 8 7 5 3 1 0 0 0 0 0 0 0 0 0 0 0 0 0 0 0 0 0 0
0 0 0 0 0 0 0 0 0 0 0 1 3 6 10 11 10 10 11 13 14 13 11 10 9 8 7 6 4 2 1 0 0 0 0 0 0 0 0 0 0 0 0 0 0 0 0 0 0
0 0 0 0 0 0 0 0 0 0 0 1 3 6 10 10 10 10 11 13 13 12 11 10 8 7 7 6 4 1 0 0 0 0 0 0 0 0 0 0 0 0 0 0 0 0 0 0 0
0 0 0 0 0 0 0 0 0 0 1 1 2 6 9 8 7 9 11 13 12 11 11 10 7 6 6 5 3 1 0 0 0 0 0 0 0 0 0 0 0 0 0 0 0 0 0 0 0
0 0 0 0 0 0 0 0 0 0 0 0 1 4 6 5 5 7 11 12 11 10 10 9 7 5 4 4 3 1 0 0 0 0 0 0 0 0 0 0 0 0 0 0 0 0 0 0 0
0 0 0 0 0 0 0 0 0 0 0 0 1 2 3 3 4 6 10 10 8 7 8 7 5 4 3 3 3 1 0 0 0 0 0 0 0 0 0 0 0 0 0 0 0 0 0 0 0
0 0 0 0 0 0 0 0 0 0 0 0 1 2 2 2 3 5 7 6 4 3 3 4 4 3 3 3 3 2 1 0 0 0 0 0 0 0 0 0 0 0 0 0 0 0 0 0 0
0 0 0 0 0 0 0 0 0 0 0 0 1 2 1 1 2 4 4 4 2 0 1 2 3 3 3 3 3 2 1 0 0 0 0 0 0 0 0 0 0 0 0 0 0 0 0 0 0

GEFSSGP_con_prob3kmehi_186.txt.gz
EHI
0 0 0 0 0 0 0 0 0 0 0 1 1 1 1 1 2 2 1 3 12 24 30 31 29 23 17 20 27 32 31 33 38 40 38 31 21 14 11 8 5 4 2 1 0 0 0 0 0
0 0 0 0 0 0 0 1 1 0 1 1 2 3 3 3 3 2 3 7 16 26 29 29 29 25 20 22 29 32 31 31 34 35 32 26 19 13 10 8 5 4 2 1 0 0 0 0 0
0 0 0 0 0 0 0 1 1 1 1 2 2 5 6 5 3 3 7 14 21 26 27 27 29 26 22 23 28 30 29 29 29 28 25 21 16 12 9 8 5 3 2 1 0 0 0 0 0
0 0 0 0 0 0 0 1 1 0 1 2 3 5 7 7 4 4 10 17 22 23 24 26 29 27 25 24 26 28 28 28 27 24 21 19 15 10 7 5 4 2 1 0 0 0 0 0 0
0 0 0 0 0 0 0 0 0 0 0 1 2 3 7 9 7 7 13 18 19 19 21 25 28 27 25 25 26 28 28 27 26 24 21 17 13 8 4 2 1 0 0 0 0 0 0 0 0
0 0 0 0 0 0 0 0 0 0 0 0 1 2 6 11 12 12 14 16 17 18 20 24 25 24 23 23 27 29 28 26 25 24 21 18 15 10 5 1 0 0 0 0 0 0 0 0 0
0 0 0 0 0 0 0 0 0 1 1 1 0 1 6 14 20 21 18 15 15 16 19 22 21 19 17 18 23 27 27 25 23 22 21 19 16 13 7 2 0 0 0 0 0 0 0 0 0
0 0 0 0 0 0 1 1 1 2 3 2 1 3 11 22 30 32 27 20 16 15 18 21 19 16 13 13 17 22 24 23 20 18 18 16 13 10 7 3 2 1 0 1 1 1 0 0 0
0 0 0 0 0 1 2 2 3 4 5 4 3 7 18 31 37 38 34 26 20 17 19 23 22 18 13 12 16 19 21 21 17 15 14 12 8 7 6 6 5 3 2 2 2 1 0 0 0
0 0 0 0 1 2 3 4 3 4 6 5 6 10 20 31 37 36 33 28 24 21 22 25 26 22 17 17 20 21 21 19 15 12 13 11 8 7 7 8 8 6 3 3 2 1 1 0 1
0 0 0 0 1 3 5 5 3 4 5 5 6 11 20 28 32 31 27 25 24 25 25 26 28 27 25 24 24 23 22 20 15 13 15 13 11 10 9 11 12 9 7 5 4 3 2 2 3
0 0 0 1 2 3 5 5 4 5 5 4 5 11 19 27 31 28 25 23 24 26 28 28 30 32 32 31 27 24 23 21 19 20 20 17 15 14 13 14 14 12 9 8 6 5 4 5 5
0 0 0 1 2 3 4 4 4 5 6 5 6 11 18 25 30 30 29 26 23 25 27 29 31 33 35 35 32 26 23 22 24 26 24 21 18 17 17 18 16 12 10 8 7 6 5 6 6
0 0 1 2 3 3 3 4 4 4 5 6 8 11 14 18 25 30 33 31 26 24 26 28 30 33 36 37 34 28 26 26 26 26 25 22 19 18 18 18 15 12 9 8 8 7 7 6 6
0 0 1 2 2 1 1 2 2 2 5 8 10 12 12 13 18 25 31 32 29 27 28 28 29 33 37 38 35 29 27 27 26 24 23 21 18 18 17 14 12 10 8 8 9 9 8 6 4
0 0 1 1 1 0 0 1 1 1 4 7 9 12 15 15 14 19 27 30 28 27 29 30 30 34 38 38 34 28 25 24 23 22 21 19 17 15 14 12 10 8 6 6 7 7 7 5 2
0 0 0 0 0 0 0 0 0 1 3 4 6 11 17 18 17 20 26 29 26 24 26 29 30 32 36 36 31 27 25 23 20 18 18 17 16 13 11 11 9 6 4 4 5 4 4 3 2
0 0 0 0 0 0 1 0 1 2 3 3 4 9 16 19 19 22 26 28 26 23 24 28 31 32 34 32 28 26 25 22 18 16 17 16 14 12 10 10 9 6 4 4 4 4 4 3 3
0 0 0 0 0 0 0 0 1 3 4 3 3 8 15 17 18 20 24 26 26 25 24 28 32 34 34 32 29 27 25 20 17 16 16 15 13 11 9 8 8 6 4 3 4 4 4 3 3
0 0 0 0 0 0 0 0 2 3 4 3 4 8 14 16 17 18 20 23 26 27 25 26 31 33 33 32 32 29 24 19 16 15 15 13 10 8 6 5 6 5 3 3 3 3 3 3 3
0 0 0 0 0 0 0 0 1 2 3 2 3 8 13 16 18 17 16 17 21 25 24 25 29 31 31 31 30 26 21 17 15 15 14 11 8 6 4 3 3 2 2 3 2 1 1 2 1
0 0 0 0 0 0 0 0 0 1 1 1 2 5 11 15 17 16 12 11 15 19 22 25 29 31 31 28 25 23 20 17 16 14 13 11 9 6 4 2 1 0 1 2 1 1 1 1 0
0 0 0 0 0 0 0 0 0 0 1 1 1 3 8 14 16 15 11 8 9 14 19 23 26 29 29 28 26 25 22 18 15 13 13 12 10 6 3 2 1 0 0 0 0 0 0 0 0
0 0 0 0 0 0 0 0 0 1 2 2 2 5 9 13 15 15 11 6 7 12 17 19 21 24 26 27 27 26 23 18 14 13 12 12 9 6 4 2 2 1 0 0 0 0 0 0 0
0 0 0 0 0 0 0 0 1 2 2 2 3 7 11 13 14 13 11 8 9 12 15 15 17 20 22 21 21 21 18 16 14 12 10 9 7 5 4 2 1 1 0 0 0 0 0 0 0
0 0 0 0 0 0 0 0 1 1 2 3 5 9 12 13 13 12 11 10 11 13 13 12 13 16 16 15 14 14 14 13 13 11 9 7 6 4 3 2 0 0 0 0 0 0 0 0 0
0 0 0 0 0 0 0 0 1 1 2 5 7 9 10 10 10 10 10 10 10 13 13 10 10 12 12 12 12 12 10 9 9 8 6 5 5 4 3 1 0 0 0 0 0 0 0 0 1
0 0 0 0 0 0 0 0 1 2 3 5 7 7 6 6 6 8 11 12 13 15 14 11 10 12 13 12 11 9 7 4 4 4 3 3 3 3 2 1 0 0 0 0 0 0 0 1 2
0 0 0 0 0 0 0 0 1 2 2 4 6 5 4 4 4 7 11 14 16 17 16 12 10 12 13 12 9 6 3 2 2 2 2 2 2 2 2 1 0 0 0 0 0 0 0 1 2
0 0 0 0 0 0 0 0 0 1 1 4 5 5 4 4 5 7 10 14 16 17 16 12 9 10 11 11 9 6 3 2 2 2 2 1 1 1 1 0 0 0 0 0 0 0 0 1 2

GEFSSGP_con_prob3kmehi_192.txt.gz
EHI
0 0 0 0 0 0 0 0 0 0 0 1 2 4 9 11 9 6 8 25 47 51 43 45 49 44 33 22 12 6 4 3 3 3 4 4 4 3 3 3 3 1 0 0 0 0 0 0 0
0 0 0 0 0 0 0 0 0 1 1 1 4 7 10 11 9 7 13 32 49 47 39 41 47 43 33 23 15 9 5 3 3 4 4 5 5 4 3 3 3 2 1 0 0 0 0 0 0
0 0 0 0 0 0 0 0 1 2 2 2 6 10 13 11 9 11 22 40 49 41 34 39 44 42 33 24 18 13 7 3 2 4 5 7 7 6 5 4 2 2 2 1 0 1 1 0 0
0 0 0 0 0 0 0 1 1 1 1 3 7 12 14 13 12 16 26 40 44 36 32 38 42 40 34 26 20 16 11 7 4 5 8 10 12 11 7 4 3 4 4 1 0 1 1 0 0
0 0 0 0 0 0 0 0 0 0 1 4 8 12 14 16 17 19 25 31 33 32 34 39 43 41 34 27 22 20 18 14 11 10 12 14 16 13 8 5 4 5 4 2 0 1 1 0 0
0 0 0 0 0 0 0 0 0 1 2 5 9 12 14 18 21 21 21 22 26 35 40 42 43 41 35 29 25 23 22 20 18 16 16 17 16 13 9 5 4 4 4 2 1 0 0 0 1
0 0 0 0 0 0 0 0 1 2 2 5 9 13 16 21 23 21 18 18 27 39 44 42 40 37 33 30 27 25 24 23 23 20 18 16 14 12 9 7 5 4 3 3 2 1 1 1 2
0 0 0 0 0 0 0 2 3 4 6 9 12 16 24 29 26 21 19 20 30 41 44 42 38 35 31 28 27 27 26 25 24 21 17 14 12 10 9 9 9 8 6 5 3 3 2 3 3
0 0 0 1 2 2 3 4 6 7 11 14 19 25 31 31 26 21 19 22 31 41 43 42 40 35 29 27 28 27 26 25 22 18 15 11 8 8 9 12 16 17 13 10 8 6 5 4 4
0 0 0 1 3 4 6 6 7 9 11 17 25 32 32 28 23 19 18 21 29 39 42 40 40 37 32 32 33 29 25 24 19 15 14 11 8 8 10 17 25 26 21 17 14 12 8 6 6
0 0 0 2 3 4 6 7 8 9 10 16 27 35 32 24 20 17 16 21 29 37 39 38 40 41 40 41 40 34 30 27 22 18 19 17 14 14 16 23 29 29 24 21 19 16 12 9 10
0 0 1 2 4 5 6 8 10 12 13 17 27 35 31 23 19 18 17 23 32 37 38 38 43 48 50 51 48 41 39 38 34 31 29 26 23 22 22 26 29 27 24 21 20 17 12 9 9
0 1 2 5 6 7 7 8 11 14 16 18 23 28 26 23 22 21 23 30 38 41 41 41 46 54 59 60 56 50 48 49 50 47 39 32 29 27 27 28 28 25 22 21 20 18 12 8 7
1 2 4 5 5 5 7 8 9 12 14 14 15 18 21 23 25 28 33 39 46 49 48 47 51 59 63 64 63 58 54 53 54 51 43 35 32 31 30 30 27 24 22 21 21 18 13 8 6
2 2 3 4 3 3 4 6 8 10 10 9 10 13 17 22 29 35 40 46 53 57 57 54 54 60 64 63 60 57 54 51 49 47 44 38 34 32 31 30 27 24 23 22 21 19 15 10 8
1 1 2 2 1 1 2 4 6 7 7 8 11 15 18 23 30 36 42 49 56 61 63 59 56 60 63 60 56 52 51 50 46 44 41 37 33 31 30 28 26 24 23 21 18 17 15 12 10
0 0 1 1 1 0 1 3 4 4 5 8 15 20 23 26 29 34 41 47 55 60 63 61 60 62 62 59 54 51 50 49 45 41 37 33 30 28 28 27 24 22 22 20 16 14 14 12 10
0 0 0 0 1 1 3 4 3 3 4 9 16 23 26 26 29 35 41 46 52 58 60 62 64 64 62 59 55 50 48 45 40 36 34 31 28 26 26 25 23 20 20 20 16 11 11 10 9
0 0 0 0 1 2 4 4 3 4 6 9 14 20 23 25 30 37 43 47 51 57 58 59 61 62 61 59 56 50 45 39 34 32 32 32 30 26 22 22 22 21 21 19 14 9 7 7 8
0 0 0 0 1 2 3 3 3 4 5 7 9 15 22 26 31 39 46 49 51 55 57 56 56 57 58 57 54 48 41 35 32 31 31 33 32 27 21 20 21 21 20 16 11 7 5 4 5
0 0 0 0 1 1 2 3 4 5 5 5 7 13 22 28 32 38 44 47 49 51 53 54 54 54 56 55 50 43 37 33 31 31 32 32 30 25 21 20 19 19 17 13 9 7 5 2 1
0 0 0 0 0 0 1 2 4 6 6 5 6 11 18 25 29 32 37 39 41 44 47 51 53 53 54 51 45 40 34 31 29 30 30 28 23 21 20 20 20 18 14 11 8 6 4 2 1
0 0 0 0 0 0 0 1 3 5 5 4 5 8 13 18 24 27 30 32 32 35 40 44 48 50 49 45 41 37 33 30 28 27 26 23 19 17 18 19 19 16 14 10 8 6 5 4 2
0 0 0 0 0 0 0 0 1 2 4 4 3 5 11 17 22 25 26 28 28 30 34 37 41 44 44 40 37 35 32 28 26 24 22 20 17 15 15 16 16 14 12 9 8 8 8 7 5
0 0 0 0 0 0 0 0 0 0 3 5 4 6 13 19 22 23 23 25 28 30 32 34 36 39 40 38 36 35 31 26 22 20 20 18 15 12 12 13 13 12 10 8 8 8 8 7 5
0 0 0 0 0 0 0 0 0 1 3 5 7 10 14 19 21 21 21 23 26 29 31 32 33 35 37 36 37 35 30 24 19 17 17 16 12 10 11 12 11 10 8 7 7 7 7 5 4
0 0 0 0 0 0 0 0 0 2 3 4 8 10 12 16 18 19 20 21 23 25 27 28 30 31 33 34 33 31 25 20 17 15 14 12 9 8 10 11 10 9 7 6 7 7 6 5 4
0 0 0 0 0 0 0 0 0 1 2 4 6 8 10 12 16 19 20 19 21 23 24 25 25 26 27 27 25 22 20 19 16 12 9 7 6 7 8 10 10 8 7 6 7 7 6 4 4
0 0 0 0 0 0 0 0 0 1 2 3 4 6 9 11 15 19 20 20 22 22 21 21 20 20 21 20 19 17 16 17 14 9 5 4 5 6 7 7 7 6 5 5 6 5 4 3 3
0 0 0 0 0 0 0 0 0 0 1 2 2 5 8 11 15 18 19 20 22 21 18 18 17 17 18 18 16 15 14 14 10 6 4 4 6 6 5 5 4 3 3 5 5 4 4 3 3

GEFSSGP_con_prob3kmehi_198.txt.gz
EHI
0 0 0 0 0 0 0 0 0 0 1 3 6 8 8 9 7 4 1 2 8 16 28 45 60 64 59 53 46 39 32 24 18 12 6 2 2 2 2 1 0 0 0 0 0 0 0 0 0
0 0 0 0 0 0 0 0 0 0 1 4 6 9 12 13 11 5 2 4 11 18 27 41 55 59 54 48 43 38 32 25 18 13 7 3 1 1 1 0 0 0 0 0 0 0 0 0 0
0 0 0 0 0 0 0 0 1 1 3 5 7 10 12 13 11 7 6 11 16 21 26 39 54 58 51 44 40 36 31 25 17 11 8 5 3 1 1 1 0 0 0 0 0 0 0 0 0
0 0 0 0 0 0 0 1 2 3 4 6 8 11 12 11 10 9 12 17 20 23 29 43 57 60 53 45 41 37 32 26 17 10 7 5 4 3 2 2 1 1 0 0 0 0 0 0 0
0 0 0 0 0 0 1 2 3 3 4 7 12 15 15 15 16 17 18 21 24 28 34 46 57 58 53 48 44 40 36 30 21 11 6 5 4 3 3 3 3 2 1 0 0 0 0 0 0
0 0 0 0 0 0 1 2 3 3 4 9 16 19 18 19 23 23 21 23 27 34 39 45 50 51 50 48 46 44 40 35 25 14 8 6 4 3 4 4 4 3 2 1 0 0 0 0 0
0 0 0 0 0 0 0 1 3 5 7 10 16 19 19 21 24 24 24 25 29 36 41 42 42 42 44 45 46 45 42 37 28 17 10 8 6 5 5 5 4 3 3 1 0 0 0 0 0
0 0 0 0 0 0 0 2 6 10 11 12 15 18 21 25 26 27 28 29 29 34 38 39 38 36 36 38 41 43 41 36 28 19 12 10 8 6 6 6 6 5 4 3 1 0 0 0 0
0 0 0 0 0 0 2 6 11 15 17 19 20 21 25 28 29 31 33 33 31 28 29 32 33 33 31 32 34 37 36 32 24 17 12 10 9 8 7 7 8 8 8 6 3 1 0 0 0
0 0 0 0 0 2 5 9 14 19 21 23 24 26 28 26 26 29 32 33 31 26 23 24 28 30 31 30 30 31 30 26 20 15 11 10 9 8 7 7 8 9 9 8 6 3 1 1 1
0 0 1 1 2 4 8 10 14 17 17 17 22 27 26 22 21 24 27 29 30 27 23 23 25 27 29 30 29 28 27 22 17 14 11 9 7 7 7 6 6 7 8 8 6 4 4 4 4
0 1 1 2 3 6 9 10 12 13 10 11 19 24 22 19 19 21 24 27 31 29 25 24 25 25 27 29 28 27 25 21 17 15 12 9 8 7 7 6 6 6 6 6 6 6 6 6 6
1 1 1 1 3 6 9 11 11 11 11 15 21 22 19 18 20 23 26 29 32 32 27 24 24 23 24 26 28 27 24 20 17 16 13 11 10 9 7 6 6 6 6 6 6 6 5 5 6
1 1 0 0 1 5 8 10 11 12 16 21 24 21 17 17 21 25 29 31 34 35 31 27 26 25 25 25 27 26 23 19 17 15 14 12 10 9 7 6 6 6 6 6 5 5 4 4 5
1 0 0 0 1 3 6 7 9 12 16 21 22 19 16 16 20 23 28 31 35 36 34 33 32 29 27 26 25 24 22 19 16 15 13 11 10 8 7 6 6 6 6 5 5 4 3 3 3
0 0 0 0 0 1 2 3 4 8 13 16 16 17 17 17 19 23 27 30 33 35 38 38 36 32 27 25 23 21 20 18 15 12 11 11 9 7 5 5 6 6 5 4 4 3 3 3 2
0 0 0 0 0 1 1 1 1 4 8 11 12 15 17 17 19 24 29 30 33 37 41 41 36 31 27 24 21 18 17 16 14 10 9 10 9 6 4 4 4 4 4 4 4 3 3 2 1
0 0 0 0 0 1 1 1 1 3 5 7 10 14 17 17 19 24 29 32 34 38 41 40 36 32 29 25 21 17 16 16 14 11 9 9 8 5 4 3 3 3 3 5 5 4 3 1 0
0 0 0 0 0 0 0 0 1 2 3 5 10 14 17 19 21 25 29 32 35 37 38 37 34 32 30 27 21 17 16 16 15 13 10 8 6 5 4 3 2 2 2 3 4 3 2 1 0
0 0 0 0 0 0 0 0 0 1 2 4 8 13 18 20 22 26 31 34 36 37 37 36 34 32 30 27 22 17 15 15 15 13 10 7 6 5 3 2 1 0 1 1 1 1 1 0 0
0 0 0 0 0 0 0 0 0 0 1 3 7 13 18 19 19 24 30 35 37 37 36 34 33 33 32 29 23 17 14 13 12 11 9 7 6 4 3 1 0 0 0 0 0 0 0 0 0
0 0 0 0 0 0 0 0 0 0 0 2 6 12 16 17 17 19 24 28 30 32 33 32 32 33 32 29 23 17 13 11 10 10 8 7 6 4 3 1 0 0 0 0 0 0 0 0 0
0 0 0 0 0 0 0 0 0 0 0 1 4 9 14 16 16 16 18 19 20 23 26 28 29 29 29 27 21 16 13 11 9 8 8 7 6 4 3 2 1 0 0 0 0 0 0 0 0
0 0 0 0 0 0 0 0 0 0 1 1 3 8 12 14 14 14 14 14 14 16 20 24 26 26 25 22 18 14 13 11 9 8 7 7 6 4 3 2 1 0 0 0 0 0 0 0 0
0 0 0 0 0 0 0 0 0 1 2 3 4 6 9 11 12 14 14 13 12 13 16 21 24 24 21 17 14 12 10 10 9 8 7 6 6 5 2 1 1 0 0 1 0 0 0 0 0
0 0 0 0 0 0 0 0 0 1 2 3 4 4 6 7 9 11 13 13 12 12 14 18 21 21 17 12 9 8 7 7 6 6 6 6 6 5 2 0 0 0 0 0 0 0 0 0 0
0 0 0 0 0 0 0 0 0 0 1 3 3 3 4 4 6 7 9 10 11 12 13 14 17 16 13 9 5 4 4 3 2 3 5 6 6 4 1 0 0 0 0 0 0 0 0 0 0
0 0 0 0 0 0 0 0 0 0 0 1 2 3 3 3 4 5 6 8 10 13 13 13 14 13 10 6 4 3 3 1 0 1 3 3 3 3 1 0 0 0 0 0 0 0 0 0 0
0 0 0 0 0 0 0 0 0 0 0 0 1 2 3 3 2 4 6 7 8 11 13 13 13 11 8 5 4 3 2 1 0 0 1 1 1 1 1 0 1 0 0 0 0 0 0 0 0
0 0 0 0 0 0 0 0 0 0 0 0 0 1 3 2 2 4 8 7 8 10 12 13 12 9 7 6 4 3 1 0 0 0 0 0 0 1 0 0 1 0 0 0 0 0 0 0 0

GEFSSGP_con_prob3kmehi_204.txt.gz
EHI
0 0 0 0 0 0 0 0 0 0 0 0 0 0 1 0 0 0 2 6 11 19 30 40 46 52 58 63 64 59 54 53 52 50 45 40 33 25 17 12 8 5 4 3 3 1 0 0 0
0 0 0 0 0 0 0 0 0 0 0 0 0 1 1 1 0 0 2 7 13 21 30 38 47 55 60 62 62 58 54 52 50 47 43 38 31 23 16 10 7 6 4 4 3 2 1 0 0
0 0 0 0 0 0 0 0 0 0 0 0 1 2 2 1 0 1 4 11 16 22 30 38 48 56 58 57 57 56 54 53 50 45 40 35 27 19 13 9 6 6 6 5 4 3 1 1 0
0 0 0 0 0 0 0 0 0 0 0 1 2 3 3 2 1 3 9 14 17 21 28 37 47 54 54 53 54 55 55 53 48 41 36 32 25 17 11 8 7 6 6 6 5 4 3 2 1
0 0 0 0 0 0 0 0 1 1 1 2 3 3 3 2 4 8 13 17 18 21 26 35 45 50 50 51 52 52 52 49 43 36 32 28 22 15 10 8 6 6 6 6 6 6 4 2 0
0 0 0 0 0 0 0 1 2 2 1 1 3 3 3 3 6 12 17 18 19 22 26 31 38 44 48 49 48 47 46 44 39 34 29 24 19 13 9 7 5 4 4 4 5 6 4 2 1
0 0 0 0 0 0 1 2 2 1 0 1 3 3 3 4 9 15 19 19 20 22 24 27 30 36 42 44 45 45 43 40 38 33 27 21 17 12 8 6 5 3 3 3 4 4 4 3 2
0 0 0 0 0 0 1 2 2 2 2 2 3 2 4 10 16 19 21 20 20 20 22 23 25 29 33 36 40 42 41 40 38 33 28 22 17 13 9 7 5 3 2 2 3 3 3 3 4
0 0 0 0 0 0 1 2 3 4 5 5 3 4 10 19 24 24 22 20 18 17 18 21 23 25 27 30 33 36 37 38 36 33 29 24 18 14 11 9 7 4 1 1 3 3 3 4 5
0 0 0 0 0 0 1 3 3 4 7 7 5 10 19 26 28 27 23 20 17 15 15 17 20 23 26 28 28 29 30 31 30 28 25 21 16 12 11 9 7 4 1 1 3 3 3 4 5
0 0 1 2 1 1 2 3 4 5 6 6 8 16 25 28 28 26 23 20 17 13 13 14 17 21 24 26 25 25 25 25 24 21 19 15 11 9 8 7 5 2 2 2 2 3 3 4 4
0 0 2 3 2 1 3 4 4 4 4 6 9 18 26 27 24 22 22 19 15 13 13 14 16 19 22 23 22 21 21 21 19 16 14 12 9 6 4 4 3 2 1 1 1 1 2 3 2
0 0 2 3 2 2 3 3 3 3 3 6 9 17 23 23 20 18 18 17 14 13 14 14 15 18 20 20 19 17 16 15 15 14 12 11 10 6 3 3 3 2 1 1 1 1 2 2 1
0 0 0 1 1 2 2 3 3 3 5 7 10 15 19 19 18 16 15 14 13 14 15 15 14 16 18 17 15 13 12 12 13 12 11 11 10 7 3 2 2 2 2 2 2 3 2 1 1
0 0 0 0 0 1 1 1 2 4 6 9 11 15 17 17 16 15 14 14 12 14 16 16 14 15 15 13 12 11 10 11 12 11 10 10 9 6 3 1 1 1 1 2 2 2 2 2 1
0 0 0 0 0 0 0 0 1 3 7 11 13 16 18 16 13 13 13 14 14 16 18 16 15 14 13 11 10 10 10 10 11 11 10 9 7 5 3 1 0 0 0 1 1 1 1 1 1
0 0 0 0 0 0 0 0 1 2 5 10 15 17 17 15 13 11 12 14 15 16 17 17 15 14 12 10 9 9 10 9 10 10 10 9 7 5 4 3 1 0 0 0 0 0 0 0 0
0 0 0 0 0 0 0 0 1 2 4 10 15 15 13 11 10 10 12 14 14 14 15 16 16 15 13 11 10 10 11 10 9 9 9 8 7 5 4 3 1 0 0 0 0 0 0 0 0
0 0 0 0 0 0 0 0 0 2 4 8 12 12 10 7 8 10 12 12 12 12 14 16 16 15 14 13 12 11 11 11 9 8 8 7 5 4 2 2 1 0 0 0 0 0 0 0 0
0 0 0 0 0 0 0 0 0 1 3 4 6 7 6 5 8 12 12 11 10 11 13 14 14 14 14 14 12 11 11 10 10 8 7 6 5 4 2 1 0 0 0 0 0 0 0 0 0
0 0 0 0 0 0 0 0 0 0 1 2 2 2 2 4 8 12 12 10 10 11 11 12 12 12 12 12 12 11 11 10 10 9 8 6 6 4 3 1 0 0 0 0 0 0 0 0 0
0 0 0 0 0 0 0 0 0 0 1 2 2 2 1 2 5 7 8 8 9 10 10 10 9 9 9 9 10 11 11 10 9 9 8 6 5 4 3 2 1 0 0 0 0 0 0 0 0
0 0 0 0 0 0 0 0 0 0 0 1 1 2 2 2 2 2 3 4 7 9 10 11 10 8 6 6 7 8 8 8 7 7 6 5 3 3 3 2 1 0 0 0 0 0 0 0 0
0 0 0 0 0 0 0 0 0 0 0 0 0 1 1 1 1 1 1 3 5 7 9 10 10 7 5 5 6 6 5 5 5 4 4 3 2 1 2 2 1 0 0 0 0 0 0 0 0
0 0 0 0 0 0 0 0 0 0 0 0 0 0 0 1 2 2 3 3 3 4 6 8 7 6 5 7 7 6 5 3 3 3 2 1 1 1 1 1 1 0 0 0 0 0 0 0 0
0 0 0 0 0 0 0 0 0 0 0 0 0 0 0 1 3 3 3 3 3 3 4 6 6 6 6 7 7 5 3 1 1 1 0 1 1 1 0 0 0 0 0 0 0 0 0 0 0
0 0 0 0 0 0 0 0 0 0 0 0 0 0 0 1 2 3 3 3 3 2 3 5 6 6 6 6 5 4 2 0 0 0 0 0 0 0 0 0 0 0 0 0 0 0 0 0 0
0 0 0 0 0 0 0 0 0 0 0 0 0 1 1 2 3 3 3 3 2 2 3 4 6 6 6 5 4 3 1 0 0 0 0 0 0 0 0 0 0 0 0 0 0 0 0 0 0
0 0 0 0 0 0 0 0 0 0 0 0 0 1 2 2 2 2 2 2 2 2 3 4 5 6 5 4 3 1 1 0 0 0 0 0 0 0 0 0 0 0 0 0 0 0 0 0 0
0 0 0 0 0 0 0 0 0 0 0 0 0 0 1 1 1 1 1 1 1 2 3 4 5 5 4 3 1 0 0 0 0 0 0 0 0 0 0 0 0 0 0 0 0 0 0 0 0

GEFSSGP_con_prob3kmehi_210.txt.gz
EHI
0 0 0 0 0 0 0 0 0 0 0 0 0 0 0 0 0 0 1 5 17 34 42 40 40 39 40 44 50 55 56 57 57 54 50 47 40 32 23 14 8 5 3 2 2 1 0 0 0
0 0 0 0 0 0 0 0 0 0 0 0 0 0 0 1 1 1 3 9 19 34 42 42 41 41 42 45 50 54 56 56 55 52 47 42 37 30 23 14 7 4 3 1 1 0 0 0 0
0 0 0 0 0 0 0 0 0 0 0 0 0 0 1 2 2 3 7 14 23 34 41 44 43 43 43 44 48 50 51 51 49 46 41 36 31 27 22 13 7 4 3 1 1 1 0 0 0
0 0 0 0 0 0 0 0 0 0 0 0 0 0 1 2 3 5 10 17 25 31 38 42 43 43 42 42 43 43 43 42 41 39 36 32 27 24 21 14 7 4 3 2 2 1 1 0 0
0 0 0 0 0 0 0 0 0 0 0 0 0 0 0 1 3 6 10 16 22 27 33 39 40 40 40 41 41 40 39 37 36 35 34 30 26 23 21 16 8 4 3 3 2 2 2 1 0
0 0 0 0 0 0 0 0 0 0 0 0 0 0 0 2 4 7 8 10 16 24 31 34 34 34 37 40 41 41 40 38 36 35 33 29 25 23 21 15 9 4 3 3 3 3 3 1 1
0 0 0 0 0 0 0 0 0 0 0 0 1 1 1 3 7 9 8 8 12 21 27 28 26 26 30 35 39 41 41 39 39 37 34 30 26 24 20 13 8 5 5 5 5 5 4 2 2
0 0 0 0 0 0 0 0 0 0 0 0 1 1 1 4 10 14 13 11 14 18 21 21 21 22 22 25 31 36 38 39 39 37 33 27 22 18 16 12 9 7 6 6 6 6 5 3 3
0 0 0 0 0 0 0 0 1 1 0 0 0 1 3 8 15 19 17 15 18 20 18 18 21 21 17 17 21 25 29 32 32 30 27 21 14 11 11 12 12 9 6 5 5 4 3 3 3
0 0 0 0 0 0 0 0 1 2 1 0 1 3 7 13 19 21 19 19 23 23 21 20 22 21 16 14 15 15 19 23 23 21 21 18 14 11 11 13 14 10 5 4 4 3 2 2 3
0 0 0 0 0 0 0 0 1 2 2 2 4 7 10 16 20 20 20 21 23 23 22 21 21 21 18 16 15 13 15 19 19 19 21 21 20 18 16 16 14 10 7 5 4 3 2 2 2
0 0 0 1 1 1 0 0 1 2 3 3 6 9 14 18 20 20 20 21 20 18 19 19 20 22 22 20 19 18 19 21 20 22 23 23 24 23 20 18 14 11 8 7 7 4 2 1 1
0 0 1 2 3 2 1 0 2 4 4 4 6 10 15 20 20 20 21 22 19 17 18 19 22 25 26 25 23 22 22 22 21 23 23 22 23 23 21 19 16 11 9 8 6 4 2 0 0
0 0 1 3 4 2 1 0 2 4 5 4 5 7 12 17 19 20 23 24 21 19 20 22 25 27 28 26 23 21 20 20 21 23 23 20 20 20 20 19 16 11 9 8 6 4 2 0 0
0 0 1 2 3 2 1 0 2 3 3 3 3 4 6 12 16 18 21 22 19 18 19 21 24 27 28 27 24 21 19 19 21 23 23 20 18 19 18 16 14 11 11 11 9 5 2 0 0
0 0 0 1 2 1 0 0 1 2 1 2 3 3 5 10 13 14 16 17 18 19 19 18 20 25 27 28 27 23 20 19 19 21 20 19 19 19 18 17 15 13 13 13 12 8 4 1 0
0 0 0 0 0 0 0 0 1 1 1 2 5 6 8 11 12 12 13 16 19 20 18 17 18 22 26 29 28 24 21 19 19 19 19 20 19 18 17 18 17 15 15 15 12 9 6 3 1
0 0 0 0 0 0 0 0 0 0 1 2 5 9 11 12 12 12 12 15 18 18 18 18 19 24 29 31 30 27 23 21 19 19 19 19 18 16 15 16 16 16 16 15 13 11 8 5 3
0 0 0 0 0 0 0 0 0 0 0 2 6 11 14 16 15 14 12 13 15 16 18 21 23 28 32 33 33 31 28 23 19 17 16 15 15 14 14 15 15 16 16 15 13 12 9 6 4
0 0 0 0 0 0 0 0 0 0 1 4 7 10 13 16 19 17 14 12 13 14 16 21 27 30 32 32 31 31 29 23 18 15 13 12 13 14 15 15 14 15 16 16 15 13 9 7 6
0 0 0 0 0 0 0 0 0 1 2 3 4 5 8 13 17 17 15 13 12 12 14 19 25 29 30 30 29 28 26 22 18 15 14 13 15 16 16 15 13 14 16 16 16 15 12 10 9
0 0 0 0 0 0 0 0 0 1 2 2 1 2 4 8 11 13 13 11 10 11 14 17 21 24 26 27 28 27 24 21 18 18 16 16 16 15 13 13 13 14 15 15 16 16 15 12 11
0 0 0 0 0 0 0 0 0 0 1 1 0 1 3 5 8 10 10 8 8 9 11 15 19 20 22 22 25 27 25 22 20 19 19 17 15 13 11 10 11 12 14 15 17 17 15 12 11
0 0 0 0 0 0 0 0 1 0 0 0 0 1 3 3 5 8 9 9 9 9 11 15 19 21 20 18 20 24 25 25 23 20 18 17 15 12 10 8 7 7 10 14 16 16 13 11 10
0 0 0 0 0 0 0 0 0 0 0 0 1 2 3 4 6 9 10 10 10 11 12 15 19 21 20 17 17 20 23 24 23 20 17 15 13 11 8 6 5 5 7 10 12 11 10 8 8
0 0 0 0 0 0 0 0 0 0 0 0 1 2 4 6 7 8 9 9 9 10 11 14 18 20 19 18 17 19 20 21 21 19 15 13 12 9 6 4 4 4 4 5 6 6 6 5 5
0 0 0 0 0 0 0 0 0 0 0 0 0 1 3 5 7 7 6 5 6 7 9 11 14 15 17 17 18 18 18 17 18 16 13 10 9 7 5 3 2 1 1 1 2 3 4 3 3
0 0 0 0 0 0 0 0 0 0 0 0 0 1 2 4 5 5 4 4 4 5 7 9 10 11 12 14 16 16 15 14 14 12 9 6 4 3 2 1 0 1 1 1 1 3 3 3 3
0 0 0 0 0 0 0 0 0 0 0 0 0 0 1 2 4 4 4 5 5 6 7 8 8 9 9 10 12 13 12 11 9 7 5 4 2 1 0 0 0 1 2 2 2 3 3 2 2
0 0 0 0 0 0 0 0 0 0 0 0 0 0 0 1 3 4 5 5 6 6 7 8 8 8 8 9 10 11 10 9 7 5 4 3 2 1 0 0 0 1 1 1 2 3 2 1 1